[[{"header":{"parameterUnit":"m.s-1","parameterCategory":1,"la1":31.0,"la2":29.5877,"lo1":-88.7671,"lo2":-86.6584,"dy":0.0162,"dx":0.0185,"nx":115,"ny":88,"refTime":"2024-09-19T06:00:00:Z","depth":0,"parameterNumber":2,"parameterNumberName":"U-component_of_WINDS"},"data":[0.0,0.0,0.0,0.0,0.0,0.0,0.0,0.0,0.0,0.0,0.0,0.0,0.0,0.0,0.0,0.0,0.0,0.0,0.0,0.0,0.0,0.0,0.0,0.0,0.0,0.0,0.0,0.0,0.0,0.0,0.0,0.0,0.0,0.0,0.0,0.0,0.0,0.0,0.0,0.0,0.0,0.0,0.0,0.0,0.0,0.0,0.0,0.0,0.0,0.0,0.0,0.0,0.0,0.0,0.0,0.0,0.0,0.0,0.0,0.0,0.0,0.0,0.0,0.0,0.0,0.0,0.0,0.0,0.0,0.0,0.0,0.0,0.0,0.0,0.0,0.0,0.0,0.0,0.0,0.0,0.0,0.0,0.0,0.0,0.0,0.0,0.0,0.0,0.0,0.0,0.0,0.0,0.0,0.0,0.0,0.0,0.0,0.0,0.0,0.0,0.0,0.0,0.0,0.0,0.0,0.0,0.0,0.0,0.0,0.0,0.0,0.0,0.0,0.0,0.0,0.0,0.0,0.0,0.0,0.0,0.0,0.0,0.0,0.0,0.0,0.0,0.0,0.0,0.0,0.0,0.0,0.0,0.0,0.0,0.0,0.0,0.0,0.0,0.0,0.0,0.0,0.0,0.0,0.0,0.0,0.0,0.0,0.0,0.0,0.0,0.0,0.0,0.0,0.0,0.0,0.0,0.0,0.0,0.0,0.0,0.0,0.0,0.0,0.0,0.0,0.0,0.0,0.0,0.0,0.0,0.0,0.0,0.0,0.0,0.0,0.0,0.0,0.0,0.0,0.0,0.0,0.0,0.0,0.0,0.0,0.0,0.0,0.0,0.0,0.0,0.0,0.0,0.0,0.0,0.0,0.0,0.0,0.0,0.0,0.0,0.0,0.0,0.0,0.0,0.0,0.0,0.0,0.0,0.0,0.0,0.0,0.0,0.0,0.0,0.0,0.0,0.0,0.0,0.0,0.0,0.0,0.0,0.0,0.0,0.0,0.0,0.0,0.0,0.0,0.0,0.0,0.0,0.0,0.0,0.0,0.0,0.0,0.0,0.0,0.0,0.0,0.0,0.0,0.0,0.0,0.0,0.0,0.0,0.0,0.0,0.0,0.0,0.0,0.0,0.0,0.0,0.0,0.0,0.0,0.0,0.0,0.0,0.0,0.0,0.0,0.0,0.0,0.0,0.0,0.0,0.0,0.0,0.0,0.0,0.0,0.0,0.0,0.0,0.0,0.0,0.0,0.0,0.0,0.0,0.0,0.0,0.0,0.0,0.0,0.0,0.0,0.0,0.0,0.0,0.0,0.0,0.0,0.0,0.0,0.0,0.0,0.0,0.0,0.0,0.0,0.0,0.0,0.0,0.0,0.0,0.0,0.0,0.0,0.0,0.0,0.0,0.0,0.0,0.0,0.0,0.0,0.0,0.0,0.0,0.0,0.0,0.0,0.0,0.0,0.0,0.0,0.0,0.0,0.0,0.0,0.0,0.0,0.0,0.0,0.0,0.0,0.0,0.0,0.0,0.0,0.0,0.0,0.0,0.0,0.0,0.0,0.0,0.0,0.0,0.0,0.0,0.0,0.0,0.0,0.0,0.0,0.0,0.0,0.0,0.0,0.0,0.0,0.0,0.0,0.0,0.0,0.0,0.0,0.0,0.0,0.0,0.0,0.0,0.0,0.0,0.0,0.0,0.0,0.0,0.0,0.0,0.0,0.0,0.0,0.0,0.0,0.0,0.0,0.0,0.0,0.0,0.0,0.0,0.0,0.0,0.0,0.0,0.0,0.0,0.0,0.0,0.0,0.0,0.0,0.0,0.0,0.0,0.0,0.0,0.0,0.0,0.0,0.0,0.0,0.0,0.0,0.0,0.0,0.0,0.0,0.0,0.0,0.0,0.0,0.0,0.0,0.0,0.0,0.0,0.0,0.0,0.0,0.0,0.0,0.0,0.0,0.0,0.0,0.0,0.0,0.0,0.0,0.0,0.0,0.0,0.0,0.0,0.0,0.0,0.0,0.0,0.0,0.0,0.0,0.0,0.0,0.0,0.0,0.0,0.0,0.0,0.0,0.0,0.0,0.0,0.0,0.0,0.0,0.0,0.0,0.0,0.0,0.0,0.0,0.0,0.0,0.0,0.0,0.0,0.0,0.0,0.0,0.0,0.0,0.0,0.0,0.0,0.0,0.0,0.0,0.0,0.0,0.0,0.0,0.0,0.0,0.0,0.0,0.0,0.0,0.0,0.0,0.0,0.0,0.0,0.0,0.0,0.0,0.0,0.0,0.0,0.0,0.0,0.0,0.0,0.0,0.0,0.0,0.0,0.0,0.0,0.0,0.0,0.0,0.0,0.0,0.0,0.0,0.0,0.0,0.0,0.0,0.0,0.0,0.0,0.0,0.0,0.0,0.0,0.0,0.0,0.0,0.0,0.0,0.0,0.0,0.0,0.0,0.0,0.0,0.0,0.0,0.0,0.0,0.0,0.0,0.0,0.0,0.0,0.0,0.0,0.0,0.0,0.0,0.0,0.0,0.0,0.0,0.0,0.0,0.0,0.0,0.0,0.0,0.0,0.0,0.0,0.0,0.0,0.0,0.0,0.0,0.0,0.0,0.0,0.0,0.0,0.0,0.0,0.0,0.0,0.0,0.0,0.0,0.0,0.0,0.0,0.0,0.0,0.0,0.0,0.0,0.0,0.0,0.0,0.0,0.0,0.0,0.0,0.0,0.0,0.0,0.0,0.0,0.0,0.0,0.0,0.0,0.0,0.0,0.0,0.0,0.0,0.0,0.0,0.0,0.0,0.0,0.0,0.0,0.0,0.0,0.0,0.0,0.0,0.0,0.0,0.0,0.0,0.0,0.0,0.0,0.0,0.0,0.0,0.0,0.0,0.0,0.0,0.0,0.0,0.0,0.0,0.0,0.0,0.0,0.0,0.0,0.0,0.0,0.0,0.0,0.0,0.0,0.0,0.0,0.0,0.0,0.0,0.0,0.0,0.0,0.0,0.0,0.0,0.0,0.0,0.0,0.0,0.0,0.0,0.0,0.0,0.0,0.0,0.0,0.0,0.0,0.0,0.0,0.0,0.0,0.0,0.0,0.0,0.0,0.0,0.0,0.0,0.0,0.0,0.0,0.0,0.0,0.0,0.0,0.0,0.0,0.0,0.0,0.0,0.0,0.0,0.0,0.0,0.0,0.0,0.0,0.0,0.0,0.0,0.0,0.0,0.0,0.0,0.0,0.0,0.0,0.0,0.0,0.0,0.0,0.0,0.0,0.0,0.0,0.0,0.0,0.0,0.0,0.0,0.0,0.0,0.0,0.0,0.0,0.0,0.0,0.0,0.0,0.0,0.0,0.0,0.0,0.0,0.0,0.0,0.0,0.0,0.0,0.0,0.0,0.0,0.0,0.0,0.0,0.0,0.0,0.0,0.0,0.0,0.0,0.0,0.0,0.0,0.0,0.0,0.0,0.0,0.0,0.0,0.0,0.0,0.0,0.0,0.0,0.0,0.0,0.0,0.0,0.0,0.0,0.0,0.0,0.0,0.0,0.0,0.0,0.0,0.0,0.0,0.0,0.0,0.0,0.0,0.0,0.0,0.0,0.0,0.0,0.0,0.0,0.0,0.0,0.0,0.0,0.0,0.0,0.0,0.0,0.0,0.0,0.0,0.0,0.0,0.0,0.0,0.0,0.0,0.0,0.0,0.0,0.0,0.0,0.0,0.0,0.0,0.0,0.0,0.0,0.0,0.0,0.0,0.0,0.0,0.0,0.0,0.0,0.0,0.0,0.0,0.0,0.0,0.0,0.0,0.0,0.0,0.0,0.0,0.0,0.0,0.0,0.0,0.0,0.0,0.0,0.0,0.0,0.0,0.0,0.0,0.0,0.0,0.0,0.0,0.0,0.0,0.0,0.0,0.0,0.0,0.0,0.0,0.0,0.0,0.0,0.0,0.0,0.0,0.0,0.0,0.0,0.0,0.0,0.0,0.0,0.0,0.0,0.0,0.0,0.0,0.0,0.0,0.0,0.0,0.0,0.0,0.0,0.0,0.0,0.0,0.0,0.0,0.0,0.0,0.0,0.0,0.0,0.0,0.0,0.0,0.0,0.0,0.0,0.0,0.0,0.0,0.0,0.0,0.0,0.0,0.0,0.0,0.0,0.0,0.0,0.0,0.0,0.0,0.0,0.0,0.0,0.0,0.0,0.0,0.0,0.0,0.0,0.0,0.0,0.0,0.0,0.0,0.0,0.0,0.0,0.0,0.0,0.0,0.0,0.0,-1.284,0.0,0.0,0.0,0.0,0.0,0.0,0.0,0.0,0.0,0.0,0.0,0.0,0.0,0.0,0.0,0.0,0.0,0.0,0.0,0.0,0.0,0.0,0.0,0.0,0.0,0.0,0.0,0.0,0.0,0.0,0.0,0.0,0.0,0.0,0.0,0.0,0.0,0.0,0.0,0.0,0.0,0.0,0.0,0.0,0.0,0.0,0.0,0.0,0.0,0.0,0.0,0.0,0.0,0.0,0.0,0.0,0.0,0.0,0.0,0.0,0.0,0.0,0.0,0.0,0.0,0.0,0.0,0.0,0.0,0.0,0.0,0.0,0.0,0.0,0.0,0.0,0.0,0.0,0.0,0.0,0.0,0.0,0.0,0.0,0.0,0.0,0.0,0.0,0.0,0.0,0.0,0.0,0.0,0.0,0.0,0.0,0.0,0.0,0.0,0.0,0.0,0.0,0.0,0.0,0.0,0.0,0.0,0.0,0.0,0.0,-1.4471,-1.478,-1.3628,-1.3009,-1.2967,0.0,0.0,0.0,0.0,0.0,0.0,0.0,0.0,0.0,0.0,0.0,0.0,0.0,0.0,0.0,0.0,0.0,0.0,0.0,0.0,0.0,0.0,0.0,0.0,0.0,0.0,0.0,0.0,0.0,0.0,0.0,0.0,0.0,0.0,0.0,0.0,0.0,0.0,0.0,0.0,0.0,0.0,0.0,0.0,0.0,0.0,0.0,0.0,0.0,0.0,0.0,0.0,0.0,0.0,0.0,0.0,0.0,0.0,0.0,0.0,0.0,0.0,0.0,0.0,0.0,0.0,0.0,0.0,0.0,0.0,0.0,0.0,0.0,0.0,0.0,0.0,0.0,0.0,0.0,0.0,0.0,0.0,0.0,0.0,0.0,0.0,0.0,0.0,0.0,0.0,0.0,0.0,0.0,0.0,0.0,0.0,0.0,0.0,0.0,0.0,0.0,0.0,0.0,0.0,0.0,0.0,0.0,0.0,0.0,0.0,0.0,0.0,-1.391,-1.3192,-1.277,0.0,0.0,0.0,0.0,0.0,0.0,0.0,0.0,0.0,0.0,0.0,0.0,0.0,0.0,0.0,0.0,0.0,0.0,0.0,0.0,0.0,0.0,0.0,0.0,0.0,0.0,0.0,0.0,0.0,0.0,0.0,0.0,0.0,0.0,0.0,0.0,0.0,0.0,0.0,0.0,0.0,0.0,0.0,0.0,0.0,0.0,0.0,0.0,0.0,0.0,0.0,0.0,0.0,0.0,0.0,0.0,0.0,0.0,0.0,0.0,0.0,0.0,0.0,0.0,0.0,0.0,0.0,0.0,0.0,0.0,0.0,0.0,0.0,0.0,0.0,0.0,0.0,0.0,0.0,0.0,0.0,0.0,0.0,0.0,0.0,0.0,0.0,0.0,0.0,0.0,0.0,0.0,0.0,0.0,0.0,0.0,0.0,0.0,0.0,0.0,0.0,0.0,0.0,0.0,0.0,0.0,0.0,0.0,0.0,0.0,-1.4191,-1.478,-1.4682,0.0,-1.2224,0.0,0.0,0.0,0.0,0.0,0.0,0.0,0.0,0.0,0.0,0.0,0.0,0.0,0.0,0.0,0.0,0.0,0.0,0.0,0.0,0.0,0.0,0.0,0.0,0.0,0.0,0.0,0.0,0.0,0.0,0.0,0.0,0.0,0.0,0.0,0.0,0.0,0.0,0.0,0.0,0.0,0.0,0.0,0.0,0.0,0.0,0.0,0.0,0.0,0.0,0.0,0.0,0.0,0.0,0.0,0.0,0.0,0.0,0.0,0.0,0.0,0.0,0.0,0.0,0.0,0.0,0.0,0.0,0.0,0.0,0.0,0.0,0.0,0.0,0.0,0.0,0.0,0.0,0.0,0.0,0.0,0.0,0.0,0.0,0.0,0.0,0.0,0.0,0.0,0.0,0.0,0.0,0.0,0.0,0.0,0.0,0.0,0.0,0.0,0.0,0.0,0.0,0.0,0.0,0.0,0.0,0.0,0.0,0.0,0.0,0.0,-1.478,-1.4121,-1.3123,0.0,0.0,0.0,0.0,0.0,0.0,0.0,0.0,0.0,0.0,0.0,0.0,0.0,0.0,0.0,0.0,0.0,0.0,0.0,0.0,0.0,0.0,0.0,0.0,0.0,0.0,0.0,0.0,0.0,0.0,0.0,0.0,0.0,0.0,0.0,0.0,0.0,0.0,0.0,0.0,0.0,0.0,0.0,0.0,0.0,0.0,0.0,0.0,0.0,0.0,0.0,0.0,0.0,0.0,0.0,0.0,0.0,0.0,0.0,0.0,0.0,0.0,0.0,0.0,0.0,0.0,0.0,0.0,0.0,0.0,0.0,0.0,0.0,0.0,0.0,0.0,0.0,0.0,0.0,0.0,0.0,0.0,0.0,0.0,0.0,0.0,0.0,0.0,0.0,0.0,0.0,0.0,0.0,0.0,0.0,0.0,0.0,0.0,0.0,0.0,0.0,0.0,0.0,0.0,0.0,0.0,0.0,0.0,0.0,0.0,-1.3516,0.0,-1.4963,-1.4036,-1.283,-1.1434,0.0,0.0,0.0,0.0,0.0,0.0,0.0,0.0,0.0,0.0,0.0,0.0,0.0,0.0,0.0,0.0,0.0,0.0,0.0,0.0,0.0,0.0,0.0,0.0,0.0,0.0,0.0,0.0,0.0,0.0,0.0,0.0,0.0,0.0,0.0,0.0,0.0,0.0,0.0,0.0,0.0,0.0,0.0,0.0,0.0,0.0,0.0,0.0,0.0,0.0,0.0,0.0,0.0,0.0,0.0,0.0,0.0,0.0,0.0,0.0,0.0,0.0,0.0,0.0,0.0,0.0,0.0,0.0,0.0,0.0,0.0,0.0,0.0,0.0,0.0,0.0,0.0,0.0,0.0,0.0,0.0,0.0,0.0,0.0,0.0,0.0,0.0,0.0,0.0,0.0,0.0,0.0,0.0,0.0,0.0,0.0,0.0,0.0,0.0,0.0,0.0,0.0,0.0,0.0,0.0,0.0,0.0,0.0,0.0,-1.4149,-1.4471,-1.5607,-1.5047,-1.3485,0.0,0.0,0.0,0.0,0.0,0.0,0.0,0.0,0.0,0.0,0.0,0.0,0.0,0.0,0.0,0.0,0.0,0.0,0.0,0.0,0.0,0.0,0.0,0.0,0.0,0.0,0.0,0.0,0.0,0.0,0.0,0.0,0.0,0.0,0.0,0.0,0.0,0.0,0.0,0.0,0.0,0.0,0.0,0.0,0.0,0.0,0.0,0.0,0.0,0.0,0.0,0.0,0.0,0.0,0.0,0.0,0.0,0.0,0.0,0.0,0.0,0.0,0.0,0.0,0.0,0.0,0.0,0.0,0.0,0.0,0.0,0.0,0.0,0.0,0.0,0.0,0.0,0.0,0.0,0.0,0.0,0.0,0.0,0.0,0.0,0.0,0.0,0.0,0.0,0.0,0.0,0.0,0.0,0.0,0.0,0.0,0.0,0.0,0.0,0.0,0.0,0.0,0.0,0.0,0.0,0.0,0.0,0.0,0.0,-1.2405,-1.301,-1.4289,-1.6143,-1.3811,-1.2352,0.0,0.0,0.0,0.0,0.0,0.0,0.0,0.0,0.0,0.0,0.0,0.0,0.0,0.0,0.0,0.0,0.0,0.0,0.0,0.0,0.0,0.0,0.0,0.0,0.0,0.0,0.0,0.0,0.0,0.0,0.0,0.0,0.0,0.0,0.0,0.0,0.0,0.0,0.0,0.0,0.0,0.0,0.0,0.0,0.0,0.0,0.0,0.0,0.0,0.0,0.0,0.0,0.0,0.0,0.0,0.0,0.0,0.0,0.0,0.0,0.0,0.0,0.0,0.0,0.0,0.0,0.0,0.0,0.0,0.0,0.0,0.0,0.0,0.0,0.0,0.0,0.0,0.0,0.0,0.0,0.0,0.0,0.0,0.0,0.0,0.0,0.0,0.0,0.0,0.0,0.0,0.0,0.0,0.0,0.0,0.0,0.0,0.0,0.0,0.0,0.0,0.0,0.0,0.0,0.0,0.0,0.0,0.0,0.0,-1.2293,0.0,-1.481,0.0,-1.3375,-1.1801,0.0,0.0,0.0,0.0,0.0,0.0,0.0,0.0,0.0,0.0,0.0,0.0,0.0,0.0,0.0,0.0,0.0,0.0,0.0,0.0,0.0,0.0,0.0,0.0,0.0,0.0,0.0,0.0,0.0,0.0,0.0,0.0,0.0,0.0,0.0,0.0,0.0,0.0,0.0,0.0,0.0,0.0,0.0,0.0,0.0,0.0,0.0,0.0,0.0,0.0,0.0,0.0,0.0,0.0,0.0,0.0,0.0,0.0,0.0,0.0,0.0,0.0,0.0,0.0,0.0,0.0,0.0,0.0,0.0,0.0,0.0,0.0,0.0,0.0,0.0,0.0,0.0,0.0,0.0,0.0,0.0,0.0,0.0,0.0,0.0,0.0,0.0,0.0,0.0,0.0,0.0,0.0,0.0,0.0,0.0,0.0,0.0,0.0,0.0,0.0,0.0,0.0,0.0,0.0,0.0,0.0,0.0,0.0,-1.2307,-1.4638,-1.5887,-1.5988,-1.4893,-1.397,-1.2007,0.0,0.0,0.0,0.0,0.0,0.0,0.0,0.0,0.0,0.0,0.0,0.0,0.0,0.0,0.0,0.0,0.0,0.0,0.0,0.0,0.0,0.0,0.0,0.0,0.0,0.0,0.0,0.0,0.0,0.0,0.0,0.0,0.0,0.0,0.0,0.0,0.0,0.0,0.0,0.0,0.0,0.0,0.0,0.0,0.0,0.0,0.0,0.0,0.0,0.0,0.0,0.0,0.0,0.0,0.0,0.0,0.0,0.0,0.0,0.0,0.0,0.0,0.0,0.0,0.0,0.0,0.0,0.0,0.0,0.0,0.0,0.0,0.0,0.0,0.0,0.0,0.0,0.0,0.0,0.0,0.0,0.0,0.0,0.0,0.0,0.0,0.0,0.0,0.0,0.0,0.0,0.0,0.0,0.0,0.0,0.0,0.0,0.0,0.0,0.0,0.0,0.0,0.0,0.0,0.0,0.0,0.0,0.0,0.0,-1.3443,-1.458,-1.5686,-1.6575,-1.3798,-1.2157,0.0,0.0,0.0,0.0,0.0,0.0,0.0,0.0,0.0,0.0,0.0,0.0,0.0,0.0,0.0,0.0,0.0,0.0,0.0,0.0,0.0,0.0,0.0,0.0,0.0,0.0,0.0,0.0,0.0,0.0,0.0,0.0,0.0,0.0,0.0,0.0,0.0,0.0,0.0,0.0,0.0,0.0,0.0,0.0,0.0,0.0,0.0,0.0,0.0,0.0,0.0,0.0,0.0,0.0,0.0,0.0,0.0,0.0,0.0,0.0,0.0,0.0,0.0,0.0,0.0,0.0,0.0,0.0,0.0,0.0,0.0,0.0,0.0,0.0,0.0,0.0,0.0,0.0,0.0,0.0,0.0,0.0,0.0,0.0,0.0,0.0,0.0,0.0,0.0,0.0,0.0,0.0,0.0,0.0,0.0,0.0,0.0,0.0,0.0,0.0,0.0,0.0,0.0,0.0,0.0,0.0,0.0,0.0,0.0,-1.4296,-1.5435,-1.6468,-1.7329,-1.4373,-1.2688,-1.2458,0.0,0.0,0.0,0.0,0.0,0.0,0.0,0.0,0.0,0.0,0.0,0.0,0.0,0.0,0.0,0.0,0.0,0.0,0.0,0.0,0.0,0.0,0.0,0.0,0.0,0.0,0.0,0.0,0.0,0.0,0.0,0.0,0.0,0.0,0.0,0.0,0.0,0.0,0.0,0.0,0.0,0.0,0.0,0.0,0.0,0.0,0.0,0.0,0.0,0.0,0.0,0.0,0.0,0.0,0.0,0.0,0.0,0.0,0.0,0.0,0.0,0.0,0.0,0.0,0.0,0.0,0.0,0.0,0.0,0.0,0.0,0.0,0.0,0.0,0.0,0.0,0.0,0.0,0.0,0.0,0.0,0.0,0.0,0.0,0.0,0.0,0.0,0.0,0.0,0.0,0.0,0.0,0.0,0.0,0.0,0.0,0.0,0.0,0.0,0.0,0.0,0.0,0.0,0.0,0.0,0.0,0.0,0.0,-1.6736,-1.8084,-1.8213,-1.7112,-1.5611,-1.3647,0.0,0.0,0.0,0.0,0.0,0.0,0.0,0.0,0.0,0.0,0.0,0.0,0.0,0.0,0.0,0.0,0.0,0.0,0.0,0.0,0.0,0.0,0.0,0.0,0.0,0.0,0.0,0.0,0.0,0.0,0.0,0.0,0.0,0.0,0.0,0.0,0.0,0.0,0.0,0.0,0.0,0.0,0.0,0.0,0.0,0.0,0.0,0.0,0.0,0.0,0.0,0.0,0.0,0.0,0.0,0.0,0.0,0.0,0.0,0.0,0.0,0.0,0.0,0.0,0.0,0.0,0.0,0.0,0.0,0.0,0.0,0.0,0.0,0.0,0.0,0.0,0.0,0.0,0.0,0.0,0.0,0.0,0.0,0.0,0.0,0.0,0.0,0.0,0.0,0.0,0.0,0.0,0.0,0.0,0.0,0.0,0.0,0.0,0.0,0.0,0.0,0.0,0.0,0.0,0.0,0.0,0.0,0.0,0.0,-1.7697,-1.889,-1.9318,-1.887,-1.661,-1.4607,0.0,0.0,0.0,0.0,0.0,0.0,0.0,0.0,0.0,0.0,0.0,0.0,0.0,0.0,0.0,0.0,0.0,0.0,0.0,0.0,0.0,0.0,0.0,0.0,0.0,0.0,0.0,0.0,0.0,0.0,0.0,0.0,0.0,0.0,0.0,0.0,0.0,0.0,0.0,0.0,0.0,0.0,0.0,0.0,0.0,0.0,0.0,0.0,0.0,0.0,0.0,0.0,0.0,0.0,0.0,0.0,0.0,0.0,0.0,0.0,0.0,0.0,0.0,0.0,0.0,0.0,0.0,0.0,0.0,0.0,0.0,0.0,0.0,0.0,0.0,0.0,0.0,0.0,0.0,0.0,0.0,0.0,0.0,0.0,0.0,0.0,0.0,0.0,0.0,0.0,0.0,0.0,0.0,0.0,0.0,0.0,0.0,0.0,0.0,0.0,0.0,0.0,0.0,0.0,0.0,0.0,0.0,0.0,-1.6833,-1.878,-1.9708,-2.0055,-1.9793,-1.78,-1.5788,0.0,0.0,0.0,0.0,0.0,0.0,0.0,0.0,0.0,0.0,0.0,0.0,0.0,0.0,0.0,0.0,0.0,0.0,0.0,0.0,0.0,0.0,0.0,0.0,0.0,0.0,0.0,0.0,0.0,0.0,0.0,0.0,0.0,0.0,0.0,0.0,0.0,0.0,0.0,0.0,0.0,0.0,0.0,0.0,0.0,0.0,0.0,0.0,0.0,0.0,0.0,0.0,0.0,0.0,0.0,0.0,0.0,0.0,0.0,0.0,0.0,0.0,0.0,0.0,0.0,0.0,0.0,0.0,0.0,0.0,0.0,0.0,0.0,0.0,0.0,0.0,0.0,0.0,0.0,0.0,0.0,0.0,0.0,0.0,0.0,0.0,0.0,0.0,0.0,0.0,0.0,0.0,0.0,0.0,0.0,0.0,0.0,0.0,0.0,0.0,0.0,0.0,0.0,0.0,0.0,0.0,0.0,0.0,-1.7695,-1.9839,-2.0543,-2.0667,-2.0246,-1.8925,-1.6901,0.0,0.0,0.0,0.0,0.0,0.0,0.0,0.0,0.0,0.0,0.0,0.0,0.0,0.0,0.0,0.0,0.0,0.0,0.0,0.0,0.0,0.0,0.0,0.0,0.0,0.0,0.0,0.0,0.0,0.0,0.0,0.0,0.0,0.0,0.0,0.0,0.0,0.0,0.0,0.0,0.0,0.0,0.0,0.0,0.0,0.0,0.0,0.0,0.0,0.0,0.0,0.0,0.0,0.0,0.0,0.0,0.0,0.0,0.0,0.0,0.0,0.0,0.0,0.0,0.0,0.0,0.0,0.0,0.0,0.0,0.0,0.0,0.0,0.0,0.0,0.0,0.0,0.0,0.0,0.0,0.0,0.0,0.0,0.0,0.0,0.0,0.0,0.0,0.0,0.0,0.0,0.0,0.0,0.0,0.0,0.0,0.0,0.0,0.0,0.0,0.0,0.0,0.0,0.0,0.0,0.0,0.0,0.0,-1.9054,-2.0489,-2.1498,-2.1981,-2.1887,-1.9145,-1.6545,0.0,0.0,0.0,0.0,0.0,0.0,0.0,0.0,0.0,0.0,0.0,0.0,0.0,0.0,0.0,0.0,0.0,0.0,0.0,0.0,0.0,0.0,0.0,0.0,0.0,0.0,0.0,0.0,0.0,0.0,0.0,0.0,0.0,0.0,0.0,0.0,0.0,0.0,0.0,0.0,0.0,0.0,0.0,0.0,0.0,0.0,0.0,0.0,-0.8872,0.0,0.0,0.0,0.0,0.0,0.0,0.0,0.0,0.0,0.0,0.0,0.0,0.0,0.0,0.0,0.0,0.0,0.0,0.0,0.0,0.0,0.0,0.0,0.0,0.0,0.0,0.0,0.0,0.0,0.0,0.0,0.0,0.0,0.0,0.0,0.0,0.0,0.0,0.0,0.0,0.0,0.0,0.0,0.0,0.0,0.0,0.0,0.0,0.0,0.0,0.0,0.0,0.0,0.0,0.0,0.0,0.0,0.0,0.0,-1.9603,-2.104,-2.1484,-2.1722,-2.167,-1.8946,-1.6593,0.0,0.0,0.0,0.0,0.0,0.0,0.0,0.0,0.0,0.0,0.0,0.0,0.0,0.0,0.0,0.0,0.0,0.0,0.0,0.0,0.0,0.0,0.0,0.0,0.0,0.0,0.0,0.0,0.0,0.0,0.0,0.0,0.0,0.0,0.0,0.0,0.0,0.0,0.0,0.0,0.0,0.0,0.0,0.0,0.0,0.0,0.0,0.0,0.0,0.0,0.0,0.0,0.0,0.0,0.0,0.0,0.0,0.0,0.0,0.0,0.0,0.0,0.0,0.0,0.0,0.0,0.0,0.0,0.0,0.0,0.0,0.0,0.0,0.0,0.0,0.0,0.0,0.0,0.0,0.0,0.0,0.0,0.0,0.0,0.0,0.0,0.0,0.0,0.0,0.0,0.0,0.0,0.0,0.0,0.0,0.0,0.0,0.0,0.0,0.0,0.0,0.0,0.0,0.0,0.0,0.0,0.0,-1.7556,-1.9675,-2.1212,-2.1102,-2.102,-2.0943,-1.8657,-1.6833,-1.562,0.0,0.0,0.0,0.0,0.0,0.0,0.0,0.0,0.0,0.0,0.0,0.0,0.0,0.0,0.0,0.0,0.0,0.0,0.0,0.0,0.0,0.0,0.0,0.0,0.0,0.0,0.0,0.0,0.0,0.0,0.0,0.0,0.0,0.0,0.0,0.0,0.0,0.0,-0.8628,-0.9753,0.0,0.0,0.0,0.0,0.0,0.0,0.0,0.0,-0.9983,0.0,0.0,0.0,0.0,0.0,0.0,0.0,0.0,0.0,0.0,0.0,0.0,0.0,0.0,0.0,0.0,0.0,0.0,0.0,0.0,0.0,0.0,0.0,0.0,0.0,0.0,0.0,0.0,0.0,0.0,0.0,0.0,0.0,0.0,0.0,0.0,0.0,0.0,0.0,0.0,0.0,0.0,0.0,0.0,0.0,0.0,0.0,0.0,0.0,0.0,0.0,0.0,0.0,0.0,0.0,0.0,-1.6211,-1.8024,-1.9434,-2.0468,-2.1214,-2.1209,-2.0412,-1.8829,-1.7243,-1.568,0.0,0.0,0.0,0.0,0.0,0.0,0.0,0.0,0.0,0.0,0.0,0.0,0.0,0.0,0.0,0.0,0.0,0.0,0.0,0.0,0.0,0.0,0.0,0.0,0.0,0.0,0.0,0.0,0.0,0.0,0.0,0.0,0.0,0.0,0.0,0.0,0.0,0.0,0.0,-1.1271,-1.1946,0.0,0.0,0.0,0.0,0.0,0.0,0.0,0.0,-0.9769,0.0,0.0,0.0,0.0,0.0,0.0,0.0,0.0,0.0,0.0,0.0,0.0,0.0,0.0,0.0,0.0,0.0,0.0,0.0,0.0,0.0,0.0,0.0,0.0,0.0,0.0,0.0,0.0,0.0,0.0,0.0,0.0,0.0,0.0,0.0,0.0,0.0,0.0,0.0,0.0,0.0,0.0,0.0,0.0,0.0,0.0,0.0,0.0,0.0,0.0,0.0,0.0,0.0,0.0,0.0,-1.5886,-1.7817,-1.9346,-2.0468,-2.0752,-2.0572,-1.9897,-1.7728,-1.6057,0.0,0.0,0.0,0.0,0.0,0.0,0.0,0.0,0.0,0.0,0.0,0.0,0.0,0.0,0.0,0.0,0.0,0.0,0.0,0.0,0.0,0.0,0.0,0.0,0.0,0.0,0.0,0.0,0.0,0.0,0.0,0.0,0.0,0.0,0.0,0.0,0.0,0.0,0.0,0.0,-1.1563,-1.2155,-1.2783,0.0,0.0,0.0,0.0,0.0,0.0,-1.1263,-1.0492,0.0,0.0,0.0,0.0,0.0,0.0,0.0,0.0,0.0,0.0,0.0,0.0,0.0,0.0,0.0,0.0,0.0,0.0,0.0,0.0,0.0,0.0,0.0,0.0,0.0,0.0,0.0,0.0,0.0,0.0,0.0,0.0,0.0,0.0,0.0,0.0,0.0,0.0,0.0,0.0,0.0,0.0,0.0,0.0,0.0,0.0,0.0,0.0,0.0,0.0,0.0,0.0,0.0,0.0,0.0,-1.5063,-1.7222,-1.8869,-1.992,-1.9761,-1.9475,-1.9085,-1.6604,-1.4949,0.0,0.0,0.0,0.0,0.0,0.0,0.0,0.0,0.0,0.0,0.0,0.0,0.0,0.0,0.0,0.0,0.0,0.0,0.0,0.0,0.0,0.0,0.0,0.0,0.0,0.0,0.0,0.0,0.0,0.0,0.0,0.0,0.0,0.0,0.0,0.0,0.0,0.0,0.0,0.0,0.0,-1.2593,-1.3389,-1.3102,0.0,0.0,0.0,0.0,-1.3367,-1.2403,0.0,0.0,0.0,0.0,0.0,0.0,0.0,0.0,0.0,0.0,0.0,0.0,0.0,0.0,0.0,0.0,0.0,0.0,0.0,0.0,0.0,0.0,0.0,0.0,0.0,0.0,0.0,0.0,0.0,0.0,0.0,0.0,0.0,0.0,0.0,0.0,0.0,0.0,0.0,0.0,0.0,0.0,0.0,0.0,0.0,0.0,0.0,0.0,0.0,0.0,0.0,0.0,0.0,0.0,0.0,0.0,-1.4041,-1.6036,-1.7226,-1.7595,-1.7972,-1.7933,-1.7479,-1.635,-1.5141,0.0,0.0,0.0,0.0,0.0,0.0,0.0,0.0,0.0,0.0,0.0,0.0,0.0,0.0,0.0,0.0,0.0,0.0,0.0,0.0,0.0,0.0,0.0,0.0,0.0,0.0,0.0,0.0,0.0,0.0,0.0,0.0,0.0,0.0,0.0,0.0,0.0,0.0,0.0,0.0,0.0,-1.4132,-1.4479,-1.4076,-1.3988,0.0,0.0,-1.3865,-1.4359,-1.3891,0.0,0.0,0.0,0.0,0.0,0.0,0.0,0.0,0.0,0.0,0.0,0.0,0.0,0.0,0.0,0.0,0.0,0.0,0.0,0.0,0.0,0.0,0.0,0.0,0.0,0.0,0.0,0.0,0.0,0.0,0.0,0.0,0.0,0.0,0.0,0.0,0.0,0.0,0.0,0.0,0.0,0.0,0.0,0.0,0.0,0.0,0.0,0.0,0.0,0.0,0.0,0.0,0.0,0.0,0.0,-1.1444,-1.4141,-1.587,-1.6854,-1.7095,-1.7611,-1.7668,-1.7207,-1.5495,-1.4165,0.0,0.0,0.0,0.0,0.0,0.0,0.0,0.0,0.0,0.0,0.0,0.0,0.0,0.0,0.0,0.0,0.0,0.0,0.0,0.0,0.0,0.0,0.0,0.0,0.0,0.0,0.0,0.0,0.0,0.0,0.0,0.0,0.0,0.0,0.0,0.0,0.0,0.0,0.0,0.0,0.0,0.0,-1.4794,-1.4877,0.0,0.0,0.0,-1.4585,-1.4794,0.0,0.0,0.0,0.0,0.0,0.0,0.0,0.0,0.0,0.0,0.0,0.0,0.0,0.0,0.0,0.0,0.0,0.0,0.0,0.0,0.0,0.0,0.0,0.0,0.0,0.0,0.0,0.0,0.0,0.0,0.0,0.0,0.0,0.0,0.0,0.0,0.0,0.0,0.0,0.0,0.0,0.0,0.0,0.0,0.0,0.0,0.0,0.0,0.0,0.0,0.0,0.0,0.0,0.0,0.0,0.0,0.0,-1.4149,-1.5674,-1.6567,-1.685,-1.7176,-1.7227,-1.6968,-1.4913,0.0,0.0,0.0,0.0,0.0,0.0,0.0,0.0,0.0,0.0,0.0,0.0,0.0,0.0,0.0,0.0,0.0,0.0,0.0,0.0,0.0,0.0,0.0,0.0,0.0,0.0,0.0,-0.5951,0.0,0.0,0.0,0.0,0.0,0.0,0.0,0.0,0.0,0.0,0.0,0.0,0.0,0.0,-1.4811,-1.5287,-1.5732,-1.5949,0.0,0.0,-1.538,-1.5494,-1.4831,-1.4051,0.0,0.0,0.0,0.0,0.0,0.0,0.0,0.0,0.0,0.0,0.0,0.0,0.0,0.0,0.0,0.0,0.0,0.0,0.0,0.0,0.0,0.0,0.0,0.0,0.0,0.0,0.0,0.0,0.0,0.0,0.0,0.0,0.0,0.0,0.0,0.0,0.0,0.0,0.0,0.0,0.0,0.0,0.0,0.0,0.0,0.0,0.0,0.0,0.0,0.0,0.0,0.0,0.0,0.0,0.0,-1.3604,-1.5042,-1.5998,-1.6422,-1.6047,-1.6036,-1.6418,-1.5029,-1.3718,0.0,0.0,0.0,0.0,0.0,0.0,0.0,0.0,0.0,0.0,0.0,0.0,0.0,0.0,0.0,0.0,0.0,0.0,0.0,0.0,0.0,0.0,0.0,0.0,0.0,0.0,0.0,0.0,0.0,0.0,0.0,0.0,0.0,0.0,0.0,0.0,0.0,0.0,0.0,0.0,0.0,-1.5763,-1.6247,-1.6645,-1.7058,0.0,0.0,-1.6425,-1.681,-1.6498,-1.5753,-1.4428,0.0,0.0,0.0,0.0,0.0,0.0,0.0,0.0,0.0,0.0,0.0,0.0,0.0,0.0,0.0,0.0,0.0,0.0,0.0,0.0,0.0,0.0,0.0,0.0,0.0,0.0,0.0,0.0,0.0,0.0,0.0,0.0,0.0,0.0,0.0,0.0,0.0,0.0,0.0,0.0,0.0,0.0,0.0,0.0,0.0,0.0,0.0,0.0,0.0,0.0,0.0,0.0,0.0,-1.1733,-1.3892,-1.5404,-1.6117,-1.5984,-1.6109,-1.6246,-1.6392,-1.5038,-1.3945,0.0,0.0,0.0,0.0,0.0,0.0,0.0,0.0,0.0,0.0,0.0,0.0,0.0,0.0,0.0,0.0,0.0,0.0,0.0,0.0,0.0,0.0,0.0,0.0,0.0,0.0,0.0,0.0,-0.8637,-0.8994,-0.9009,0.0,0.0,0.0,0.0,0.0,0.0,0.0,0.0,0.0,0.0,-1.7108,-1.7554,-1.7999,0.0,0.0,-1.7616,-1.7141,-1.6997,-1.6425,-1.5604,-1.449,-1.3504,0.0,0.0,0.0,0.0,0.0,0.0,0.0,0.0,0.0,0.0,0.0,0.0,0.0,0.0,0.0,0.0,0.0,0.0,0.0,0.0,0.0,0.0,0.0,0.0,0.0,0.0,0.0,0.0,0.0,0.0,0.0,0.0,0.0,0.0,0.0,0.0,0.0,0.0,0.0,0.0,0.0,0.0,0.0,0.0,0.0,0.0,0.0,0.0,0.0,0.0,0.0,0.0,-1.2044,-1.4344,-1.5758,-1.6401,-1.6301,-1.6401,-1.6513,-1.6519,-1.5235,-1.4231,0.0,0.0,0.0,0.0,0.0,0.0,0.0,0.0,0.0,0.0,0.0,0.0,0.0,0.0,0.0,0.0,0.0,0.0,0.0,0.0,0.0,0.0,0.0,0.0,0.0,0.0,0.0,0.0,-0.934,-0.9458,-0.9334,0.0,0.0,0.0,0.0,0.0,0.0,0.0,0.0,0.0,0.0,-1.8237,-1.8569,-1.9015,-1.915,-1.8683,-1.8216,-1.774,-1.7285,-1.6789,-1.6136,-1.5101,0.0,0.0,0.0,0.0,0.0,0.0,0.0,0.0,0.0,0.0,0.0,0.0,0.0,0.0,0.0,0.0,0.0,0.0,0.0,0.0,0.0,0.0,0.0,0.0,0.0,0.0,0.0,-0.707,0.0,0.0,-0.6469,0.0,0.0,0.0,0.0,0.0,0.0,0.0,0.0,0.0,0.0,0.0,0.0,0.0,0.0,0.0,0.0,0.0,0.0,0.0,0.0,0.0,0.0,-1.2286,-1.4956,-1.595,-1.6817,-1.7575,-1.6829,-1.661,-1.6904,-1.5701,-1.4552,-1.3597,0.0,0.0,0.0,0.0,0.0,0.0,0.0,0.0,0.0,0.0,0.0,0.0,0.0,0.0,0.0,0.0,0.0,0.0,0.0,0.0,0.0,0.0,0.0,0.0,0.0,0.0,-0.939,-0.952,-0.9365,0.0,0.0,0.0,0.0,0.0,0.0,0.0,0.0,0.0,0.0,-1.7947,-1.9088,-1.9108,-1.9492,-1.9647,-1.9191,-1.8714,-1.8226,-1.7781,-1.804,-1.7874,0.0,0.0,0.0,0.0,0.0,0.0,0.0,0.0,0.0,0.0,0.0,0.0,0.0,0.0,0.0,0.0,0.0,0.0,0.0,0.0,0.0,0.0,0.0,0.0,0.0,0.0,0.0,-0.9591,-0.9177,0.0,0.0,0.0,0.0,0.0,0.0,0.0,0.0,0.0,0.0,0.0,-1.3725,-1.3813,0.0,0.0,0.0,0.0,0.0,0.0,0.0,0.0,0.0,0.0,0.0,0.0,-1.3441,-1.5753,-1.6497,-1.7089,-1.7668,-1.7409,-1.7172,-1.7017,-1.6312,-1.5049,-1.3194,0.0,0.0,0.0,0.0,0.0,0.0,0.0,0.0,0.0,0.0,0.0,0.0,0.0,0.0,0.0,0.0,0.0,0.0,0.0,0.0,0.0,0.0,0.0,0.0,0.0,-0.9633,0.0,0.0,0.0,0.0,0.0,0.0,0.0,0.0,0.0,0.0,0.0,-1.649,-1.7605,-1.9013,-1.9965,-1.9975,-2.0358,-2.0607,0.0,0.0,0.0,0.0,0.0,0.0,0.0,0.0,0.0,0.0,0.0,0.0,0.0,0.0,-1.9603,-1.6578,-1.5557,-1.5196,-1.5351,0.0,0.0,0.0,0.0,0.0,0.0,0.0,0.0,0.0,0.0,0.0,0.0,0.0,0.0,-1.1602,0.0,-1.0546,0.0,0.0,0.0,0.0,0.0,0.0,0.0,0.0,-1.4189,-1.5096,-1.5841,-1.592,-1.5881,0.0,-1.4986,-1.3486,0.0,0.0,0.0,0.0,0.0,0.0,0.0,0.0,-1.4419,-1.6476,-1.7174,-1.7729,-1.8164,-1.8008,-1.7812,-1.7471,-1.6777,-1.5625,-1.3931,-1.33,-1.2555,0.0,0.0,0.0,0.0,0.0,0.0,0.0,0.0,0.0,0.0,0.0,0.0,0.0,0.0,0.0,0.0,0.0,0.0,0.0,0.0,0.0,0.0,0.0,-1.0576,0.0,0.0,0.0,0.0,0.0,0.0,0.0,0.0,0.0,-1.5281,-1.682,-1.8382,-1.9437,-2.0338,-2.0907,-2.0907,0.0,0.0,0.0,0.0,0.0,0.0,0.0,-1.9375,-1.9344,-1.9251,-1.921,-1.9347,-2.071,-2.1683,-2.1197,0.0,0.0,-1.9292,-1.835,-1.8081,-1.8237,-1.8123,-1.805,-1.836,-1.8812,-1.9119,0.0,0.0,0.0,0.0,0.0,0.0,0.0,0.0,-1.3418,-1.3486,0.0,-1.2847,0.0,0.0,0.0,0.0,0.0,-1.3825,0.0,0.0,-1.6973,-1.7803,-1.7471,-1.7832,-1.7654,-1.7017,-1.7375,-1.6545,-1.452,-1.2154,0.0,0.0,0.0,0.0,0.0,0.0,-1.5245,-1.7024,-1.7937,-1.8621,-1.9056,-1.8662,-1.8424,-1.8362,-1.7088,-1.6177,-1.5718,-1.4811,-1.3896,-1.2967,-1.1664,0.0,0.0,0.0,0.0,0.0,0.0,0.0,0.0,0.0,0.0,0.0,0.0,0.0,0.0,0.0,0.0,0.0,0.0,0.0,0.0,-1.0891,0.0,0.0,0.0,0.0,0.0,0.0,0.0,0.0,0.0,0.0,-1.7348,-1.8764,-2.0363,-2.1621,0.0,0.0,0.0,0.0,-2.1694,-2.1269,-2.1559,-2.1694,-2.1259,-2.188,-2.2118,-2.13,0.0,0.0,-2.1445,-2.2335,-2.2791,-2.1497,-2.2408,-2.3225,-2.3153,-2.1952,-2.1248,-2.1611,-2.0746,-2.0259,-2.0928,-2.1062,-2.1104,-1.7009,0.0,0.0,0.0,0.0,-1.5762,-1.6248,-1.7252,-1.6455,-1.6055,-1.5888,-1.4913,0.0,0.0,0.0,0.0,0.0,0.0,-1.6222,-1.71,-1.7701,-1.8262,-1.8785,-1.8867,-1.8825,-1.8615,-1.8438,-1.786,-1.698,-1.6079,-1.42,-1.149,0.0,0.0,0.0,0.0,-1.6189,-1.7913,-1.826,-1.8642,-1.9088,-1.8973,-1.8745,-1.8392,-1.7388,-1.6643,-1.6187,-1.5608,-1.4863,-1.3941,-1.2906,0.0,0.0,0.0,0.0,0.0,0.0,0.0,0.0,0.0,0.0,0.0,0.0,0.0,0.0,0.0,0.0,0.0,0.0,0.0,-1.1521,-1.2009,-1.2369,0.0,0.0,0.0,0.0,0.0,0.0,0.0,0.0,0.0,-2.0594,-2.1101,-2.1658,0.0,0.0,-2.2677,-2.2346,-2.2584,-2.2749,-2.2604,-2.2708,0.0,-2.2615,-2.2252,-2.2139,-2.2522,-2.3205,-2.365,-2.3536,-2.3846,-2.398,-2.3598,-2.3836,-2.4157,-2.4053,-2.3318,-2.2687,-2.2729,-2.2459,-2.2283,-2.2532,-2.2584,-2.2594,-2.0088,-1.8685,-1.8003,-1.7998,-1.835,-1.8071,-1.8525,-1.9336,-1.8506,-1.8184,-1.8184,-1.7126,-1.6229,-1.5488,-1.5195,0.0,0.0,0.0,-1.7686,-1.8769,-1.8769,-1.9131,-1.9766,-1.9795,-1.9697,-1.9521,-1.9102,-1.8672,-1.8217,-1.8076,-1.673,-1.4326,0.0,0.0,-1.5243,-1.5935,-1.6915,-1.8145,-1.8455,-1.8697,-1.8965,-1.9075,-1.888,-1.8414,-1.7657,-1.7068,-1.6663,-1.6208,-1.5618,-1.4883,-1.4099,-1.3055,0.0,0.0,0.0,0.0,0.0,0.0,0.0,0.0,0.0,0.0,0.0,-0.7996,-0.6927,0.0,0.0,0.0,-1.0551,-1.1997,-1.3073,-1.3837,0.0,0.0,0.0,0.0,0.0,0.0,0.0,-1.9485,-2.0639,-2.16,-2.2312,-2.2533,-2.2767,-2.2972,-2.3114,-2.3112,-2.2929,0.0,-2.3463,-2.3453,-2.3608,-2.3722,-2.3712,-2.3256,-2.308,-2.3629,-2.3939,-2.4209,-2.4435,-2.4507,-2.4507,-2.4507,-2.4507,-2.4507,-2.4507,-2.4084,-2.3722,-2.3722,-2.3732,-2.3722,-2.3722,-2.3732,-2.3722,-2.2334,-2.1855,-2.0254,-1.9775,-2.0068,-2.0068,-2.0293,-2.0644,-1.9871,-1.9922,-2.0518,-1.9365,-1.8792,-1.8705,-1.8018,0.0,-1.8281,-1.8666,-1.929,-2.0059,-2.0039,-2.0234,-2.0644,-2.0615,-2.0352,-1.9951,-1.957,-1.918,-1.8773,-1.8763,-1.8423,-1.7787,-1.7093,-1.6727,-1.6688,-1.714,-1.7572,-1.8067,-1.8586,-1.8849,-1.8808,-1.8998,-1.888,-1.8424,-1.7957,-1.7471,-1.7007,-1.6622,-1.6205,-1.5725,-1.5133,-1.422,-1.2943,0.0,0.0,0.0,0.0,0.0,0.0,0.0,0.0,0.0,0.0,0.0,0.0,0.0,0.0,0.0,-1.2602,0.0,-1.468,-1.6079,0.0,0.0,0.0,-1.7932,-1.8019,-1.9533,-2.0653,-2.0956,0.0,0.0,-2.2918,-2.3265,-2.3547,-2.3711,-2.3482,-2.332,-2.3523,-2.3741,-2.3929,-2.3929,-2.4271,-2.4487,-2.4404,-2.4373,-2.4352,-2.4404,-2.4507,-2.4487,-2.4497,-2.4507,-2.4507,-2.4507,-2.4507,-2.4507,-2.4507,-2.4466,-2.4497,-2.4456,-2.4466,-2.4476,-2.4435,-2.4425,-2.4414,-2.2886,-2.2803,-2.235,-2.1904,-2.1416,-2.1416,-2.1475,-2.1593,-2.1357,-2.1191,-2.1015,-2.0713,-2.043,-2.0107,-2.0254,-2.0342,-2.045,-2.0918,-2.1221,-2.1396,-2.1034,-2.0937,-2.1064,-2.0723,-2.0546,-2.0449,-2.0341,-2.0243,-2.0145,-2.0107,-1.9871,-1.9363,-1.9174,-1.8725,-1.8071,-1.8442,-1.8952,-1.956,-1.9416,-1.9223,-1.9052,-1.9075,-1.888,-1.8424,-1.7957,-1.742,-1.6867,-1.6554,-1.6265,-1.5997,-1.5233,-1.4496,-1.3797,-1.2152,0.0,0.0,0.0,0.0,0.0,0.0,0.0,0.0,0.0,-1.1677,-0.9522,0.0,-1.2987,0.0,-1.4466,-1.591,-1.6846,-1.7229,0.0,0.0,-1.9252,-1.972,-2.0761,-2.1382,-2.1888,-2.2344,-2.2778,-2.3118,-2.3355,-2.3434,-2.346,-2.3309,-2.3487,-2.374,-2.398,-2.4086,-2.4171,-2.4299,-2.4425,-2.4507,-2.4507,-2.4507,-2.4507,-2.4507,-2.4507,-2.4507,-2.4507,-2.4507,-2.4507,-2.4507,-2.4507,-2.4507,-2.4507,-2.4507,-2.4507,-2.4507,-2.4507,-2.4507,-2.4507,-2.4507,-2.4507,-2.3101,-2.3101,-2.3101,-2.2818,-2.2451,-2.2451,-2.2441,-2.2432,-2.2246,-2.2031,-2.1746,-2.1611,-2.1377,-2.1182,-2.1416,-2.1483,-2.1543,-2.1777,-2.1936,-2.1875,-2.1641,-2.1483,-2.1504,-2.1074,-2.0859,-2.0859,-2.0703,-2.0615,-2.0615,-2.0615,-2.0478,-2.0243,-2.0205,-1.9966,-1.9459,-1.929,-1.9366,-1.9749,-1.96,-1.9434,-1.9134,-1.9148,-1.8865,-1.8274,-1.7737,-1.7267,-1.6808,-1.6398,-1.6071,-1.5808,-1.5212,-1.471,-1.4332,-1.3063,-1.2141,0.0,0.0,0.0,0.0,0.0,0.0,0.0,0.0,0.0,0.0,0.0,-1.4584,-1.5033,-1.6723,-1.808,-1.8715,-1.937,-2.0094,-2.083,-2.1115,-2.151,-2.209,-2.2399,-2.2647,-2.2945,-2.3041,-2.3144,-2.3319,-2.3319,-2.3276,-2.3091,-2.3309,-2.358,-2.3851,-2.4077,-2.4196,-2.4196,-2.4282,-2.4325,-2.4196,-2.4282,-2.4378,-2.4368,-2.4411,-2.4507,-2.4507,-2.4507,-2.4507,-2.4507,-2.4507,-2.4507,-2.4507,-2.4507,-2.4507,-2.4507,-2.4507,-2.4507,-2.4507,-2.4507,-2.4507,-2.3149,-2.3101,-2.3101,-2.3101,-2.3101,-2.3101,-2.3101,-2.3071,-2.2754,-2.2545,-2.2535,-2.2207,-2.2051,-2.2041,-2.2051,-2.2051,-2.2041,-2.2041,-2.2051,-2.2041,-2.1992,-2.1963,-2.1985,-2.1473,-2.1278,-2.1259,-2.0918,-2.0732,-2.0693,-2.0693,-2.0654,-2.0615,-2.0615,-2.0615,-2.0576,-1.9862,-1.946,-1.9412,-1.9604,-1.9577,-1.9314,-1.9254,-1.8859,-1.8143,-1.7516,-1.7021,-1.6666,-1.6224,-1.5842,-1.5523,-1.5289,-1.5054,-1.4827,-1.4093,-1.3531,0.0,-1.2788,0.0,0.0,0.0,0.0,0.0,0.0,0.0,0.0,-1.5918,-1.6408,-1.729,-1.9066,-2.0233,-2.0359,-2.1662,-2.2383,-2.2109,-2.2652,-2.2955,-2.2656,-2.2867,-2.3101,-2.3101,-2.3101,-2.3101,-2.3091,-2.3101,-2.3101,-2.3101,-2.3135,-2.3232,-2.345,-2.3807,-2.4024,-2.3797,-2.398,-2.4067,-2.3927,-2.4024,-2.4206,-2.4239,-2.4378,-2.4507,-2.4507,-2.4507,-2.4507,-2.4507,-2.4507,-2.4507,-2.4507,-2.4507,-2.4507,-2.4507,-2.4507,-2.4507,-2.4507,-2.4507,-2.4507,-2.3457,-2.3101,-2.3101,-2.3101,-2.3101,-2.3101,-2.3101,-2.3091,-2.3013,-2.2984,-2.2974,-2.2896,-2.2857,-2.2857,-2.2857,-2.2867,-2.2857,-2.2857,-2.29,-2.2857,-2.2559,-2.2393,-2.2363,-2.1963,-2.1768,-2.1758,-2.168,-2.1455,-2.1064,-2.1073,-2.0928,-2.0615,-2.0615,-2.0615,-2.0605,0.0,0.0,0.0,-2.0235,-2.0199,-1.9925,-1.9465,-1.8869,-1.8175,-1.7558,0.0,-1.5968,-1.6207,-1.6307,-1.6128,-1.6098,0.0,0.0,0.0,0.0,0.0,0.0,0.0,0.0,0.0,0.0,0.0,-1.7803,-1.7314,-1.7122,-1.8594,-1.9695,-1.9919,-2.0899,-2.165,-2.1992,-2.2305,-2.2627,-2.2838,-2.3003,-2.3062,-2.2994,-2.3062,-2.3101,-2.3101,-2.3101,-2.3101,-2.313,-2.3101,-2.3101,-2.312,-2.3101,-2.3144,-2.3188,-2.346,-2.3677,-2.3754,-2.3841,-2.3841,-2.3797,-2.4024,-2.4163,-2.4249,-2.4368,-2.4497,-2.4454,-2.4497,-2.4507,-2.4507,-2.4507,-2.4507,-2.4507,-2.4507,-2.4507,-2.4507,-2.4507,-2.4507,-2.4507,-2.4507,-2.4507,-2.3848,-2.3457,-2.3457,-2.334,0.0,-2.3101,-2.3101,-2.3101,-2.3101,-2.3101,-2.3101,-2.3101,-2.3101,-2.3101,-2.3101,-2.3101,-2.3101,-2.3101,-2.3101,-2.3091,-2.2877,-2.2822,-2.2769,-2.2393,-2.2197,-2.2187,-2.2024,-2.1777,-2.1572,-2.1553,-2.1328,-2.0908,-2.0898,-2.0781,-2.0615,-2.0615,-2.0536,-2.0407,-2.0473,-2.0379,-2.0015,-1.9713,-1.9113,-1.8214,-1.78,0.0,0.0,0.0,0.0,0.0,0.0,0.0,0.0,0.0,0.0,-1.7049,-1.713,-1.7416,-1.7997,-1.8654,-1.9363,-2.0176,-2.043,-2.0088,-1.9043,-2.0576,-2.1523,-2.1533,-2.2129,-2.2588,-2.275,-2.2789,-2.2867,-2.3062,-2.3101,-2.3169,-2.3418,-2.3457,-2.35,-2.3695,-2.3734,-2.3725,-2.3769,-2.353,-2.3467,-2.3437,-2.3218,-2.311,-2.3135,-2.3319,-2.3547,-2.3634,-2.3537,-2.345,-2.3493,-2.3667,-2.3851,-2.3861,-2.4024,-2.4143,-2.4153,-2.4272,-2.4325,-2.4378,-2.4421,-2.4507,-2.4507,-2.4507,-2.4507,-2.4507,-2.4507,-2.4507,-2.4507,-2.4507,-2.4507,-2.4287,-2.3906,-2.3896,-2.3662,-2.3208,-2.3218,-2.3169,-2.3101,0.0,0.0,0.0,-2.3101,-2.3101,-2.3101,-2.3101,-2.3101,-2.3101,-2.3101,-2.3101,-2.3101,-2.3101,-2.3101,-2.3081,-2.274,-2.2617,-2.2607,-2.2266,-2.207,-2.2002,-2.1992,-2.1777,-2.1346,-2.1317,-2.1123,-2.0742,-2.0644,-2.0615,-2.0615,-2.0615,-2.0439,-2.0087,-1.9961,-1.9438,-1.8473,-1.8213,-1.7821,-1.7206,-1.7086,-1.6936,-1.675,-1.7007,-1.7239,-1.7438,-1.7693,-1.8369,-1.9521,-1.9629,-2.0008,-2.0781,-2.1211,-2.1453,-2.1522,-2.2175,-2.2168,-2.1124,-2.2002,-2.2627,-2.2617,-2.2896,-2.3091,-2.3101,-2.3101,-2.312,-2.3198,-2.3208,-2.3437,-2.3828,-2.3896,-2.4023,-2.4346,-2.4375,-2.4414,-2.4365,-2.4111,-2.3896,-2.3857,-2.3588,-2.3325,-2.334,-2.3393,-2.3406,-2.3406,-2.3276,-2.3144,-2.3144,-2.3363,-2.3493,-2.3537,-2.3711,-2.3797,-2.3841,-2.398,-2.412,-2.4206,-2.4335,-2.4464,-2.4507,-2.4507,-2.4507,-2.4507,-2.4507,-2.4507,-2.4507,-2.4507,-2.4507,-2.4727,-2.4326,-2.4326,-2.4092,-2.3701,-2.3691,-2.3486,-2.3101,-2.3101,-2.3101,-2.3101,-2.3101,-2.3101,-2.3101,-2.3101,-2.3101,-2.3101,-2.3101,-2.3101,-2.3101,-2.3101,-2.3101,-2.3101,-2.3033,-2.3013,-2.3003,-2.2945,-2.273,-2.2461,-2.2422,-2.2207,-2.1836,-2.1797,-2.1572,-2.1112,-2.0752,-2.0615,-2.0615,-2.0615,-2.0653,-2.073,-2.0193,-1.976,-1.9409,-1.8811,-1.833,-1.7895,-1.813,-1.834,-1.8291,-1.8691,-1.9092,-1.9434,-1.9512,-1.998,-2.083,-2.0917,-2.1182,-2.167,-2.21,-2.249,-2.2789,-2.2945,-2.2916,-2.2769,-2.2896,-2.3013,-2.3013,-2.3062,-2.3101,-2.3101,-2.311,-2.3266,-2.3633,-2.3701,-2.3867,-2.4268,-2.4326,-2.4365,-2.4473,-2.4424,-2.4443,-2.4492,-2.4394,-2.4336,-2.4316,-2.418,-2.4189,-2.4053,-2.3603,-2.3193,-2.3144,-2.3144,-2.3101,-2.3144,-2.3319,-2.345,-2.3493,-2.3667,-2.3754,-2.3754,-2.3797,-2.3937,-2.4163,-2.4206,-2.4292,-2.4442,-2.4507,-2.4559,-2.4537,-2.4611,-2.458,-2.4569,-2.4538,-2.4507,-2.5176,-2.4785,-2.4775,-2.4521,-2.4111,-2.3887,-2.3682,-2.3467,-2.3198,-2.3101,-2.3101,-2.3101,-2.3101,-2.3101,-2.3101,-2.3101,-2.3101,-2.3101,-2.3101,-2.3101,-2.3101,-2.3101,-2.3101,-2.3101,-2.3101,-2.3101,-2.3101,-2.2994,-2.2828,-2.2808,-2.2594,-2.2236,-2.2002,-2.1787,-2.1582,-2.1387,-2.1319,-2.1269,-2.085,-2.0644,-2.0731,-2.0448,-2.0087,-1.9777,-1.946,-1.9131,-1.8721,-1.8887,-1.9056,-1.9316,-1.9746,-2.0185,-2.0596,-2.085,-2.1269,-2.1875,-2.1882,-2.2109,-2.2539,-2.2691,-2.2896,-2.3081,-2.3101,-2.3101,-2.3101,-2.3101,-2.3101,-2.3101,-2.3101,-2.3198,-2.3457,-2.3496,-2.3662,-2.4082,-2.4131,-2.4307,-2.4687,-2.4775,-2.4853,-2.5031,-2.5079,-2.5079,-2.5089,-2.4922,-2.4766,-2.4746,-2.46,-2.4434,-2.4434,-2.4066,-2.3695,-2.3545,-2.3496,-2.3379,-2.3159,-2.3178,-2.3266,-2.3276,-2.3353,-2.3396,-2.345,-2.3547,-2.3687,-2.3807,-2.3894,-2.4125,-2.4438,-2.4607,-2.4743,-2.5023,-2.5176,-2.5158,-2.4952,-2.4693,-2.4507,-2.5489,-2.5225,-2.5215,-2.4971,-2.4531,-2.4111,-2.3877,-2.376,-2.3428,-2.3188,-2.3101,-2.3101,-2.3101,-2.3101,-2.3101,-2.3101,-2.3101,-2.3101,-2.3101,-2.3101,-2.3101,-2.3101,-2.3101,-2.3101,-2.3101,-2.3101,-2.3101,-2.3101,-2.3101,-2.3101,-2.2935,-2.2637,-2.2236,-2.2031,-2.2021,-2.1934,-2.1936,-2.1887,-2.1241,-2.081,-2.0762,-2.0654,-2.0439,-2.0234,-2.0177,-2.0098,-1.9883,-1.9873,-2.0019,-2.0342,-2.0684,-2.1064,-2.1504,-2.1836,-2.2217,-2.2555,-2.2646,-2.276,-2.3052,-2.3101,-2.3101,-2.3101,-2.3101,-2.3101,-2.3101,-2.3101,-2.3101,-2.3101,-2.3198,-2.3447,-2.3721,-2.3887,-2.4092,-2.4502,-2.456,-2.4756,-2.5137,-2.5262,-2.5332,-2.5625,-2.5684,-2.5664,-2.5625,-2.543,-2.5225,-2.5166,-2.4922,-2.4727,-2.4707,-2.467,-2.4541,-2.4189,-2.4004,-2.3838,-2.3442,-2.3413,-2.3467,-2.3374,-2.3447,-2.3506,-2.354,-2.36,-2.3722,-2.3904,-2.3963,-2.4235,-2.4595,-2.48,-2.5011,-2.5289,-2.5411,-2.554,-2.5307,-2.5063,-2.4848,-2.5654,-2.5625,-2.5606,-2.542,-2.4971,-2.4541,-2.416,-2.3838,-2.375,-2.3496,-2.314,-2.3101,-2.3101,-2.3101,-2.3101,-2.3101,-2.3101,-2.3101,-2.3101,-2.3101,-2.3101,-2.3101,-2.3101,-2.3101,-2.3101,-2.3101,-2.3101,-2.3101,-2.3101,-2.3101,-2.3081,-2.2994,-2.2623,-2.2451,-2.2422,-2.21,-2.1904,-2.1936,-2.1807,-2.1572,-2.1132,-2.0771,-2.0742,-2.1073,-2.1064,-2.1249,-2.1523,-2.165,-2.166,-2.1699,-2.1728,-2.1953,-2.2334,-2.2432,-2.2637,-2.2994,-2.3033,-2.3071,-2.3091,-2.3101,-2.3101,-2.3101,-2.3101,-2.3101,-2.3101,-2.3101,-2.3101,-2.3169,-2.3506,-2.3721,-2.3818,-2.4141,-2.4531,-2.4951,-2.501,-2.5185,-2.5547,-2.5625,-2.5645,-2.5664,-2.5684,-2.5684,-2.5674,-2.5606,-2.5596,-2.5547,-2.5518,-2.5401,-2.5411,-2.5421,-2.5352,-2.4961,-2.4629,-2.4365,-2.4192,-2.4287,-2.418,-2.4219,-2.4268,-2.4199,-2.415,-2.418,-2.4369,-2.4335,-2.4574,-2.4685,-2.4866,-2.5052,-2.5118,-2.5289,-2.5345,-2.526,-2.5426,-2.555,-2.5623,-2.5684,-2.5684,-2.5684,-2.5586,-2.541,-2.499,-2.4707,-2.4531,-2.4268,-2.3926,-2.3545,-2.3525,-2.3389,-2.3101,-2.3101,-2.3101,-2.3101,-2.3101,-2.3101,-2.3101,-2.3101,-2.3101,-2.3101,-2.3101,-2.3101,-2.3101,-2.3101,-2.3101,-2.3101,-2.3101,-2.3101,-2.3081,-2.2906,-2.2838,-2.2871,-2.2715,-2.2627,-2.2574,-2.2383,-2.2168,-2.1931,-2.1562,-2.1426,-2.1592,-2.1621,-2.1689,-2.1865,-2.1936,-2.2002,-2.2227,-2.2256,-2.2451,-2.2818,-2.2838,-2.2906,-2.3081,-2.3101,-2.3101,-2.3101,-2.3101,-2.3101,-2.3101,-2.3101,-2.3101,-2.311,-2.3369,-2.3525,-2.3555,-2.3682,-2.3975,-2.4453,-2.4754,-2.498,-2.5371,-2.5469,-2.5537,-2.5654,-2.5684,-2.5684,-2.5684,-2.5684,-2.5684,-2.5684,-2.5684,-2.5684,-2.5684,-2.5684,-2.5684,-2.5684,-2.5684,-2.5615,-2.5498,-2.5293,-2.4961,-2.459,-2.4424,-2.4434,-2.4434,-2.4424,-2.4424,-2.4463,-2.4424,-2.446,-2.4582,-2.4631,-2.4795,-2.4999,-2.5245,-2.5368,-2.5488,-2.5588,-2.5621,-2.5987,-2.5854,-2.587,-2.5869,-2.5849,-2.5742,-2.5684,-2.5654,-2.5391,-2.5176,-2.5086,-2.4736,-2.4355,-2.3975,-2.3848,-2.3613,-2.3286,-2.3149,-2.3101,-2.3101,-2.3101,-2.3101,-2.3101,-2.3101,-2.3101,-2.3101,-2.3101,-2.3101,-2.3101,-2.3101,-2.3101,-2.3101,-2.3101,-2.3101,-2.3101,-2.3101,-2.3101,-2.3101,-2.3101,-2.3101,-2.3062,-2.2832,-2.2685,-2.2594,-2.2383,-2.2178,-2.207,-2.206,-2.2109,-2.2217,-2.2227,-2.2363,-2.2666,-2.2685,-2.2779,-2.3062,-2.3101,-2.3101,-2.3101,-2.3101,-2.3101,-2.3101,-2.3101,-2.3101,-2.3101,-2.3188,-2.3276,-2.3344,-2.3711,-2.4004,-2.4141,-2.4186,-2.4453,-2.4922,-2.5223,-2.54,-2.5645,-2.5684,-2.5684,-2.5684,-2.5684,-2.5684,-2.5684,-2.5684,-2.5684,-2.5684,-2.5684,-2.5684,-2.5684,-2.5684,-2.5684,-2.5684,-2.5684,-2.5674,-2.5684,-2.5674,-2.543,-2.4855,-2.4844,-2.4775,-2.4775,-2.4844,-2.4863,-2.4785,-2.4795,-2.4795,-2.5077,-2.4853,-2.4863,-2.5251,-2.5512,-2.5559,-2.5854,-2.5948,-2.5932,-2.622,-2.5977,-2.6127,-2.6357,-2.6299,-2.5859,-2.5684,-2.5674,-2.5645,-2.5459,-2.5107,-2.5096,-2.4795,-2.4375,-2.4004,-2.3799,-2.373,-2.3359,-2.3101,-2.3101,-2.3101,-2.3101,-2.3101,-2.3101,-2.3101,-2.3101,-2.3101,-2.3101,-2.3101,-2.3101,-2.3101,-2.3101,-2.3101,-2.3101,-2.3101,-2.3101,-2.3101,-2.3101,-2.3101,-2.3101,-2.3091,-2.3042,-2.3042,-2.3042,-2.3023,-2.2799,-2.2519,-2.248,-2.2656,-2.2945,-2.3023,-2.3042,-2.3062,-2.3042,-2.3071,-2.3101,-2.3101,-2.3101,-2.3101,-2.3101,-2.3101,-2.3101,-2.3101,-2.311,-2.3169,-2.3516,-2.375,-2.3779,-2.4141,-2.4521,-2.4988,-2.4979,-2.5029,-2.5137,-2.543,-2.5606,-2.5664,-2.5684,-2.5684,-2.5684,-2.5684,-2.5684,-2.5684,-2.5684,-2.5684,-2.5684,-2.5684,-2.5684,-2.5684,-2.5684,-2.5684,-2.5684,-2.5684,-2.5684,-2.5684,-2.5684,-2.5654,-2.5615,-2.5421,-2.5479,-2.545,-2.5343,-2.5518,-2.5606,-2.5635,-2.5586,-2.5547,-2.545,-2.545,-2.5596,-2.5684,-2.5693,-2.58,-2.5936,-2.6071,-2.6091,-2.6342,-2.6446,-2.6631,-2.6357,-2.5908,-2.5684,-2.5684,-2.5684,-2.5596,-2.5498,-2.5498,-2.5244,-2.4863,-2.4668,-2.4453,-2.416,-2.374,-2.3398,-2.311,-2.3101,-2.3101,-2.3101,-2.3101,-2.3101,-2.3101,-2.3101,-2.3101,-2.3101,-2.3101,-2.3101,-2.3101,-2.3101,-2.3101,-2.3101,-2.3101,-2.3101,-2.3101,-2.3101,-2.3101,-2.3101,-2.3101,-2.3101,-2.3101,-2.3101,-2.3013,-2.2886,-2.291,-2.2935,-2.3091,-2.3101,-2.3101,-2.3101,-2.3101,-2.3101,-2.3101,-2.3101,-2.3101,-2.3101,-2.3101,-2.3101,-2.3101,-2.3101,-2.3271,-2.3535,-2.3682,-2.3945,-2.4189,-2.457,-2.4949,-2.5125,-2.5352,-2.5478,-2.5518,-2.5654,-2.5684,-2.5684,-2.5684,-2.5684,-2.5684,-2.5684,-2.5684,-2.5684,-2.5684,-2.5684,-2.5684,-2.5684,-2.5684,-2.5684,-2.5684,-2.5684,-2.5684,-2.5684,-2.5684,-2.5684,-2.5684,-2.5684,-2.5684,-2.5674,-2.5674,-2.5674,-2.5654,-2.5625,-2.5674,-2.5684,-2.5625,-2.5615,-2.5674,-2.5684,-2.5664,-2.5664,-2.5684,-2.5732,-2.5868,-2.5868,-2.5878,-2.611,-2.6197,-2.6982,-2.6553,-2.6133,-2.5898,-2.5928,-2.5742,-2.5684,-2.5684,-2.5684,-2.5518,-2.5293,-2.5184,-2.4893,-2.459,-2.418,-2.3848,-2.3481,-2.3237,-2.3101,-2.3101,-2.3101,-2.3101,-2.3101,-2.3101,-2.3101,-2.3101,-2.3101,-2.3101,-2.3101,-2.3101,-2.3101,-2.3101,-2.3101,-2.3101,-2.3101,-2.3101,-2.3101,-2.3101,-2.3101,-2.3101,-2.3101,-2.3101,-2.3101,-2.3091,-2.3101,-2.3101,-2.3101,-2.3101,-2.3101,-2.3101,-2.3101,-2.3101,-2.3101,-2.3101,-2.3101,-2.3101,-2.3101,-2.3101,-2.312,-2.3227,-2.3486,-2.3779,-2.4062,-2.4336,-2.4629,-2.5029,-2.5254,-2.5361,-2.5527,-2.5684,-2.5684,-2.5684,-2.5684,-2.5684,-2.5684,-2.5684,-2.5684,-2.5684,-2.5684,-2.5684,-2.5684,-2.5684,-2.5684,-2.5684,-2.5684,-2.5684,-2.5684,-2.5684,-2.5684,-2.5684,-2.5684,-2.5684,-2.5684,-2.5684,-2.5684,-2.5684,-2.5684,-2.5684,-2.5684,-2.5684,-2.5684,-2.5684,-2.5684,-2.5684,-2.5684,-2.5684,-2.5684,-2.5684,-2.5684,-2.5684,-2.5732,-2.5781,-2.5781,-2.583,-2.5965,-2.7402,-2.6982,-2.6562,-2.6387,-2.6328,-2.5967,-2.5713,-2.5742,-2.5703,-2.5654,-2.5596,-2.5283,-2.5165,-2.5037,-2.4619,-2.4404,-2.4238,-2.3569,-2.3208,-2.3169,-2.311,-2.3101,-2.3101,-2.3101,-2.3101,-2.3101,-2.3101,-2.3101,-2.3101,-2.3101,-2.3101,-2.3101,-2.3101,-2.3101,-2.3101,-2.3101,-2.3101,-2.3101,-2.3101,-2.3101,-2.3101,-2.3101,-2.3101,-2.3101,-2.3101,-2.3101,-2.3101,-2.3101,-2.3101,-2.3101,-2.3101,-2.3101,-2.3101,-2.3101,-2.3101,-2.3101,-2.3101,-2.3101,-2.3159,-2.3535,-2.374,-2.4014,-2.4617,-2.4971,-2.5107,-2.5439,-2.5615,-2.5615,-2.5654,-2.5684,-2.5684,-2.5684,-2.5684,-2.5684,-2.5684,-2.5684,-2.5684,-2.5684,-2.5684,-2.5684,-2.5684,-2.5684,-2.5684,-2.5684,-2.5684,-2.5684,-2.5684,-2.5684,-2.5684,-2.5684,-2.5684,-2.5684,-2.5684,-2.5684,-2.5684,-2.5684,-2.5684,-2.5684,-2.5684,-2.5684,-2.5684,-2.5684,-2.5684,-2.5684,-2.5684,-2.5684,-2.5684,-2.5684,-2.5684,-2.5684,-2.5684,-2.5684,-2.5732,-2.5781,-2.5732,-2.7588,-2.7412,-2.7002,-2.6816,-2.6768,-2.6367,-2.6182,-2.6143,-2.583,-2.5684,-2.5654,-2.5596,-2.5527,-2.542,-2.5068,-2.4863,-2.4814,-2.4277,-2.3867,-2.3584,-2.3247,-2.3101,-2.3101,-2.3101,-2.3101,-2.3101,-2.3101,-2.3101,-2.3101,-2.3101,-2.3101,-2.3101,-2.3101,-2.3101,-2.3101,-2.3101,-2.3101,-2.3101,-2.3101,-2.3101,-2.3101,-2.3101,-2.3101,-2.3101,-2.3101,-2.3101,-2.3101,-2.3101,-2.3101,-2.3101,-2.3101,-2.3101,-2.3101,-2.3101,-2.3101,-2.3101,-2.3101,-2.3257,-2.3564,-2.374,-2.4082,-2.4551,-2.4941,-2.5205,-2.5478,-2.5644,-2.5684,-2.5684,-2.5684,-2.5684,-2.5684,-2.5684,-2.5684,-2.5684,-2.5684,-2.5684,-2.5684,-2.5684,-2.5684,-2.5684,-2.5684,-2.5684,-2.5684,-2.5684,-2.5684,-2.5684,-2.5684,-2.5684,-2.5684,-2.5684,-2.5684,-2.5684,-2.5684,-2.5684,-2.5684,-2.5684,-2.5684,-2.5684,-2.5684,-2.5684,-2.5684,-2.5684,-2.5684,-2.5684,-2.5684,-2.5684,-2.5684,-2.5684,-2.5684,-2.5684,-2.5684,-2.5684,-2.5684,-2.5684,-2.5684,-2.79,-2.7851,-2.7432,-2.7256,-2.7207,-2.6807,-2.6533,-2.6367,-2.6103,-2.5889,-2.5713,-2.5684,-2.5684,-2.5635,-2.5439,-2.5322,-2.5264,-2.4863,-2.4521,-2.4189,-2.3623,-2.3276,-2.313,-2.3101,-2.3101,-2.3101,-2.3101,-2.3101,-2.3101,-2.3101,-2.3101,-2.3101,-2.3101,-2.3101,-2.3101,-2.3101,-2.3101,-2.3101,-2.3101,-2.3101,-2.3101,-2.3101,-2.3101,-2.3101,-2.3101,-2.3101,-2.3101,-2.3101,-2.3101,-2.3101,-2.3101,-2.3101,-2.3101,-2.3101,-2.3159,-2.335,-2.3408,-2.3574,-2.3975,-2.4209,-2.4453,-2.5028,-2.5225,-2.542,-2.5635,-2.5684,-2.5684,-2.5684,-2.5684,-2.5684,-2.5684,-2.5684,-2.5684,-2.5684,-2.5684,-2.5684,-2.5684,-2.5684,-2.5684,-2.5684,-2.5684,-2.5684,-2.5684,-2.5684,-2.5684,-2.5684,-2.5684,-2.5684,-2.5684,-2.5684,-2.5684,-2.5684,-2.5684,-2.5684,-2.5684,-2.5684,-2.5684,-2.5684,-2.5684,-2.5684,-2.5684,-2.5684,-2.5684,-2.5684,-2.5684,-2.5684,-2.5684,-2.5684,-2.5684,-2.5684,-2.5684,-2.5684,-2.5684,-2.5684,-2.5684,-2.8291,-2.8242,-2.7871,-2.7757,-2.7699,-2.7236,-2.6875,-2.6533,-2.6435,-2.6191,-2.582,-2.5781,-2.5723,-2.5693,-2.5625,-2.5606,-2.5596,-2.5312,-2.5049,-2.4785,-2.4258,-2.373,-2.3354,-2.3325,-2.3296,-2.3198,-2.3179,-2.314,-2.3101,-2.3101,-2.3101,-2.3101,-2.3101,-2.3101,-2.3101,-2.3101,-2.3101,-2.3101,-2.3101,-2.3101,-2.3101,-2.3101,-2.3101,-2.3101,-2.3149,-2.3188,-2.3198,-2.3266,-2.3208,-2.311,-2.314,-2.3198,-2.3149,-2.3149,-2.3477,-2.3799,-2.3828,-2.4053,-2.4424,-2.4736,-2.501,-2.5213,-2.5478,-2.5684,-2.5674,-2.5684,-2.5684,-2.5684,-2.5684,-2.5713,-2.5742,-2.5771,-2.5791,-2.5781,-2.5771,-2.5703,-2.5684,-2.5684,-2.5684,-2.5684,-2.5684,-2.5684,-2.5684,-2.5684,-2.5684,-2.5684,-2.5684,-2.5684,-2.5684,-2.5684,-2.5684,-2.5684,-2.5684,-2.5684,-2.5684,-2.5684,-2.5684,-2.5684,-2.5684,-2.5684,-2.5684,-2.5684,-2.5684,-2.5684,-2.5684,-2.5684,-2.5684,-2.5684,-2.5684,-2.5684,-2.5684,-2.5684,-2.5684,-2.5684,-2.5684,-2.8301,-2.8281,-2.8174,-2.8135,-2.8066,-2.7676,-2.7441,-2.7337,-2.6973,-2.6621,-2.6279,-2.6211,-2.6035,-2.5713,-2.5693,-2.5684,-2.5645,-2.5557,-2.5352,-2.5116,-2.4873,-2.4492,-2.415,-2.4017,-2.3896,-2.3652,-2.3613,-2.3403,-2.312,-2.3159,-2.314,-2.3101,-2.3169,-2.313,-2.3101,-2.314,-2.3101,-2.3101,-2.311,-2.313,-2.314,-2.314,-2.3101,-2.312,-2.3447,-2.3613,-2.3652,-2.3871,-2.3705,-2.3169,-2.3413,-2.3623,-2.3643,-2.3877,-2.4082,-2.4219,-2.4268,-2.4443,-2.4814,-2.501,-2.5215,-2.5527,-2.5596,-2.5684,-2.5684,-2.5684,-2.5684,-2.5684,-2.5693,-2.5889,-2.6133,-2.6221,-2.6338,-2.6493,-2.6113,-2.5752,-2.5713,-2.5684,-2.5684,-2.5684,-2.5684,-2.5684,-2.5684,-2.5684,-2.5684,-2.5684,-2.5684,-2.5684,-2.5684,-2.5684,-2.5684,-2.5684,-2.5684,-2.5684,-2.5684,-2.5684,-2.5684,-2.5684,-2.5684,-2.5684,-2.5684,-2.5684,-2.5684,-2.5684,-2.5684,-2.5684,-2.5684,-2.5684,-2.5684,-2.5684,-2.5684,-2.5684,-2.5684,-2.5684,-2.5684,-2.8301,-2.8301,-2.8301,-2.8301,-2.8271,-2.808,-2.7885,-2.7689,-2.7402,-2.7051,-2.6689,-2.6455,-2.625,-2.6006,-2.5771,-2.5635,-2.5538,-2.5538,-2.5392,-2.5256,-2.5294,-2.498,-2.4541,-2.4414,-2.4287,-2.4092,-2.4053,-2.3916,-2.3686,-2.3627,-2.3627,-2.3666,-2.3627,-2.3627,-2.3676,-2.3627,-2.3617,-2.3647,-2.3627,-2.3627,-2.3627,-2.3637,-2.3637,-2.3666,-2.3935,-2.4053,-2.4092,-2.4287,-2.4114,-2.3828,-2.3916,-2.4053,-2.4072,-2.4268,-2.4492,-2.4658,-2.4697,-2.4893,-2.5244,-2.5352,-2.5459,-2.5625,-2.5684,-2.5684,-2.5684,-2.5684,-2.5713,-2.5996,-2.6006,-2.623,-2.6543,-2.665,-2.6768,-2.6875,-2.6512,-2.6152,-2.6045,-2.585,-2.5703,-2.5684,-2.5684,-2.5684,-2.5684,-2.5684,-2.5684,-2.5684,-2.5684,-2.5684,-2.5684,-2.5684,-2.5684,-2.5684,-2.5684,-2.5684,-2.5684,-2.5684,-2.5684,-2.5684,-2.5684,-2.5684,-2.5684,-2.5684,-2.5684,-2.5684,-2.5684,-2.5684,-2.5684,-2.5684,-2.5684,-2.5684,-2.5684,-2.5684,-2.5684,-2.5684,-2.5684,-2.8291,-2.8301,-2.8301,-2.8301,-2.8301,-2.8281,-2.8066,-2.7845,-2.7744,-2.748,-2.709,-2.6649,-2.6472,-2.6376,-2.5857,-2.5576,-2.537,-2.5322,-2.5235,-2.5275,-2.5324,-2.5159,-2.4672,-2.468,-2.4629,-2.4512,-2.4482,-2.4414,-2.4297,-2.4326,-2.4375,-2.4287,-2.4316,-2.4375,-2.4268,-2.4326,-2.4404,-2.4316,-2.4268,-2.4258,-2.4258,-2.4258,-2.4248,-2.4268,-2.4414,-2.4551,-2.459,-2.4639,-2.4534,-2.456,-2.4512,-2.4482,-2.4492,-2.4502,-2.4756,-2.5059,-2.5146,-2.5312,-2.5625,-2.5625,-2.5703,-2.5684,-2.5684,-2.5732,-2.583,-2.5879,-2.6035,-2.6426,-2.6455,-2.666,-2.7002,-2.7119,-2.7217,-2.7266,-2.7148,-2.6894,-2.6553,-2.6133,-2.582,-2.581,-2.582,-2.5762,-2.5742,-2.5713,-2.5684,-2.5684,-2.5684,-2.5684,-2.5684,-2.5684,-2.5684,-2.5684,-2.5684,-2.5684,-2.5684,-2.5684,-2.5684,-2.5684,-2.5684,-2.5684,-2.5684,-2.5684,-2.5684,-2.5684,-2.5684,-2.5684,-2.5684,-2.5684,-2.5684,-2.5684,-2.5684,-2.5684,-2.5684,-2.5684,-2.5684,-2.8077,-2.8301,-2.8301,-2.8301,-2.8301,-2.8291,-2.8242,-2.8154,-2.8144,-2.7891,-2.7516,-2.7133,-2.685,-2.655,-2.5934,-2.5614,-2.5616,-2.5279,-2.4981,-2.499,-2.503,-2.5119,-2.5083,-2.5247,-2.5187,-2.5019,-2.4979,-2.4766,-2.4541,-2.4521,-2.4434,-2.4473,-2.4551,-2.4434,-2.4482,-2.4541,-2.4424,-2.4424,-2.4453,-2.4502,-2.4502,-2.4512,-2.4502,-2.4521,-2.4775,-2.5107,-2.5343,-2.5401,-2.5401,-2.5371,-2.5127,-2.4979,-2.4971,-2.5215,-2.541,-2.5488,-2.5557,-2.5577,-2.5674,-2.5703,-2.5693,-2.5732,-2.5791,-2.583,-2.6221,-2.625,-2.6455,-2.6777,-2.6885,-2.708,-2.7471,-2.7832,-2.79,-2.7861,-2.7685,-2.749,-2.7386,-2.6982,-2.6639,-2.6621,-2.6426,-2.625,-2.6221,-2.5859,-2.5771,-2.5713,-2.5684,-2.5684,-2.5684,-2.5684,-2.5684,-2.5684,-2.5684,-2.5684,-2.5684,-2.5684,-2.5684,-2.5684,-2.5684,-2.5684,-2.5684,-2.5684,-2.5684,-2.5684,-2.5684,-2.5684,-2.5684,-2.5684,-2.5684,-2.5684,-2.5684,-2.5684,-2.5684,-2.5684,-2.5684,-2.7755,-2.7916,-2.8067,-2.8121,-2.813,-2.8237,-2.8237,-2.8184,-2.8237,-2.8014,-2.7569,-2.7271,-2.7031,-2.6664,-2.6049,-2.5841,-2.5705,-2.5264,-2.4904,-2.4792,-2.4843,-2.499,-2.5088,-2.5284,-2.5295,-2.5343,-2.5381,-2.5225,-2.504,-2.4962,-2.504,-2.4992,-2.5019,-2.5098,-2.5039,-2.501,-2.5078,-2.5078,-2.5039,-2.5039,-2.4982,-2.5039,-2.4992,-2.5001,-2.5264,-2.5518,-2.5635,-2.5664,-2.5674,-2.5625,-2.5518,-2.5381,-2.5391,-2.5557,-2.5674,-2.5684,-2.5684,-2.5684,-2.5703,-2.5928,-2.6005,-2.6055,-2.6201,-2.6426,-2.6621,-2.6689,-2.6894,-2.7197,-2.7353,-2.749,-2.791,-2.8096,-2.8281,-2.8262,-2.8096,-2.8022,-2.7871,-2.7412,-2.7012,-2.6982,-2.6797,-2.6582,-2.6377,-2.6182,-2.5888,-2.584,-2.5742,-2.5742,-2.5693,-2.5693,-2.5684,-2.5684,-2.5684,-2.5684,-2.5684,-2.5684,-2.5684,-2.5684,-2.5684,-2.5684,-2.5684,-2.5684,-2.5684,-2.5684,-2.5684,-2.5684,-2.5684,-2.5684,-2.5684,-2.5684,-2.5684,-2.5684,-2.5684,-2.5684,-2.5684,-2.7368,-2.7431,-2.7691,-2.7799,-2.7843,-2.8077,-2.8023,-2.7853,-2.8077,-2.7843,-2.7428,-2.7237,-2.7036,-2.6763,-2.6266,-2.5975,-2.5685,-2.5452,-2.5097,-2.4842,-2.4852,-2.4923,-2.4984,-2.4949,-2.5079,-2.5538,-2.5489,-2.545,-2.5509,-2.5625,-2.547,-2.5635,-2.5645,-2.5538,-2.5625,-2.5664,-2.5577,-2.5538,-2.5538,-2.5557,-2.5577,-2.5586,-2.5577,-2.5577,-2.5586,-2.5625,-2.5674,-2.5684,-2.5713,-2.5781,-2.5791,-2.583,-2.5869,-2.585,-2.584,-2.581,-2.5918,-2.6015,-2.6083,-2.6299,-2.6484,-2.6494,-2.6758,-2.7012,-2.708,-2.7148,-2.7353,-2.7598,-2.7793,-2.7881,-2.8242,-2.8281,-2.8281,-2.8228,-2.8237,-2.8247,-2.8067,-2.7513,-2.7218,-2.7275,-2.7226,-2.7041,-2.6807,-2.6592,-2.6279,-2.5976,-2.5898,-2.583,-2.5801,-2.5781,-2.582,-2.5703,-2.5684,-2.5918,-2.5957,-2.5947,-2.5918,-2.5898,-2.5849,-2.5801,-2.5771,-2.5684,-2.5684,-2.5684,-2.5684,-2.5684,-2.5684,-2.5684,-2.5684,-2.5684,-2.5684,-2.5684,-2.5684,-2.5684,-2.5684,-2.7206,-2.7431,-2.7431,-2.7485,-2.7485,-2.7539,-2.753,-2.7476,-2.7539,-2.7485,-2.7359,-2.7131,-2.702,-2.6829,-2.6298,-2.586,-2.5611,-2.5539,-2.5455,-2.5177,-2.5025,-2.4969,-2.5004,-2.4858,-2.4829,-2.4941,-2.5068,-2.5194,-2.5342,-2.5391,-2.544,-2.5635,-2.5635,-2.5635,-2.5684,-2.5684,-2.5684,-2.5684,-2.5684,-2.5684,-2.5684,-2.5732,-2.5703,-2.5713,-2.5752,-2.5762,-2.5762,-2.5742,-2.5898,-2.623,-2.6269,-2.6455,-2.6491,-2.6345,-2.6288,-2.6338,-2.6523,-2.6631,-2.6689,-2.6826,-2.6904,-2.6924,-2.7,-2.7214,-2.7461,-2.7568,-2.7639,-2.7945,-2.8091,-2.816,-2.8281,-2.8184,-2.813,-2.8014,-2.796,-2.7853,-2.7599,-2.7466,-2.7463,-2.767,-2.761,-2.7428,-2.7072,-2.6798,-2.6565,-2.633,-2.6253,-2.6127,-2.604,-2.6072,-2.6073,-2.5869,-2.5684,-2.5996,-2.623,-2.6289,-2.6269,-2.6278,-2.622,-2.6083,-2.5986,-2.5752,-2.5693,-2.5918,-2.582,-2.5684,-2.5684,-2.5684,-2.5684,-2.5684,-2.5684,-2.5693,-2.5684,-2.5684,-2.5684,-2.7039,-2.7017,-2.7107,-2.7206,-2.7215,-2.7323,-2.7314,-2.7206,-2.7323,-2.7215,-2.7062,-2.6999,-2.6881,-2.6726,-2.6507,-2.6059,-2.5862,-2.5832,-2.5731,-2.5424,-2.5221,-2.513,-2.5265,-2.5034,-2.4909,-2.4889,-2.4874,-2.4932,-2.5098,-2.5088,-2.5186,-2.5235,-2.5284,-2.5333,-2.5489,-2.5479,-2.5606,-2.5655,-2.5713,-2.5703,-2.5742,-2.5781,-2.5808,-2.5856,-2.6021,-2.6137,-2.6187,-2.6347,-2.6394,-2.6468,-2.6507,-2.6521,-2.6554,-2.6641,-2.6637,-2.6715,-2.6883,-2.7031,-2.708,-2.7187,-2.7344,-2.7383,-2.7406,-2.7534,-2.7656,-2.768,-2.7651,-2.7785,-2.7809,-2.7809,-2.7809,-2.7853,-2.7745,-2.7691,-2.7638,-2.7593,-2.7431,-2.7377,-2.7593,-2.7809,-2.7563,-2.7304,-2.7137,-2.6883,-2.673,-2.6666,-2.6599,-2.6506,-2.6343,-2.6307,-2.628,-2.6066,-2.5883,-2.6037,-2.6328,-2.6427,-2.6517,-2.6517,-2.6528,-2.6392,-2.6336,-2.613,-2.6238,-2.6464,-2.6239,-2.582,-2.5713,-2.5723,-2.5703,-2.5723,-2.5762,-2.5791,-2.5713,-2.5684,-2.5781,-2.7068,-2.6756,-2.6956,-2.7019,-2.6954,-2.7171,-2.7107,-2.6999,-2.7107,-2.7008,-2.6691,-2.6781,-2.6781,-2.6627,-2.6545,-2.638,-2.614,-2.614,-2.5975,-2.5773,-2.5589,-2.5543,-2.5534,-2.5414,-2.5221,-2.5024,-2.4988,-2.4881,-2.481,-2.4833,-2.4833,-2.4979,-2.4988,-2.5104,-2.5339,-2.5511,-2.5613,-2.5691,-2.579,-2.579,-2.5837,-2.59,-2.5932,-2.5942,-2.6308,-2.6452,-2.6394,-2.6538,-2.6634,-2.6628,-2.6634,-2.6569,-2.6485,-2.6706,-2.6979,-2.7085,-2.7069,-2.7059,-2.7166,-2.736,-2.752,-2.753,-2.7714,-2.7751,-2.7726,-2.7571,-2.7413,-2.7431,-2.7431,-2.7431,-2.7485,-2.7431,-2.7368,-2.7314,-2.7323,-2.7269,-2.7225,-2.7171,-2.7116,-2.7225,-2.7215,-2.7201,-2.7115,-2.7121,-2.7022,-2.6984,-2.6907,-2.6707,-2.6565,-2.6437,-2.6361,-2.6186,-2.6058,-2.6167,-2.6342,-2.6563,-2.6634,-2.6634,-2.6657,-2.6612,-2.6596,-2.656,-2.6669,-2.6681,-2.6451,-2.6061,-2.5937,-2.5937,-2.6182,-2.625,-2.6074,-2.6064,-2.6171,-2.62,-2.623,-2.7519,-2.7105,-2.716,-2.6967,-2.6682,-2.6709,-2.67,-2.6709,-2.6709,-2.6636,-2.6591,-2.6636,-2.6636,-2.6591,-2.6591,-2.6545,-2.6499,-2.6499,-2.6389,-2.6243,-2.6023,-2.5947,-2.5892,-2.5561,-2.5454,-2.5368,-2.5298,-2.4983,-2.4777,-2.4669,-2.4761,-2.4935,-2.5258,-2.5471,-2.5509,-2.5727,-2.5988,-2.6021,-2.6053,-2.6043,-2.6043,-2.6049,-2.6106,-2.6083,-2.6158,-2.6295,-2.6343,-2.6465,-2.6489,-2.6774,-2.675,-2.692,-2.7214,-2.7308,-2.7346,-2.7353,-2.7334,-2.7324,-2.7321,-2.7403,-2.745,-2.7485,-2.7501,-2.7476,-2.7377,-2.7377,-2.7323,-2.7431,-2.7396,-2.738,-2.7408,-2.738,-2.7288,-2.7144,-2.7137,-2.7,-2.68,-2.6899,-2.6909,-2.6854,-2.6899,-2.7116,-2.7156,-2.7229,-2.7337,-2.7308,-2.7179,-2.6962,-2.6767,-2.6576,-2.6501,-2.6336,-2.6237,-2.6302,-2.6464,-2.6625,-2.6731,-2.6783,-2.6807,-2.6822,-2.6807,-2.6816,-2.6643,-2.6599,-2.6448,-2.649,-2.6592,-2.6643,-2.6805,-2.6618,-2.6332,-2.6559,-2.6885,-2.6795,-2.6275,-2.8086,-2.7499,-2.7326,-2.7215,-2.7196,-2.6793,-2.6719,-2.6848,-2.6683,-2.6591,-2.6591,-2.6591,-2.6591,-2.6591,-2.6591,-2.6582,-2.6591,-2.6591,-2.6591,-2.6591,-2.6399,-2.6352,-2.6279,-2.6186,-2.5986,-2.5782,-2.5718,-2.5497,-2.5131,-2.5034,-2.5085,-2.5196,-2.5345,-2.5507,-2.567,-2.5849,-2.5956,-2.606,-2.6069,-2.6078,-2.6154,-2.6201,-2.628,-2.6237,-2.6495,-2.657,-2.6589,-2.6795,-2.6789,-2.6996,-2.6889,-2.691,-2.6952,-2.6944,-2.6944,-2.6944,-2.6944,-2.7043,-2.7305,-2.7387,-2.7387,-2.7333,-2.7279,-2.7098,-2.7008,-2.6981,-2.6981,-2.6954,-2.7177,-2.7279,-2.7363,-2.7512,-2.7391,-2.7225,-2.7178,-2.693,-2.6765,-2.6655,-2.6636,-2.6636,-2.6664,-2.6947,-2.7138,-2.7092,-2.7045,-2.6961,-2.6933,-2.6786,-2.6667,-2.6613,-2.6539,-2.6456,-2.6447,-2.6474,-2.6584,-2.6738,-2.6852,-2.6905,-2.7075,-2.7081,-2.7034,-2.6983,-2.6769,-2.685,-2.6959,-2.7065,-2.7204,-2.702,-2.6843,-2.6724,-2.6583,-2.6647,-2.6578,-2.557,-2.5029,-2.8627,-2.804,-2.7646,-2.76,-2.7767,-2.7123,-2.6995,-2.7105,-2.6885,-2.6692,-2.66,-2.6591,-2.6591,-2.6591,-2.6591,-2.6591,-2.6591,-2.6591,-2.6591,-2.6591,-2.6591,-2.6564,-2.6527,-2.6509,-2.6434,-2.6168,-2.6177,-2.6002,-2.5846,-2.569,-2.5626,-2.5399,-2.5549,-2.5657,-2.5807,-2.5999,-2.6154,-2.625,-2.6293,-2.6274,-2.6259,-2.6358,-2.6407,-2.6528,-2.6695,-2.6881,-2.6944,-2.7025,-2.7015,-2.6916,-2.6853,-2.6808,-2.6691,-2.6691,-2.6691,-2.6728,-2.6792,-2.7003,-2.7166,-2.7219,-2.729,-2.7302,-2.7333,-2.7253,-2.7059,-2.6885,-2.6885,-2.7032,-2.7262,-2.7362,-2.7436,-2.7638,-2.7564,-2.751,-2.7372,-2.7169,-2.6967,-2.6967,-2.7041,-2.7059,-2.7059,-2.694,-2.7041,-2.6885,-2.6783,-2.6673,-2.6582,-2.6591,-2.6636,-2.6618,-2.6563,-2.6507,-2.6516,-2.6525,-2.6635,-2.6754,-2.6871,-2.6935,-2.7107,-2.7133,-2.6967,-2.7011,-2.6945,-2.7121,-2.726,-2.7337,-2.7226,-2.6998,-2.6806,-2.6907,-2.6898,-2.6407,-2.5931,-2.4845,-2.386,-2.8957,-2.8865,-2.8462,-2.8104,-2.7858,-2.7767,-2.7537,-2.7233,-2.7169,-2.694,-2.6674,-2.6591,-2.6591,-2.6591,-2.6591,-2.6591,-2.6591,-2.6591,-2.6591,-2.6591,-2.6591,-2.6591,-2.6591,-2.6573,-2.6564,-2.6554,-2.6454,-2.6444,-2.6463,-2.6279,-2.5958,-2.5527,-2.5865,-2.5947,-2.6102,-2.6277,-2.6406,-2.6478,-2.6478,-2.6515,-2.6533,-2.6562,-2.659,-2.6554,-2.66,-2.6636,-2.6636,-2.6745,-2.6745,-2.6691,-2.6691,-2.6765,-2.6738,-2.6683,-2.6692,-2.6839,-2.7013,-2.7225,-2.7308,-2.7151,-2.6967,-2.7225,-2.7474,-2.7621,-2.7528,-2.7656,-2.7711,-2.7629,-2.7636,-2.771,-2.7728,-2.7813,-2.795,-2.7849,-2.7776,-2.7591,-2.7481,-2.7546,-2.7574,-2.7629,-2.749,-2.7315,-2.7326,-2.7252,-2.6958,-2.683,-2.66,-2.6591,-2.6591,-2.6636,-2.6636,-2.6591,-2.66,-2.6609,-2.6609,-2.6691,-2.6736,-2.6736,-2.6845,-2.68,-2.6708,-2.68,-2.6899,-2.6944,-2.7053,-2.7161,-2.7251,-2.7031,-2.6918,-2.7198,-2.7011,-2.5963,-2.4928,-2.3859,-2.2926,-2.8984,-2.8966,-2.881,-2.8663,-2.8471,-2.8033,-2.7739,-2.761,-2.7592,-2.7315,-2.694,-2.671,-2.6591,-2.6591,-2.6591,-2.6591,-2.6591,-2.6591,-2.6591,-2.6591,-2.6591,-2.6591,-2.6591,-2.6591,-2.6582,-2.6591,-2.6591,-2.6591,-2.6564,-2.6591,-2.6481,-2.6252,-2.6296,-2.6316,-2.6444,-2.6481,-2.6554,-2.6591,-2.6591,-2.6591,-2.6591,-2.6591,-2.6591,-2.6591,-2.6591,-2.6591,-2.6636,-2.6636,-2.6591,-2.66,-2.6619,-2.6765,-2.6921,-2.694,-2.705,-2.7224,-2.75,-2.7574,-2.7592,-2.7445,-2.7463,-2.7528,-2.773,-2.7849,-2.7914,-2.7849,-2.7822,-2.7868,-2.8031,-2.8141,-2.8159,-2.8352,-2.8489,-2.8269,-2.8113,-2.8031,-2.7967,-2.8015,-2.7987,-2.7987,-2.784,-2.7666,-2.7656,-2.7666,-2.7315,-2.704,-2.6784,-2.66,-2.6637,-2.6591,-2.6591,-2.6591,-2.6591,-2.6591,-2.6591,-2.6591,-2.6591,-2.6591,-2.6591,-2.6473,-2.6418,-2.6591,-2.6691,-2.6745,-2.6564,-2.6445,-2.6509,-2.6791,-2.6899,-2.6817,-2.5981,-2.4765,-2.3774,-2.2789,-2.1892,-2.8984,-2.8984,-2.8984,-2.8984,-2.8902,-2.837,-2.8058,-2.7957,-2.7957,-2.7728,-2.7334,-2.6949,-2.6765,-2.6747,-2.6619,-2.6591,-2.6591,-2.6591,-2.6591,-2.6591,-2.6591,-2.6591,-2.6591,-2.6591,-2.6591,-2.6591,-2.6591,-2.6591,-2.6591,-2.6591,-2.6536,-2.6527,-2.6582,-2.6564,-2.6564,-2.6591,-2.6591,-2.6591,-2.6591,-2.6591,-2.6591,-2.6591,-2.671,-2.6747,-2.6802,-2.6802,-2.6875,-2.694,-2.693,-2.6912,-2.693,-2.716,-2.7307,-2.7389,-2.7564,-2.7701,-2.7884,-2.7996,-2.8005,-2.8005,-2.8005,-2.8024,-2.8198,-2.8226,-2.818,-2.818,-2.8251,-2.8281,-2.8443,-2.8572,-2.8572,-2.8737,-2.8801,-2.8581,-2.8563,-2.8489,-2.8397,-2.841,-2.8364,-2.8327,-2.8171,-2.8003,-2.8162,-2.8162,-2.7813,-2.7416,-2.7123,-2.6949,-2.6839,-2.6747,-2.6591,-2.6591,-2.6591,-2.6591,-2.6591,-2.6591,-2.6591,-2.6591,-2.6527,-2.6199,-2.6145,-2.6199,-2.5743,-2.5119,-2.5055,-2.5404,-2.5348,-2.5119,-2.5615,-2.6163,-2.4816,-2.3255,-2.2523,-2.1502,-2.0716,-2.8984,-2.8984,-2.8984,-2.8984,-2.8975,-2.8966,-2.8709,-2.8324,-2.8269,-2.8086,-2.7785,-2.7343,-2.716,-2.7095,-2.6894,-2.6802,-2.6756,-2.6701,-2.6664,-2.6683,-2.6609,-2.66,-2.6591,-2.6591,-2.6591,-2.6591,-2.6591,-2.6591,-2.6591,-2.6591,-2.6591,-2.6692,-2.6756,-2.6692,-2.6609,-2.6591,-2.6591,-2.6591,-2.66,-2.671,-2.6674,-2.6719,-2.694,-2.7095,-2.7224,-2.716,-2.7215,-2.7389,-2.737,-2.7233,-2.7473,-2.7647,-2.7728,-2.7813,-2.7877,-2.7969,-2.8214,-2.8352,-2.837,-2.8379,-2.8379,-2.8397,-2.8563,-2.8718,-2.8856,-2.8883,-2.8801,-2.8663,-2.8847,-2.8911,-2.8948,-2.8948,-2.8929,-2.8911,-2.8865,-2.8838,-2.8718,-2.8673,-2.8618,-2.8572,-2.8517,-2.8471,-2.8608,-2.8608,-2.8223,-2.7847,-2.7482,-2.727,-2.7141,-2.704,-2.6894,-2.6747,-2.6756,-2.6701,-2.6646,-2.66,-2.6591,-2.6591,-2.6245,-2.5743,-2.5238,-2.4898,-2.4334,-2.3544,-2.3712,-2.4223,-2.3712,-2.3151,-2.376,-2.415,-2.2918,-2.1566,-2.0945,-2.0493,-1.9873,-2.8984,-2.8984,-2.8984,-2.8984,-2.8984,-2.8984,-2.8755,-2.8388,-2.8132,-2.8058,-2.8086,-2.7803,-2.762,-2.7508,-2.7435,-2.7315,-2.7297,-2.7031,-2.6985,-2.6958,-2.6774,-2.6609,-2.6609,-2.6683,-2.6637,-2.6591,-2.6591,-2.6646,-2.6591,-2.6674,-2.6811,-2.693,-2.7179,-2.705,-2.682,-2.6765,-2.6894,-2.6756,-2.7004,-2.7279,-2.705,-2.7205,-2.7463,-2.761,-2.7629,-2.7629,-2.7638,-2.7849,-2.7803,-2.7618,-2.7868,-2.8005,-2.8122,-2.8177,-2.8355,-2.8462,-2.8755,-2.8773,-2.8783,-2.8783,-2.8783,-2.8828,-2.8874,-2.8984,-2.8984,-2.8984,-2.8984,-2.8984,-2.8984,-2.8984,-2.8975,-2.8975,-2.8957,-2.8966,-2.8948,-2.8948,-2.8893,-2.8902,-2.8883,-2.8865,-2.8819,-2.8714,-2.8728,-2.8669,-2.8377,-2.7926,-2.7488,-2.7569,-2.7563,-2.7508,-2.7445,-2.7132,-2.6995,-2.682,-2.6729,-2.6591,-2.6115,-2.5831,-2.5392,-2.4787,-2.4278,-2.3712,-2.332,-2.2757,-2.2869,-2.2982,-2.2531,-2.2135,-2.2021,-2.1794,-2.1117,-2.0615,-2.0155,-1.9931,-1.9649,-2.8984,-2.8984,-2.8984,-2.8984,-2.8984,-2.8984,-2.8819,-2.8572,-2.8315,-2.841,-2.8462,-2.8168,-2.7985,-2.7948,-2.7886,-2.7813,-2.7737,-2.7526,-2.738,-2.7343,-2.715,-2.7086,-2.705,-2.6976,-2.7095,-2.6985,-2.6985,-2.7077,-2.7133,-2.7022,-2.716,-2.7454,-2.7684,-2.7491,-2.7224,-2.7298,-2.7297,-2.7224,-2.7471,-2.7656,-2.7499,-2.7656,-2.7858,-2.7996,-2.8042,-2.8042,-2.8079,-2.8125,-2.8162,-2.8125,-2.8132,-2.8287,-2.8517,-2.8636,-2.8728,-2.892,-2.8984,-2.8975,-2.8957,-2.8948,-2.8929,-2.8957,-2.8984,-2.8984,-2.8984,-2.8984,-2.8984,-2.8984,-2.8984,-2.8984,-2.8984,-2.8984,-2.8984,-2.8984,-2.8925,-2.8925,-2.8865,-2.8865,-2.8797,-2.8806,-2.8737,-2.8677,-2.843,-2.8609,-2.8491,-2.7964,-2.7491,-2.7593,-2.7688,-2.7588,-2.7431,-2.7187,-2.708,-2.7027,-2.6778,-2.6489,-2.5963,-2.5113,-2.451,-2.3892,-2.2982,-2.2361,-2.2135,-2.1858,-2.1546,-2.1382,-2.1345,-2.1174,-2.1003,-2.0823,-2.0443,-1.9996,-1.9482,-1.945,-1.947,-2.8984,-2.8984,-2.8984,-2.8984,-2.8984,-2.8984,-2.8975,-2.8975,-2.8948,-2.8948,-2.8929,-2.8553,-2.8416,-2.8333,-2.8012,-2.796,-2.795,-2.7895,-2.7849,-2.7803,-2.7618,-2.7636,-2.7684,-2.7675,-2.7592,-2.7693,-2.7702,-2.7555,-2.7767,-2.7748,-2.7785,-2.7801,-2.7939,-2.7893,-2.7923,-2.7914,-2.7792,-2.7691,-2.7866,-2.793,-2.7875,-2.796,-2.815,-2.8315,-2.8407,-2.8407,-2.848,-2.8627,-2.8608,-2.8627,-2.8709,-2.8865,-2.8966,-2.8975,-2.8984,-2.8984,-2.8984,-2.8984,-2.8984,-2.8984,-2.8984,-2.8984,-2.8984,-2.8984,-2.8984,-2.8984,-2.8984,-2.8984,-2.8984,-2.8984,-2.8984,-2.8984,-2.8984,-2.8925,-2.8797,-2.8737,-2.8677,-2.8618,-2.8498,-2.843,-2.825,-2.8002,-2.7263,-2.7323,-2.7504,-2.6884,-2.6439,-2.6841,-2.6905,-2.6997,-2.6883,-2.6774,-2.6823,-2.7158,-2.6848,-2.5898,-2.5091,-2.4089,-2.3614,-2.3006,-2.1992,-2.1255,-2.1155,-2.0784,-1.9952,-1.9822,-2.0478,-2.034,-1.9914,-1.9791,-2.0055,-1.987,-1.9573,-1.9506,-1.9533,-2.8984,-2.8984,-2.8984,-2.8984,-2.8984,-2.8984,-2.8984,-2.8984,-2.8984,-2.8984,-2.8975,-2.8865,-2.8773,-2.8801,-2.8691,-2.8618,-2.8507,-2.8379,-2.8242,-2.8141,-2.7994,-2.7895,-2.7849,-2.7895,-2.784,-2.7858,-2.7868,-2.7923,-2.7923,-2.8079,-2.8214,-2.8232,-2.8407,-2.8517,-2.8563,-2.8608,-2.8309,-2.8152,-2.8373,-2.8342,-2.8342,-2.8407,-2.8608,-2.8718,-2.8764,-2.8755,-2.8828,-2.8893,-2.8865,-2.8883,-2.8911,-2.8984,-2.8984,-2.8984,-2.8984,-2.8984,-2.8984,-2.8984,-2.8984,-2.8984,-2.8925,-2.8856,-2.8856,-2.8984,-2.8984,-2.8865,-2.8856,-2.8797,-2.8677,-2.8609,-2.837,-2.831,-2.831,-2.8191,-2.7942,-2.7633,-2.7573,-2.7573,-2.7392,-2.6961,-2.6831,-2.6589,-2.5973,-2.5973,-2.6095,-2.5485,-2.5269,-2.5639,-2.605,-2.6082,-2.6236,-2.6143,-2.6024,-2.6242,-2.5445,-2.4527,-2.3818,-2.305,-2.2622,-2.2127,-2.1197,-2.0561,-2.0312,-2.0099,-1.9879,-1.988,-2.0127,-1.9933,-1.98,-1.9933,-2.0133,-1.9933,-1.976,-1.9726,-1.9773,-2.8984,-2.8984,-2.8984,-2.8984,-2.8984,-2.8984,-2.8984,-2.8984,-2.8984,-2.8984,-2.8984,-2.8975,-2.8984,-2.8966,-2.8948,-2.8938,-2.8911,-2.8737,-2.8618,-2.8553,-2.8208,-2.8342,-2.8318,-2.8156,-2.8355,-2.8232,-2.8232,-2.8342,-2.8278,-2.8425,-2.8636,-2.8645,-2.8911,-2.8948,-2.8938,-2.8865,-2.8759,-2.859,-2.8636,-2.8764,-2.8819,-2.8847,-2.8929,-2.8984,-2.8984,-2.8984,-2.8984,-2.8984,-2.8984,-2.8984,-2.8984,-2.8984,-2.8984,-2.8984,-2.8984,-2.8984,-2.8984,-2.8984,-2.8984,-2.8984,-2.8728,-2.8361,-2.8182,-2.7753,-2.8002,-2.8062,-2.8182,-2.8241,-2.8122,-2.7993,-2.7633,-2.7392,-2.7332,-2.7332,-2.6771,-2.6216,-2.6216,-2.6216,-2.5851,-2.5301,-2.5056,-2.4871,-2.4748,-2.481,-2.4502,-2.3705,-2.345,-2.3737,-2.4324,-2.4814,-2.5153,-2.5359,-2.5137,-2.5044,-2.4168,-2.3532,-2.3104,-2.248,-2.1833,-2.1206,-2.0436,-2.0227,-2.0281,-2.0228,-2.018,-2.0227,-2.0261,-2.0214,-2.014,-2.0267,-2.0327,-2.0221,-2.01,-2.0054,-2.0147,-2.8984,-2.8984,-2.8984,-2.8984,-2.8984,-2.8984,-2.8984,-2.8984,-2.8797,-2.8916,-2.8916,-2.8984,-2.8865,-2.8618,-2.8558,-2.837,-2.8122,-2.7922,-2.7836,-2.86,-2.7979,-2.7875,-2.7961,-2.8522,-2.7712,-2.8262,-2.8408,-2.7754,-2.8518,-2.8536,-2.8459,-2.8925,-2.8975,-2.8984,-2.8984,-2.8984,-2.8874,-2.8856,-2.8865,-2.8929,-2.8948,-2.8975,-2.8984,-2.8984,-2.8984,-2.8984,-2.8984,-2.8984,-2.8984,-2.8984,-2.8984,-2.8984,-2.8984,-2.8984,-2.8984,-2.8677,-2.8549,-2.825,-2.8122,-2.7993,-2.7633,-2.7203,-2.6831,-2.6399,-2.6589,-2.7021,-2.7203,-2.7013,-2.6831,-2.6581,-2.6277,-2.6164,-2.6103,-2.5851,-2.5415,-2.5048,-2.4863,-2.474,-2.4247,-2.3884,-2.376,-2.3512,-2.3208,-2.327,-2.3208,-2.216,-2.1978,-2.2278,-2.2647,-2.3387,-2.3799,-2.4247,-2.3832,-2.354,-2.3471,-2.2921,-2.2668,-2.2084,-2.1382,-2.1026,-2.0656,-2.0413,-2.0267,-2.0373,-2.0548,-2.0448,-2.0428,-2.0454,-2.0488,-2.0488,-2.0528,-2.0514,-2.0454,-2.0408,-2.0494,-2.8984,-2.8984,-2.8984,-2.8984,-2.8984,-2.8984,-2.8984,-2.8916,-2.7873,-2.8062,-2.8865,-2.8856,-2.837,-2.7573,-2.7513,-2.7142,-2.6346,-2.6529,-2.6034,-2.6216,-2.6286,-2.6529,-2.6164,-2.6468,-2.6216,-2.5973,-2.6095,-2.6702,-2.7323,-2.7564,-2.8002,-2.8797,-2.8737,-2.8549,-2.8558,-2.8618,-2.8609,-2.8677,-2.8549,-2.8618,-2.8797,-2.8925,-2.8984,-2.8984,-2.8984,-2.8984,-2.8984,-2.8984,-2.8984,-2.8984,-2.8984,-2.8984,-2.8984,-2.8925,-2.843,-2.7744,-2.7444,-2.7082,-2.6589,-2.6399,-2.6034,-2.579,-2.5423,-2.5301,-2.5362,-2.579,-2.5851,-2.5607,-2.5415,-2.5178,-2.4933,-2.481,-2.4687,-2.4371,-2.4124,-2.3822,-2.3574,-2.3146,-2.2709,-2.2647,-2.2529,-2.2278,-2.1908,-2.172,-2.1601,-2.1475,-2.1355,-2.1418,-2.1538,-2.1971,-2.2153,-2.2375,-2.2076,-2.1874,-2.2153,-2.2327,-2.2061,-2.1804,-2.1249,-2.0958,-2.0862,-2.0782,-2.0695,-2.0842,-2.0922,-2.0788,-2.0748,-2.0889,-2.0895,-2.0788,-2.0768,-2.0775,-2.0828,-2.0815,-2.0889,-2.7203,-2.7263,-2.7873,-2.8122,-2.825,-2.8737,-2.8677,-2.8053,-2.7323,-2.7073,-2.7203,-2.7142,-2.6771,-2.6164,-2.6103,-2.579,-2.4933,-2.5056,-2.524,-2.5117,-2.481,-2.5117,-2.4994,-2.481,-2.5178,-2.4994,-2.5056,-2.5546,-2.6034,-2.6156,-2.6641,-2.7263,-2.7323,-2.7383,-2.7323,-2.7323,-2.7633,-2.8002,-2.7633,-2.7633,-2.8122,-2.8549,-2.8925,-2.8984,-2.8984,-2.8984,-2.8984,-2.8984,-2.8984,-2.8677,-2.843,-2.7504,-2.7254,-2.6952,-2.6771,-2.6346,-2.6034,-2.579,-2.5178,-2.481,-2.4564,-2.4309,-2.4124,-2.407,-2.3029,-2.3333,-2.3884,-2.3698,-2.4124,-2.4,-2.3084,-2.2779,-2.2779,-2.2591,-2.2466,-2.2285,-2.216,-2.1971,-2.179,-2.179,-2.1727,-2.1664,-2.1411,-2.1411,-2.1292,-2.1292,-2.1109,-2.1109,-2.1102,-2.1102,-2.1102,-2.1102,-2.1102,-2.1102,-2.1475,-2.1538,-2.1391,-2.1152,-2.1102,-2.1056,-2.0989,-2.1042,-2.1089,-2.1076,-2.1069,-2.1056,-2.1069,-2.1102,-2.1102,-2.0982,-2.1009,-2.1056,-2.1102,-2.1102,-2.1082,-2.4982,-2.5106,-2.6261,-2.671,-2.6892,-2.7942,-2.7753,-2.6831,-2.6529,-2.5782,-2.4863,-2.4617,-2.4564,-2.4748,-2.4748,-2.4625,-2.4379,-2.3822,-2.4131,-2.4193,-2.4193,-2.3884,-2.3946,-2.4247,-2.4008,-2.4008,-2.407,-2.4317,-2.4748,-2.4802,-2.4863,-2.4933,-2.4994,-2.5056,-2.4994,-2.5178,-2.579,-2.6277,-2.6216,-2.5981,-2.684,-2.8002,-2.837,-2.8668,-2.8916,-2.8856,-2.8797,-2.8737,-2.8677,-2.8002,-2.7263,-2.6459,-2.5851,-2.5607,-2.517,-2.4933,-2.474,-2.4556,-2.4193,-2.3946,-2.3512,-2.3139,-2.2952,-2.2404,-2.1481,-2.1544,-2.2097,-2.2404,-2.2764,-2.2647,-2.1727,-2.1292,-2.1292,-2.1299,-2.1235,-2.1235,-2.1172,-2.1109,-2.1172,-2.1172,-2.1166,-2.1102,-2.1102,-2.1102,-2.1102,-2.1102,-2.1102,-2.1102,-2.1102,-2.1102,-2.1102,-2.1102,-2.1102,-2.1102,-2.1102,-2.1102,-2.1102,-2.1102,-2.1102,-2.1102,-2.1102,-2.1102,-2.1102,-2.1102,-2.1102,-2.1102,-2.1102,-2.1102,-2.1102,-2.1102,-2.1102,-2.1102,-2.1102,-2.1102,-2.1102,-2.4484,-2.4695,-2.5173,-2.5362,-2.5423,-2.5729,-2.5607,-2.5232,-2.4301,-2.3628,-2.3325,-2.2404,-2.2341,-2.345,-2.345,-2.3201,-2.2466,-2.2278,-2.1971,-2.1783,-2.2341,-2.216,-2.216,-2.2584,-2.2034,-2.2097,-2.2404,-2.2591,-2.3263,-2.3512,-2.3946,-2.4625,-2.481,-2.481,-2.4863,-2.4863,-2.481,-2.5048,-2.5056,-2.4871,-2.5423,-2.6407,-2.7194,-2.7753,-2.843,-2.8062,-2.7753,-2.7383,-2.671,-2.6034,-2.5546,-2.517,-2.4748,-2.444,-2.4131,-2.3574,-2.345,-2.3021,-2.2779,-2.2529,-2.2027,-2.1964,-2.1783,-2.172,-2.1166,-2.1166,-2.1475,-2.1475,-2.172,-2.172,-2.1166,-2.1166,-2.1166,-2.1166,-2.1102,-2.1102,-2.1102,-2.1102,-2.1102,-2.1102,-2.1102,-2.1102,-2.1102,-2.1102,-2.1102,-2.1102,-2.1102,-2.1102,-2.1102,-2.1102,-2.1102,-2.1102,-2.1102,-2.1102,-2.1102,-2.1102,-2.1102,-2.1102,-2.1102,-2.1102,-2.1102,-2.1102,-2.1102,-2.1102,-2.1102,-2.1102,-2.1102,-2.1102,-2.1102,-2.1102,-2.1102,-2.1102,-2.1102,-2.1102,-2.1102]},{"header":{"parameterUnit":"m.s-1","parameterCategory":1,"la1":31.0,"la2":29.5877,"lo1":-88.7671,"lo2":-86.6584,"dy":0.0162,"dx":0.0185,"nx":115,"ny":88,"refTime":"2024-09-19T06:00:00:Z","depth":0,"parameterNumber":3,"parameterNumberName":"V-component_of_WINDS"},"data":[0.0,0.0,0.0,0.0,0.0,0.0,0.0,0.0,0.0,0.0,0.0,0.0,0.0,0.0,0.0,0.0,0.0,0.0,0.0,0.0,0.0,0.0,0.0,0.0,0.0,0.0,0.0,0.0,0.0,0.0,0.0,0.0,0.0,0.0,0.0,0.0,0.0,0.0,0.0,0.0,0.0,0.0,0.0,0.0,0.0,0.0,0.0,0.0,0.0,0.0,0.0,0.0,0.0,0.0,0.0,0.0,0.0,0.0,0.0,0.0,0.0,0.0,0.0,0.0,0.0,0.0,0.0,0.0,0.0,0.0,0.0,0.0,0.0,0.0,0.0,0.0,0.0,0.0,0.0,0.0,0.0,0.0,0.0,0.0,0.0,0.0,0.0,0.0,0.0,0.0,0.0,0.0,0.0,0.0,0.0,0.0,0.0,0.0,0.0,0.0,0.0,0.0,0.0,0.0,0.0,0.0,0.0,0.0,0.0,0.0,0.0,0.0,0.0,0.0,0.0,0.0,0.0,0.0,0.0,0.0,0.0,0.0,0.0,0.0,0.0,0.0,0.0,0.0,0.0,0.0,0.0,0.0,0.0,0.0,0.0,0.0,0.0,0.0,0.0,0.0,0.0,0.0,0.0,0.0,0.0,0.0,0.0,0.0,0.0,0.0,0.0,0.0,0.0,0.0,0.0,0.0,0.0,0.0,0.0,0.0,0.0,0.0,0.0,0.0,0.0,0.0,0.0,0.0,0.0,0.0,0.0,0.0,0.0,0.0,0.0,0.0,0.0,0.0,0.0,0.0,0.0,0.0,0.0,0.0,0.0,0.0,0.0,0.0,0.0,0.0,0.0,0.0,0.0,0.0,0.0,0.0,0.0,0.0,0.0,0.0,0.0,0.0,0.0,0.0,0.0,0.0,0.0,0.0,0.0,0.0,0.0,0.0,0.0,0.0,0.0,0.0,0.0,0.0,0.0,0.0,0.0,0.0,0.0,0.0,0.0,0.0,0.0,0.0,0.0,0.0,0.0,0.0,0.0,0.0,0.0,0.0,0.0,0.0,0.0,0.0,0.0,0.0,0.0,0.0,0.0,0.0,0.0,0.0,0.0,0.0,0.0,0.0,0.0,0.0,0.0,0.0,0.0,0.0,0.0,0.0,0.0,0.0,0.0,0.0,0.0,0.0,0.0,0.0,0.0,0.0,0.0,0.0,0.0,0.0,0.0,0.0,0.0,0.0,0.0,0.0,0.0,0.0,0.0,0.0,0.0,0.0,0.0,0.0,0.0,0.0,0.0,0.0,0.0,0.0,0.0,0.0,0.0,0.0,0.0,0.0,0.0,0.0,0.0,0.0,0.0,0.0,0.0,0.0,0.0,0.0,0.0,0.0,0.0,0.0,0.0,0.0,0.0,0.0,0.0,0.0,0.0,0.0,0.0,0.0,0.0,0.0,0.0,0.0,0.0,0.0,0.0,0.0,0.0,0.0,0.0,0.0,0.0,0.0,0.0,0.0,0.0,0.0,0.0,0.0,0.0,0.0,0.0,0.0,0.0,0.0,0.0,0.0,0.0,0.0,0.0,0.0,0.0,0.0,0.0,0.0,0.0,0.0,0.0,0.0,0.0,0.0,0.0,0.0,0.0,0.0,0.0,0.0,0.0,0.0,0.0,0.0,0.0,0.0,0.0,0.0,0.0,0.0,0.0,0.0,0.0,0.0,0.0,0.0,0.0,0.0,0.0,0.0,0.0,0.0,0.0,0.0,0.0,0.0,0.0,0.0,0.0,0.0,0.0,0.0,0.0,0.0,0.0,0.0,0.0,0.0,0.0,0.0,0.0,0.0,0.0,0.0,0.0,0.0,0.0,0.0,0.0,0.0,0.0,0.0,0.0,0.0,0.0,0.0,0.0,0.0,0.0,0.0,0.0,0.0,0.0,0.0,0.0,0.0,0.0,0.0,0.0,0.0,0.0,0.0,0.0,0.0,0.0,0.0,0.0,0.0,0.0,0.0,0.0,0.0,0.0,0.0,0.0,0.0,0.0,0.0,0.0,0.0,0.0,0.0,0.0,0.0,0.0,0.0,0.0,0.0,0.0,0.0,0.0,0.0,0.0,0.0,0.0,0.0,0.0,0.0,0.0,0.0,0.0,0.0,0.0,0.0,0.0,0.0,0.0,0.0,0.0,0.0,0.0,0.0,0.0,0.0,0.0,0.0,0.0,0.0,0.0,0.0,0.0,0.0,0.0,0.0,0.0,0.0,0.0,0.0,0.0,0.0,0.0,0.0,0.0,0.0,0.0,0.0,0.0,0.0,0.0,0.0,0.0,0.0,0.0,0.0,0.0,0.0,0.0,0.0,0.0,0.0,0.0,0.0,0.0,0.0,0.0,0.0,0.0,0.0,0.0,0.0,0.0,0.0,0.0,0.0,0.0,0.0,0.0,0.0,0.0,0.0,0.0,0.0,0.0,0.0,0.0,0.0,0.0,0.0,0.0,0.0,0.0,0.0,0.0,0.0,0.0,0.0,0.0,0.0,0.0,0.0,0.0,0.0,0.0,0.0,0.0,0.0,0.0,0.0,0.0,0.0,0.0,0.0,0.0,0.0,0.0,0.0,0.0,0.0,0.0,0.0,0.0,0.0,0.0,0.0,0.0,0.0,0.0,0.0,0.0,0.0,0.0,0.0,0.0,0.0,0.0,0.0,0.0,0.0,0.0,0.0,0.0,0.0,0.0,0.0,0.0,0.0,0.0,0.0,0.0,0.0,0.0,0.0,0.0,0.0,0.0,0.0,0.0,0.0,0.0,0.0,0.0,0.0,0.0,0.0,0.0,0.0,0.0,0.0,0.0,0.0,0.0,0.0,0.0,0.0,0.0,0.0,0.0,0.0,0.0,0.0,0.0,0.0,0.0,0.0,0.0,0.0,0.0,0.0,0.0,0.0,0.0,0.0,0.0,0.0,0.0,0.0,0.0,0.0,0.0,0.0,0.0,0.0,0.0,0.0,0.0,0.0,0.0,0.0,0.0,0.0,0.0,0.0,0.0,0.0,0.0,0.0,0.0,0.0,0.0,0.0,0.0,0.0,0.0,0.0,0.0,0.0,0.0,0.0,0.0,0.0,0.0,0.0,0.0,0.0,0.0,0.0,0.0,0.0,0.0,0.0,0.0,0.0,0.0,0.0,0.0,0.0,0.0,0.0,0.0,0.0,0.0,0.0,0.0,0.0,0.0,0.0,0.0,0.0,0.0,0.0,0.0,0.0,0.0,0.0,0.0,0.0,0.0,0.0,0.0,0.0,0.0,0.0,0.0,0.0,0.0,0.0,0.0,0.0,0.0,0.0,0.0,0.0,0.0,0.0,0.0,0.0,0.0,0.0,0.0,0.0,0.0,0.0,0.0,0.0,0.0,0.0,0.0,0.0,0.0,0.0,0.0,0.0,0.0,0.0,0.0,0.0,0.0,0.0,0.0,0.0,0.0,0.0,0.0,0.0,0.0,0.0,0.0,0.0,0.0,0.0,0.0,0.0,0.0,0.0,0.0,0.0,0.0,0.0,0.0,0.0,0.0,0.0,0.0,0.0,0.0,0.0,0.0,0.0,0.0,0.0,0.0,0.0,0.0,0.0,0.0,0.0,0.0,0.0,0.0,0.0,0.0,0.0,0.0,0.0,0.0,0.0,0.0,0.0,0.0,0.0,0.0,0.0,0.0,0.0,0.0,0.0,0.0,0.0,0.0,0.0,0.0,0.0,0.0,0.0,0.0,0.0,0.0,0.0,0.0,0.0,0.0,0.0,0.0,0.0,0.0,0.0,0.0,0.0,0.0,0.0,0.0,0.0,0.0,0.0,0.0,0.0,0.0,0.0,0.0,0.0,0.0,0.0,0.0,0.0,0.0,0.0,0.0,0.0,0.0,0.0,0.0,0.0,0.0,0.0,0.0,0.0,0.0,0.0,0.0,0.0,0.0,0.0,0.0,0.0,0.0,0.0,0.0,0.0,0.0,0.0,0.0,0.0,0.0,0.0,0.0,0.0,0.0,0.0,0.0,0.0,0.0,0.0,0.0,0.0,0.0,0.0,0.0,0.0,0.0,0.0,0.0,0.0,0.0,0.0,0.0,0.0,0.0,0.0,0.0,0.0,0.0,0.0,0.0,0.0,0.0,0.0,0.0,0.0,0.0,0.0,0.0,0.0,0.0,0.0,0.0,0.0,0.0,0.0,0.0,0.0,0.0,0.0,0.0,0.0,0.0,0.0,0.0,0.0,0.0,0.0,0.0,0.0,0.0,0.0,1.2346,0.0,0.0,0.0,0.0,0.0,0.0,0.0,0.0,0.0,0.0,0.0,0.0,0.0,0.0,0.0,0.0,0.0,0.0,0.0,0.0,0.0,0.0,0.0,0.0,0.0,0.0,0.0,0.0,0.0,0.0,0.0,0.0,0.0,0.0,0.0,0.0,0.0,0.0,0.0,0.0,0.0,0.0,0.0,0.0,0.0,0.0,0.0,0.0,0.0,0.0,0.0,0.0,0.0,0.0,0.0,0.0,0.0,0.0,0.0,0.0,0.0,0.0,0.0,0.0,0.0,0.0,0.0,0.0,0.0,0.0,0.0,0.0,0.0,0.0,0.0,0.0,0.0,0.0,0.0,0.0,0.0,0.0,0.0,0.0,0.0,0.0,0.0,0.0,0.0,0.0,0.0,0.0,0.0,0.0,0.0,0.0,0.0,0.0,0.0,0.0,0.0,0.0,0.0,0.0,0.0,0.0,0.0,0.0,0.0,0.0,1.3975,1.4273,1.3132,1.2508,1.2495,0.0,0.0,0.0,0.0,0.0,0.0,0.0,0.0,0.0,0.0,0.0,0.0,0.0,0.0,0.0,0.0,0.0,0.0,0.0,0.0,0.0,0.0,0.0,0.0,0.0,0.0,0.0,0.0,0.0,0.0,0.0,0.0,0.0,0.0,0.0,0.0,0.0,0.0,0.0,0.0,0.0,0.0,0.0,0.0,0.0,0.0,0.0,0.0,0.0,0.0,0.0,0.0,0.0,0.0,0.0,0.0,0.0,0.0,0.0,0.0,0.0,0.0,0.0,0.0,0.0,0.0,0.0,0.0,0.0,0.0,0.0,0.0,0.0,0.0,0.0,0.0,0.0,0.0,0.0,0.0,0.0,0.0,0.0,0.0,0.0,0.0,0.0,0.0,0.0,0.0,0.0,0.0,0.0,0.0,0.0,0.0,0.0,0.0,0.0,0.0,0.0,0.0,0.0,0.0,0.0,0.0,0.0,0.0,0.0,0.0,0.0,0.0,1.3403,1.2712,1.2305,0.0,0.0,0.0,0.0,0.0,0.0,0.0,0.0,0.0,0.0,0.0,0.0,0.0,0.0,0.0,0.0,0.0,0.0,0.0,0.0,0.0,0.0,0.0,0.0,0.0,0.0,0.0,0.0,0.0,0.0,0.0,0.0,0.0,0.0,0.0,0.0,0.0,0.0,0.0,0.0,0.0,0.0,0.0,0.0,0.0,0.0,0.0,0.0,0.0,0.0,0.0,0.0,0.0,0.0,0.0,0.0,0.0,0.0,0.0,0.0,0.0,0.0,0.0,0.0,0.0,0.0,0.0,0.0,0.0,0.0,0.0,0.0,0.0,0.0,0.0,0.0,0.0,0.0,0.0,0.0,0.0,0.0,0.0,0.0,0.0,0.0,0.0,0.0,0.0,0.0,0.0,0.0,0.0,0.0,0.0,0.0,0.0,0.0,0.0,0.0,0.0,0.0,0.0,0.0,0.0,0.0,0.0,0.0,0.0,0.0,1.3674,1.4273,1.4178,0.0,1.1831,0.0,0.0,0.0,0.0,0.0,0.0,0.0,0.0,0.0,0.0,0.0,0.0,0.0,0.0,0.0,0.0,0.0,0.0,0.0,0.0,0.0,0.0,0.0,0.0,0.0,0.0,0.0,0.0,0.0,0.0,0.0,0.0,0.0,0.0,0.0,0.0,0.0,0.0,0.0,0.0,0.0,0.0,0.0,0.0,0.0,0.0,0.0,0.0,0.0,0.0,0.0,0.0,0.0,0.0,0.0,0.0,0.0,0.0,0.0,0.0,0.0,0.0,0.0,0.0,0.0,0.0,0.0,0.0,0.0,0.0,0.0,0.0,0.0,0.0,0.0,0.0,0.0,0.0,0.0,0.0,0.0,0.0,0.0,0.0,0.0,0.0,0.0,0.0,0.0,0.0,0.0,0.0,0.0,0.0,0.0,0.0,0.0,0.0,0.0,0.0,0.0,0.0,0.0,0.0,0.0,0.0,0.0,0.0,0.0,0.0,0.0,1.4273,1.3606,1.2784,0.0,0.0,0.0,0.0,0.0,0.0,0.0,0.0,0.0,0.0,0.0,0.0,0.0,0.0,0.0,0.0,0.0,0.0,0.0,0.0,0.0,0.0,0.0,0.0,0.0,0.0,0.0,0.0,0.0,0.0,0.0,0.0,0.0,0.0,0.0,0.0,0.0,0.0,0.0,0.0,0.0,0.0,0.0,0.0,0.0,0.0,0.0,0.0,0.0,0.0,0.0,0.0,0.0,0.0,0.0,0.0,0.0,0.0,0.0,0.0,0.0,0.0,0.0,0.0,0.0,0.0,0.0,0.0,0.0,0.0,0.0,0.0,0.0,0.0,0.0,0.0,0.0,0.0,0.0,0.0,0.0,0.0,0.0,0.0,0.0,0.0,0.0,0.0,0.0,0.0,0.0,0.0,0.0,0.0,0.0,0.0,0.0,0.0,0.0,0.0,0.0,0.0,0.0,0.0,0.0,0.0,0.0,0.0,0.0,0.0,1.3024,0.0,1.4449,1.3554,1.2608,1.1738,0.0,0.0,0.0,0.0,0.0,0.0,0.0,0.0,0.0,0.0,0.0,0.0,0.0,0.0,0.0,0.0,0.0,0.0,0.0,0.0,0.0,0.0,0.0,0.0,0.0,0.0,0.0,0.0,0.0,0.0,0.0,0.0,0.0,0.0,0.0,0.0,0.0,0.0,0.0,0.0,0.0,0.0,0.0,0.0,0.0,0.0,0.0,0.0,0.0,0.0,0.0,0.0,0.0,0.0,0.0,0.0,0.0,0.0,0.0,0.0,0.0,0.0,0.0,0.0,0.0,0.0,0.0,0.0,0.0,0.0,0.0,0.0,0.0,0.0,0.0,0.0,0.0,0.0,0.0,0.0,0.0,0.0,0.0,0.0,0.0,0.0,0.0,0.0,0.0,0.0,0.0,0.0,0.0,0.0,0.0,0.0,0.0,0.0,0.0,0.0,0.0,0.0,0.0,0.0,0.0,0.0,0.0,0.0,0.0,1.3633,1.3975,1.5104,1.4531,1.3223,0.0,0.0,0.0,0.0,0.0,0.0,0.0,0.0,0.0,0.0,0.0,0.0,0.0,0.0,0.0,0.0,0.0,0.0,0.0,0.0,0.0,0.0,0.0,0.0,0.0,0.0,0.0,0.0,0.0,0.0,0.0,0.0,0.0,0.0,0.0,0.0,0.0,0.0,0.0,0.0,0.0,0.0,0.0,0.0,0.0,0.0,0.0,0.0,0.0,0.0,0.0,0.0,0.0,0.0,0.0,0.0,0.0,0.0,0.0,0.0,0.0,0.0,0.0,0.0,0.0,0.0,0.0,0.0,0.0,0.0,0.0,0.0,0.0,0.0,0.0,0.0,0.0,0.0,0.0,0.0,0.0,0.0,0.0,0.0,0.0,0.0,0.0,0.0,0.0,0.0,0.0,0.0,0.0,0.0,0.0,0.0,0.0,0.0,0.0,0.0,0.0,0.0,0.0,0.0,0.0,0.0,0.0,0.0,0.0,1.1953,1.2536,1.3769,1.5589,1.3337,1.198,0.0,0.0,0.0,0.0,0.0,0.0,0.0,0.0,0.0,0.0,0.0,0.0,0.0,0.0,0.0,0.0,0.0,0.0,0.0,0.0,0.0,0.0,0.0,0.0,0.0,0.0,0.0,0.0,0.0,0.0,0.0,0.0,0.0,0.0,0.0,0.0,0.0,0.0,0.0,0.0,0.0,0.0,0.0,0.0,0.0,0.0,0.0,0.0,0.0,0.0,0.0,0.0,0.0,0.0,0.0,0.0,0.0,0.0,0.0,0.0,0.0,0.0,0.0,0.0,0.0,0.0,0.0,0.0,0.0,0.0,0.0,0.0,0.0,0.0,0.0,0.0,0.0,0.0,0.0,0.0,0.0,0.0,0.0,0.0,0.0,0.0,0.0,0.0,0.0,0.0,0.0,0.0,0.0,0.0,0.0,0.0,0.0,0.0,0.0,0.0,0.0,0.0,0.0,0.0,0.0,0.0,0.0,0.0,0.0,1.1872,0.0,1.427,0.0,1.3001,1.1622,0.0,0.0,0.0,0.0,0.0,0.0,0.0,0.0,0.0,0.0,0.0,0.0,0.0,0.0,0.0,0.0,0.0,0.0,0.0,0.0,0.0,0.0,0.0,0.0,0.0,0.0,0.0,0.0,0.0,0.0,0.0,0.0,0.0,0.0,0.0,0.0,0.0,0.0,0.0,0.0,0.0,0.0,0.0,0.0,0.0,0.0,0.0,0.0,0.0,0.0,0.0,0.0,0.0,0.0,0.0,0.0,0.0,0.0,0.0,0.0,0.0,0.0,0.0,0.0,0.0,0.0,0.0,0.0,0.0,0.0,0.0,0.0,0.0,0.0,0.0,0.0,0.0,0.0,0.0,0.0,0.0,0.0,0.0,0.0,0.0,0.0,0.0,0.0,0.0,0.0,0.0,0.0,0.0,0.0,0.0,0.0,0.0,0.0,0.0,0.0,0.0,0.0,0.0,0.0,0.0,0.0,0.0,0.0,1.1885,1.4167,1.5376,1.544,1.4382,1.3789,1.2298,0.0,0.0,0.0,0.0,0.0,0.0,0.0,0.0,0.0,0.0,0.0,0.0,0.0,0.0,0.0,0.0,0.0,0.0,0.0,0.0,0.0,0.0,0.0,0.0,0.0,0.0,0.0,0.0,0.0,0.0,0.0,0.0,0.0,0.0,0.0,0.0,0.0,0.0,0.0,0.0,0.0,0.0,0.0,0.0,0.0,0.0,0.0,0.0,0.0,0.0,0.0,0.0,0.0,0.0,0.0,0.0,0.0,0.0,0.0,0.0,0.0,0.0,0.0,0.0,0.0,0.0,0.0,0.0,0.0,0.0,0.0,0.0,0.0,0.0,0.0,0.0,0.0,0.0,0.0,0.0,0.0,0.0,0.0,0.0,0.0,0.0,0.0,0.0,0.0,0.0,0.0,0.0,0.0,0.0,0.0,0.0,0.0,0.0,0.0,0.0,0.0,0.0,0.0,0.0,0.0,0.0,0.0,0.0,0.0,1.321,1.4422,1.5414,1.6041,1.3768,1.2452,0.0,0.0,0.0,0.0,0.0,0.0,0.0,0.0,0.0,0.0,0.0,0.0,0.0,0.0,0.0,0.0,0.0,0.0,0.0,0.0,0.0,0.0,0.0,0.0,0.0,0.0,0.0,0.0,0.0,0.0,0.0,0.0,0.0,0.0,0.0,0.0,0.0,0.0,0.0,0.0,0.0,0.0,0.0,0.0,0.0,0.0,0.0,0.0,0.0,0.0,0.0,0.0,0.0,0.0,0.0,0.0,0.0,0.0,0.0,0.0,0.0,0.0,0.0,0.0,0.0,0.0,0.0,0.0,0.0,0.0,0.0,0.0,0.0,0.0,0.0,0.0,0.0,0.0,0.0,0.0,0.0,0.0,0.0,0.0,0.0,0.0,0.0,0.0,0.0,0.0,0.0,0.0,0.0,0.0,0.0,0.0,0.0,0.0,0.0,0.0,0.0,0.0,0.0,0.0,0.0,0.0,0.0,0.0,0.0,1.4676,1.5775,1.6649,1.7253,1.4819,1.3458,1.3272,0.0,0.0,0.0,0.0,0.0,0.0,0.0,0.0,0.0,0.0,0.0,0.0,0.0,0.0,0.0,0.0,0.0,0.0,0.0,0.0,0.0,0.0,0.0,0.0,0.0,0.0,0.0,0.0,0.0,0.0,0.0,0.0,0.0,0.0,0.0,0.0,0.0,0.0,0.0,0.0,0.0,0.0,0.0,0.0,0.0,0.0,0.0,0.0,0.0,0.0,0.0,0.0,0.0,0.0,0.0,0.0,0.0,0.0,0.0,0.0,0.0,0.0,0.0,0.0,0.0,0.0,0.0,0.0,0.0,0.0,0.0,0.0,0.0,0.0,0.0,0.0,0.0,0.0,0.0,0.0,0.0,0.0,0.0,0.0,0.0,0.0,0.0,0.0,0.0,0.0,0.0,0.0,0.0,0.0,0.0,0.0,0.0,0.0,0.0,0.0,0.0,0.0,0.0,0.0,0.0,0.0,0.0,0.0,1.7908,1.8973,1.8984,1.7876,1.6741,1.5124,0.0,0.0,0.0,0.0,0.0,0.0,0.0,0.0,0.0,0.0,0.0,0.0,0.0,0.0,0.0,0.0,0.0,0.0,0.0,0.0,0.0,0.0,0.0,0.0,0.0,0.0,0.0,0.0,0.0,0.0,0.0,0.0,0.0,0.0,0.0,0.0,0.0,0.0,0.0,0.0,0.0,0.0,0.0,0.0,0.0,0.0,0.0,0.0,0.0,0.0,0.0,0.0,0.0,0.0,0.0,0.0,0.0,0.0,0.0,0.0,0.0,0.0,0.0,0.0,0.0,0.0,0.0,0.0,0.0,0.0,0.0,0.0,0.0,0.0,0.0,0.0,0.0,0.0,0.0,0.0,0.0,0.0,0.0,0.0,0.0,0.0,0.0,0.0,0.0,0.0,0.0,0.0,0.0,0.0,0.0,0.0,0.0,0.0,0.0,0.0,0.0,0.0,0.0,0.0,0.0,0.0,0.0,0.0,0.0,1.944,2.0705,2.0762,1.9626,1.7812,1.6152,0.0,0.0,0.0,0.0,0.0,0.0,0.0,0.0,0.0,0.0,0.0,0.0,0.0,0.0,0.0,0.0,0.0,0.0,0.0,0.0,0.0,0.0,0.0,0.0,0.0,0.0,0.0,0.0,0.0,0.0,0.0,0.0,0.0,0.0,0.0,0.0,0.0,0.0,0.0,0.0,0.0,0.0,0.0,0.0,0.0,0.0,0.0,0.0,0.0,0.0,0.0,0.0,0.0,0.0,0.0,0.0,0.0,0.0,0.0,0.0,0.0,0.0,0.0,0.0,0.0,0.0,0.0,0.0,0.0,0.0,0.0,0.0,0.0,0.0,0.0,0.0,0.0,0.0,0.0,0.0,0.0,0.0,0.0,0.0,0.0,0.0,0.0,0.0,0.0,0.0,0.0,0.0,0.0,0.0,0.0,0.0,0.0,0.0,0.0,0.0,0.0,0.0,0.0,0.0,0.0,0.0,0.0,0.0,1.8695,2.0857,2.1888,2.2127,2.16,1.99,1.8003,0.0,0.0,0.0,0.0,0.0,0.0,0.0,0.0,0.0,0.0,0.0,0.0,0.0,0.0,0.0,0.0,0.0,0.0,0.0,0.0,0.0,0.0,0.0,0.0,0.0,0.0,0.0,0.0,0.0,0.0,0.0,0.0,0.0,0.0,0.0,0.0,0.0,0.0,0.0,0.0,0.0,0.0,0.0,0.0,0.0,0.0,0.0,0.0,0.0,0.0,0.0,0.0,0.0,0.0,0.0,0.0,0.0,0.0,0.0,0.0,0.0,0.0,0.0,0.0,0.0,0.0,0.0,0.0,0.0,0.0,0.0,0.0,0.0,0.0,0.0,0.0,0.0,0.0,0.0,0.0,0.0,0.0,0.0,0.0,0.0,0.0,0.0,0.0,0.0,0.0,0.0,0.0,0.0,0.0,0.0,0.0,0.0,0.0,0.0,0.0,0.0,0.0,0.0,0.0,0.0,0.0,0.0,0.0,1.9653,2.2033,2.2765,2.3257,2.3496,2.2159,2.0009,0.0,0.0,0.0,0.0,0.0,0.0,0.0,0.0,0.0,0.0,0.0,0.0,0.0,0.0,0.0,0.0,0.0,0.0,0.0,0.0,0.0,0.0,0.0,0.0,0.0,0.0,0.0,0.0,0.0,0.0,0.0,0.0,0.0,0.0,0.0,0.0,0.0,0.0,0.0,0.0,0.0,0.0,0.0,0.0,0.0,0.0,0.0,0.0,0.0,0.0,0.0,0.0,0.0,0.0,0.0,0.0,0.0,0.0,0.0,0.0,0.0,0.0,0.0,0.0,0.0,0.0,0.0,0.0,0.0,0.0,0.0,0.0,0.0,0.0,0.0,0.0,0.0,0.0,0.0,0.0,0.0,0.0,0.0,0.0,0.0,0.0,0.0,0.0,0.0,0.0,0.0,0.0,0.0,0.0,0.0,0.0,0.0,0.0,0.0,0.0,0.0,0.0,0.0,0.0,0.0,0.0,0.0,0.0,2.1162,2.2656,2.3876,2.4519,2.4577,2.2073,1.9849,0.0,0.0,0.0,0.0,0.0,0.0,0.0,0.0,0.0,0.0,0.0,0.0,0.0,0.0,0.0,0.0,0.0,0.0,0.0,0.0,0.0,0.0,0.0,0.0,0.0,0.0,0.0,0.0,0.0,0.0,0.0,0.0,0.0,0.0,0.0,0.0,0.0,0.0,0.0,0.0,0.0,0.0,0.0,0.0,0.0,0.0,0.0,0.0,1.4766,0.0,0.0,0.0,0.0,0.0,0.0,0.0,0.0,0.0,0.0,0.0,0.0,0.0,0.0,0.0,0.0,0.0,0.0,0.0,0.0,0.0,0.0,0.0,0.0,0.0,0.0,0.0,0.0,0.0,0.0,0.0,0.0,0.0,0.0,0.0,0.0,0.0,0.0,0.0,0.0,0.0,0.0,0.0,0.0,0.0,0.0,0.0,0.0,0.0,0.0,0.0,0.0,0.0,0.0,0.0,0.0,0.0,0.0,0.0,2.1772,2.3316,2.423,2.4879,2.526,2.278,2.0491,0.0,0.0,0.0,0.0,0.0,0.0,0.0,0.0,0.0,0.0,0.0,0.0,0.0,0.0,0.0,0.0,0.0,0.0,0.0,0.0,0.0,0.0,0.0,0.0,0.0,0.0,0.0,0.0,0.0,0.0,0.0,0.0,0.0,0.0,0.0,0.0,0.0,0.0,0.0,0.0,0.0,0.0,0.0,0.0,0.0,0.0,0.0,0.0,0.0,0.0,0.0,0.0,0.0,0.0,0.0,0.0,0.0,0.0,0.0,0.0,0.0,0.0,0.0,0.0,0.0,0.0,0.0,0.0,0.0,0.0,0.0,0.0,0.0,0.0,0.0,0.0,0.0,0.0,0.0,0.0,0.0,0.0,0.0,0.0,0.0,0.0,0.0,0.0,0.0,0.0,0.0,0.0,0.0,0.0,0.0,0.0,0.0,0.0,0.0,0.0,0.0,0.0,0.0,0.0,0.0,0.0,0.0,1.9541,2.1996,2.3975,2.4382,2.494,2.569,2.3667,2.1449,1.9118,0.0,0.0,0.0,0.0,0.0,0.0,0.0,0.0,0.0,0.0,0.0,0.0,0.0,0.0,0.0,0.0,0.0,0.0,0.0,0.0,0.0,0.0,0.0,0.0,0.0,0.0,0.0,0.0,0.0,0.0,0.0,0.0,0.0,0.0,0.0,0.0,0.0,0.0,1.1958,1.3962,0.0,0.0,0.0,0.0,0.0,0.0,0.0,0.0,1.6696,0.0,0.0,0.0,0.0,0.0,0.0,0.0,0.0,0.0,0.0,0.0,0.0,0.0,0.0,0.0,0.0,0.0,0.0,0.0,0.0,0.0,0.0,0.0,0.0,0.0,0.0,0.0,0.0,0.0,0.0,0.0,0.0,0.0,0.0,0.0,0.0,0.0,0.0,0.0,0.0,0.0,0.0,0.0,0.0,0.0,0.0,0.0,0.0,0.0,0.0,0.0,0.0,0.0,0.0,0.0,0.0,1.898,2.0328,2.2209,2.4664,2.5058,2.5164,2.5039,2.383,2.217,2.007,0.0,0.0,0.0,0.0,0.0,0.0,0.0,0.0,0.0,0.0,0.0,0.0,0.0,0.0,0.0,0.0,0.0,0.0,0.0,0.0,0.0,0.0,0.0,0.0,0.0,0.0,0.0,0.0,0.0,0.0,0.0,0.0,0.0,0.0,0.0,0.0,0.0,0.0,0.0,1.6592,1.7669,0.0,0.0,0.0,0.0,0.0,0.0,0.0,0.0,1.7093,0.0,0.0,0.0,0.0,0.0,0.0,0.0,0.0,0.0,0.0,0.0,0.0,0.0,0.0,0.0,0.0,0.0,0.0,0.0,0.0,0.0,0.0,0.0,0.0,0.0,0.0,0.0,0.0,0.0,0.0,0.0,0.0,0.0,0.0,0.0,0.0,0.0,0.0,0.0,0.0,0.0,0.0,0.0,0.0,0.0,0.0,0.0,0.0,0.0,0.0,0.0,0.0,0.0,0.0,0.0,1.9101,2.0999,2.2852,2.4664,2.5063,2.5236,2.5127,2.3103,2.1405,0.0,0.0,0.0,0.0,0.0,0.0,0.0,0.0,0.0,0.0,0.0,0.0,0.0,0.0,0.0,0.0,0.0,0.0,0.0,0.0,0.0,0.0,0.0,0.0,0.0,0.0,0.0,0.0,0.0,0.0,0.0,0.0,0.0,0.0,0.0,0.0,0.0,0.0,0.0,0.0,1.7595,1.8539,1.9177,0.0,0.0,0.0,0.0,0.0,0.0,1.8112,1.7461,0.0,0.0,0.0,0.0,0.0,0.0,0.0,0.0,0.0,0.0,0.0,0.0,0.0,0.0,0.0,0.0,0.0,0.0,0.0,0.0,0.0,0.0,0.0,0.0,0.0,0.0,0.0,0.0,0.0,0.0,0.0,0.0,0.0,0.0,0.0,0.0,0.0,0.0,0.0,0.0,0.0,0.0,0.0,0.0,0.0,0.0,0.0,0.0,0.0,0.0,0.0,0.0,0.0,0.0,0.0,1.9064,2.1314,2.3197,2.4709,2.501,2.5209,2.5384,2.2749,2.0861,0.0,0.0,0.0,0.0,0.0,0.0,0.0,0.0,0.0,0.0,0.0,0.0,0.0,0.0,0.0,0.0,0.0,0.0,0.0,0.0,0.0,0.0,0.0,0.0,0.0,0.0,0.0,0.0,0.0,0.0,0.0,0.0,0.0,0.0,0.0,0.0,0.0,0.0,0.0,0.0,0.0,1.972,2.0765,2.0369,0.0,0.0,0.0,0.0,2.0732,1.961,0.0,0.0,0.0,0.0,0.0,0.0,0.0,0.0,0.0,0.0,0.0,0.0,0.0,0.0,0.0,0.0,0.0,0.0,0.0,0.0,0.0,0.0,0.0,0.0,0.0,0.0,0.0,0.0,0.0,0.0,0.0,0.0,0.0,0.0,0.0,0.0,0.0,0.0,0.0,0.0,0.0,0.0,0.0,0.0,0.0,0.0,0.0,0.0,0.0,0.0,0.0,0.0,0.0,0.0,0.0,0.0,1.9685,2.0758,2.2602,2.5304,2.5254,2.5258,2.5551,2.3956,2.2133,0.0,0.0,0.0,0.0,0.0,0.0,0.0,0.0,0.0,0.0,0.0,0.0,0.0,0.0,0.0,0.0,0.0,0.0,0.0,0.0,0.0,0.0,0.0,0.0,0.0,0.0,0.0,0.0,0.0,0.0,0.0,0.0,0.0,0.0,0.0,0.0,0.0,0.0,0.0,0.0,0.0,2.2399,2.2456,2.1832,2.154,0.0,0.0,2.1504,2.2324,2.2503,0.0,0.0,0.0,0.0,0.0,0.0,0.0,0.0,0.0,0.0,0.0,0.0,0.0,0.0,0.0,0.0,0.0,0.0,0.0,0.0,0.0,0.0,0.0,0.0,0.0,0.0,0.0,0.0,0.0,0.0,0.0,0.0,0.0,0.0,0.0,0.0,0.0,0.0,0.0,0.0,0.0,0.0,0.0,0.0,0.0,0.0,0.0,0.0,0.0,0.0,0.0,0.0,0.0,0.0,0.0,1.6044,1.9734,2.1252,2.2881,2.47,2.4407,2.4655,2.557,2.3026,2.1001,0.0,0.0,0.0,0.0,0.0,0.0,0.0,0.0,0.0,0.0,0.0,0.0,0.0,0.0,0.0,0.0,0.0,0.0,0.0,0.0,0.0,0.0,0.0,0.0,0.0,0.0,0.0,0.0,0.0,0.0,0.0,0.0,0.0,0.0,0.0,0.0,0.0,0.0,0.0,0.0,0.0,0.0,2.339,2.3522,0.0,0.0,0.0,2.306,2.339,0.0,0.0,0.0,0.0,0.0,0.0,0.0,0.0,0.0,0.0,0.0,0.0,0.0,0.0,0.0,0.0,0.0,0.0,0.0,0.0,0.0,0.0,0.0,0.0,0.0,0.0,0.0,0.0,0.0,0.0,0.0,0.0,0.0,0.0,0.0,0.0,0.0,0.0,0.0,0.0,0.0,0.0,0.0,0.0,0.0,0.0,0.0,0.0,0.0,0.0,0.0,0.0,0.0,0.0,0.0,0.0,0.0,2.0159,2.1975,2.3496,2.4632,2.4191,2.4489,2.5635,2.2639,0.0,0.0,0.0,0.0,0.0,0.0,0.0,0.0,0.0,0.0,0.0,0.0,0.0,0.0,0.0,0.0,0.0,0.0,0.0,0.0,0.0,0.0,0.0,0.0,0.0,0.0,0.0,0.9478,0.0,0.0,0.0,0.0,0.0,0.0,0.0,0.0,0.0,0.0,0.0,0.0,0.0,0.0,2.3702,2.4464,2.5176,2.5524,0.0,0.0,2.4613,2.4795,2.3735,2.2542,0.0,0.0,0.0,0.0,0.0,0.0,0.0,0.0,0.0,0.0,0.0,0.0,0.0,0.0,0.0,0.0,0.0,0.0,0.0,0.0,0.0,0.0,0.0,0.0,0.0,0.0,0.0,0.0,0.0,0.0,0.0,0.0,0.0,0.0,0.0,0.0,0.0,0.0,0.0,0.0,0.0,0.0,0.0,0.0,0.0,0.0,0.0,0.0,0.0,0.0,0.0,0.0,0.0,0.0,0.0,2.1508,2.2834,2.4286,2.5965,2.5371,2.5354,2.6083,2.3935,2.169,0.0,0.0,0.0,0.0,0.0,0.0,0.0,0.0,0.0,0.0,0.0,0.0,0.0,0.0,0.0,0.0,0.0,0.0,0.0,0.0,0.0,0.0,0.0,0.0,0.0,0.0,0.0,0.0,0.0,0.0,0.0,0.0,0.0,0.0,0.0,0.0,0.0,0.0,0.0,0.0,0.0,2.5226,2.5937,2.6702,2.7365,0.0,0.0,2.6286,2.6967,2.6402,2.5209,2.3089,0.0,0.0,0.0,0.0,0.0,0.0,0.0,0.0,0.0,0.0,0.0,0.0,0.0,0.0,0.0,0.0,0.0,0.0,0.0,0.0,0.0,0.0,0.0,0.0,0.0,0.0,0.0,0.0,0.0,0.0,0.0,0.0,0.0,0.0,0.0,0.0,0.0,0.0,0.0,0.0,0.0,0.0,0.0,0.0,0.0,0.0,0.0,0.0,0.0,0.0,0.0,0.0,0.0,1.7811,2.0596,2.2945,2.4582,2.5456,2.4984,2.5197,2.6169,2.4067,2.2263,0.0,0.0,0.0,0.0,0.0,0.0,0.0,0.0,0.0,0.0,0.0,0.0,0.0,0.0,0.0,0.0,0.0,0.0,0.0,0.0,0.0,0.0,0.0,0.0,0.0,0.0,0.0,0.0,1.3856,1.4463,1.4453,0.0,0.0,0.0,0.0,0.0,0.0,0.0,0.0,0.0,0.0,2.7379,2.8092,2.8804,0.0,0.0,2.8191,2.7497,2.7334,2.6286,2.4911,2.3189,2.1663,0.0,0.0,0.0,0.0,0.0,0.0,0.0,0.0,0.0,0.0,0.0,0.0,0.0,0.0,0.0,0.0,0.0,0.0,0.0,0.0,0.0,0.0,0.0,0.0,0.0,0.0,0.0,0.0,0.0,0.0,0.0,0.0,0.0,0.0,0.0,0.0,0.0,0.0,0.0,0.0,0.0,0.0,0.0,0.0,0.0,0.0,0.0,0.0,0.0,0.0,0.0,0.0,1.868,2.1116,2.3696,2.5376,2.6087,2.5376,2.5489,2.6435,2.4381,2.2775,0.0,0.0,0.0,0.0,0.0,0.0,0.0,0.0,0.0,0.0,0.0,0.0,0.0,0.0,0.0,0.0,0.0,0.0,0.0,0.0,0.0,0.0,0.0,0.0,0.0,0.0,0.0,0.0,1.4984,1.5209,1.501,0.0,0.0,0.0,0.0,0.0,0.0,0.0,0.0,0.0,0.0,2.9185,2.9645,3.0357,3.0572,2.9827,2.9152,2.8459,2.7729,2.6934,2.5822,2.4166,0.0,0.0,0.0,0.0,0.0,0.0,0.0,0.0,0.0,0.0,0.0,0.0,0.0,0.0,0.0,0.0,0.0,0.0,0.0,0.0,0.0,0.0,0.0,0.0,0.0,0.0,0.0,1.2246,0.0,0.0,1.1037,0.0,0.0,0.0,0.0,0.0,0.0,0.0,0.0,0.0,0.0,0.0,0.0,0.0,0.0,0.0,0.0,0.0,0.0,0.0,0.0,0.0,0.0,1.9614,2.3819,2.534,2.6848,2.8194,2.6932,2.6516,2.7184,2.5127,2.3288,2.1812,0.0,0.0,0.0,0.0,0.0,0.0,0.0,0.0,0.0,0.0,0.0,0.0,0.0,0.0,0.0,0.0,0.0,0.0,0.0,0.0,0.0,0.0,0.0,0.0,0.0,0.0,1.5137,1.5309,1.506,0.0,0.0,0.0,0.0,0.0,0.0,0.0,0.0,0.0,0.0,2.8652,3.0472,3.0506,3.1118,3.1366,3.0638,2.9877,2.9168,2.8525,2.887,2.8605,0.0,0.0,0.0,0.0,0.0,0.0,0.0,0.0,0.0,0.0,0.0,0.0,0.0,0.0,0.0,0.0,0.0,0.0,0.0,0.0,0.0,0.0,0.0,0.0,0.0,0.0,0.0,1.6654,1.5856,0.0,0.0,0.0,0.0,0.0,0.0,0.0,0.0,0.0,0.0,0.0,2.3242,2.3508,0.0,0.0,0.0,0.0,0.0,0.0,0.0,0.0,0.0,0.0,0.0,0.0,2.0847,2.3299,2.5709,2.7415,2.8343,2.7928,2.7547,2.7298,2.6104,2.4083,2.1166,0.0,0.0,0.0,0.0,0.0,0.0,0.0,0.0,0.0,0.0,0.0,0.0,0.0,0.0,0.0,0.0,0.0,0.0,0.0,0.0,0.0,0.0,0.0,0.0,0.0,1.5491,0.0,0.0,0.0,0.0,0.0,0.0,0.0,0.0,0.0,0.0,0.0,2.6453,2.8105,3.0427,3.1951,3.1967,3.258,3.2978,0.0,0.0,0.0,0.0,0.0,0.0,0.0,0.0,0.0,0.0,0.0,0.0,0.0,0.0,3.1601,2.6789,2.5078,2.4497,2.4746,0.0,0.0,0.0,0.0,0.0,0.0,0.0,0.0,0.0,0.0,0.0,0.0,0.0,0.0,2.0094,0.0,1.8313,0.0,0.0,0.0,0.0,0.0,0.0,0.0,0.0,2.4577,2.6015,2.7096,2.7366,2.7163,0.0,2.5378,2.2612,0.0,0.0,0.0,0.0,0.0,0.0,0.0,0.0,2.2471,2.4484,2.6829,2.8373,2.9069,2.889,2.8506,2.8028,2.6849,2.4944,2.2294,2.1284,2.0091,0.0,0.0,0.0,0.0,0.0,0.0,0.0,0.0,0.0,0.0,0.0,0.0,0.0,0.0,0.0,0.0,0.0,0.0,0.0,0.0,0.0,0.0,0.0,1.709,0.0,0.0,0.0,0.0,0.0,0.0,0.0,0.0,0.0,2.4514,2.6984,2.9417,3.1106,3.2547,3.3458,3.3458,0.0,0.0,0.0,0.0,0.0,0.0,0.0,3.1007,3.0957,3.0808,3.0742,3.0886,3.3143,3.47,3.3922,0.0,0.0,3.0874,2.9367,2.8936,2.9185,2.9003,2.8956,2.9453,2.9815,3.0083,0.0,0.0,0.0,0.0,0.0,0.0,0.0,0.0,2.3241,2.3359,0.0,2.2307,0.0,0.0,0.0,0.0,0.0,2.3885,0.0,0.0,2.9397,3.0835,3.026,3.0886,3.0425,2.9033,2.957,2.8019,2.4406,2.0177,0.0,0.0,0.0,0.0,0.0,0.0,2.4398,2.7179,2.8635,2.9728,3.0423,2.9794,2.9413,2.9314,2.7346,2.5889,2.5093,2.3702,2.2293,2.0801,1.8667,0.0,0.0,0.0,0.0,0.0,0.0,0.0,0.0,0.0,0.0,0.0,0.0,0.0,0.0,0.0,0.0,0.0,0.0,0.0,0.0,1.7905,0.0,0.0,0.0,0.0,0.0,0.0,0.0,0.0,0.0,0.0,2.7966,3.0029,3.2508,3.4601,0.0,0.0,0.0,0.0,3.4717,3.4038,3.4502,3.4717,3.4021,3.5015,3.5396,3.4087,0.0,0.0,3.4319,3.5744,3.6473,3.4402,3.586,3.7168,3.7052,3.5131,3.4005,3.4584,3.3121,3.2343,3.3491,3.3707,3.3773,2.9534,0.0,0.0,0.0,0.0,2.73,2.8214,2.9958,2.8501,2.7807,2.7588,2.5895,0.0,0.0,0.0,0.0,0.0,0.0,2.8027,2.9617,3.0736,3.163,3.2455,3.2679,3.2523,3.208,3.1776,3.0779,2.919,2.7364,2.3869,1.8981,0.0,0.0,0.0,0.0,2.5535,2.7584,2.8801,2.9761,3.0472,3.029,2.9926,2.9433,2.7827,2.6634,2.5905,2.4978,2.3785,2.2311,2.0655,0.0,0.0,0.0,0.0,0.0,0.0,0.0,0.0,0.0,0.0,0.0,0.0,0.0,0.0,0.0,0.0,0.0,0.0,0.0,1.8526,1.9694,2.0434,0.0,0.0,0.0,0.0,0.0,0.0,0.0,0.0,0.0,3.3606,3.4349,3.5084,0.0,0.0,3.629,3.576,3.6141,3.6406,3.6174,3.634,0.0,3.6191,3.5611,3.5429,3.6042,3.7135,3.7847,3.7757,3.8254,3.847,3.7765,3.8238,3.8659,3.8586,3.7317,3.6307,3.6373,3.5943,3.5661,3.6059,3.6141,3.6158,3.4793,3.2446,3.1261,3.1173,3.1782,3.1379,3.2087,3.3491,3.2053,3.1495,3.1495,2.9738,2.818,2.6894,2.6319,0.0,0.0,0.0,3.0632,3.251,3.251,3.3136,3.4235,3.4286,3.4117,3.3812,3.3085,3.2341,3.1633,3.1151,2.8544,2.4021,0.0,0.0,2.3868,2.5625,2.7201,2.855,2.9463,3.014,3.0572,3.0526,3.0141,2.9397,2.8326,2.7381,2.6667,2.5938,2.4994,2.3818,2.2673,2.1045,0.0,0.0,0.0,0.0,0.0,0.0,0.0,0.0,0.0,0.0,0.0,1.3242,1.1332,0.0,0.0,0.0,1.7517,1.977,2.1333,2.3085,0.0,0.0,0.0,0.0,0.0,0.0,0.0,3.2428,3.4605,3.6306,3.7133,3.7501,3.7611,3.7486,3.7261,3.7078,3.6962,0.0,3.7549,3.7533,3.7781,3.7963,3.7947,3.7218,3.6936,3.7814,3.8311,3.8742,3.9199,3.9315,3.9315,3.9315,3.9315,3.9315,3.9315,3.8543,3.7963,3.7963,3.798,3.7963,3.7963,3.798,3.7963,3.8684,3.7855,3.5081,3.4252,3.4759,3.4759,3.5148,3.5667,3.4332,3.4506,3.5537,3.3541,3.2632,3.2479,3.1207,0.0,3.1664,3.2412,3.3495,3.4742,3.4709,3.5047,3.5667,3.5616,3.525,3.4556,3.3897,3.322,3.2598,3.2581,3.183,3.0347,2.8874,2.8047,2.7911,2.8596,2.9317,3.0068,3.0553,3.0758,3.0692,3.0551,3.0141,2.9413,2.8738,2.8028,2.735,2.6601,2.5871,2.5227,2.4514,2.3149,2.1069,0.0,0.0,0.0,0.0,0.0,0.0,0.0,0.0,0.0,0.0,0.0,0.0,0.0,0.0,0.0,2.1501,0.0,2.4674,2.7296,0.0,0.0,0.0,3.0216,3.0437,3.2832,3.4802,3.5666,0.0,0.0,3.8908,3.9497,3.9875,3.9755,3.8319,3.7593,3.8385,3.8365,3.8295,3.8295,3.8841,3.9282,3.9149,3.91,3.9067,3.9149,3.9315,3.9282,3.9299,3.9315,3.9315,3.9315,3.9315,3.9315,3.9315,3.9249,3.9299,3.9232,3.9249,3.9265,3.9199,3.9183,3.9166,3.974,3.9495,3.8809,3.7939,3.7094,3.7094,3.7195,3.7307,3.6992,3.6705,3.6491,3.5966,3.5385,3.4827,3.5081,3.5323,3.5509,3.6231,3.6755,3.706,3.6524,3.6355,3.6485,3.5893,3.5498,3.5329,3.5143,3.4974,3.4805,3.4827,3.4332,3.3453,3.3043,3.1948,3.0224,3.0845,3.1541,3.2155,3.1762,3.1216,3.0564,3.0526,3.0141,2.9413,2.8738,2.8082,2.7391,2.662,2.6156,2.5977,2.4797,2.3598,2.2515,1.9927,0.0,0.0,0.0,0.0,0.0,0.0,0.0,0.0,0.0,1.9824,1.6084,0.0,2.2158,0.0,2.4868,2.7214,2.8385,2.9248,0.0,0.0,3.2522,3.3311,3.569,3.6481,3.7158,3.7932,3.9058,3.9741,3.9648,3.9783,3.9926,3.9969,3.9479,3.9122,3.9228,3.9208,3.9156,3.9076,3.9183,3.9315,3.9315,3.9315,3.9315,3.9315,3.9315,3.9315,3.9315,3.9315,3.9315,3.9315,3.9315,3.9315,3.9315,3.9315,3.9315,3.9315,3.9315,3.9315,3.9315,3.9315,3.9315,4.0113,4.0113,4.0113,3.9622,3.8886,3.8886,3.887,3.8853,3.8531,3.8159,3.776,3.7432,3.7026,3.6688,3.7094,3.7303,3.7313,3.7719,3.7898,3.7889,3.7483,3.7303,3.7246,3.6502,3.6129,3.6129,3.5769,3.5616,3.5616,3.5616,3.538,3.4974,3.4996,3.4322,3.3035,3.2749,3.2795,3.3113,3.2701,3.2026,3.1225,3.117,3.0634,2.953,2.8874,2.8177,2.7428,2.6694,2.6161,2.5796,2.513,2.436,2.3561,2.1795,2.0458,0.0,0.0,0.0,0.0,0.0,0.0,0.0,0.0,0.0,0.0,0.0,2.507,2.5713,2.882,3.1081,3.1773,3.3132,3.4542,3.5808,3.6116,3.6791,3.8261,3.8601,3.8931,3.9345,3.9809,4.0087,3.9986,3.9986,4.0011,4.0096,3.9969,3.9833,3.9694,3.958,3.9484,3.9484,3.9432,3.9405,3.9484,3.9432,3.9395,3.9379,3.9352,3.9315,3.9315,3.9315,3.9315,3.9315,3.9315,3.9315,3.9315,3.9315,3.9315,3.9315,3.9315,3.9315,3.9315,3.9315,3.9315,4.0197,4.0113,4.0113,4.0113,4.0113,4.0113,4.0113,4.0062,3.9411,3.9148,3.9131,3.8464,3.8193,3.8176,3.8193,3.8193,3.8176,3.8176,3.8193,3.8176,3.8091,3.8041,3.7983,3.7286,3.6948,3.6914,3.6231,3.5819,3.5752,3.5752,3.5684,3.5616,3.5616,3.5616,3.5549,3.4315,3.3622,3.3537,3.3448,3.2988,3.2144,3.2043,3.1232,2.9679,2.9008,2.8258,2.7331,2.6868,2.63,2.5581,2.5698,2.5429,2.4677,2.4045,2.3378,0.0,2.2093,0.0,0.0,0.0,0.0,0.0,0.0,0.0,0.0,2.7571,2.8348,2.9574,3.2857,3.4957,3.4997,3.7425,3.8768,3.8294,3.9334,3.9859,3.9242,3.9706,4.0113,4.0113,4.0113,4.0113,4.0096,4.0113,4.0113,4.0113,4.007,4.0037,3.991,3.972,3.959,3.9703,3.9616,3.9563,3.9625,3.959,3.9501,3.9458,3.9395,3.9315,3.9315,3.9315,3.9315,3.9315,3.9315,3.9315,3.9315,3.9315,3.9315,3.9315,3.9315,3.9315,3.9315,3.9315,3.9315,4.0629,4.0113,4.0113,4.0113,4.0113,4.0113,4.0113,4.0096,3.996,3.991,3.9893,3.9757,3.969,3.969,3.969,3.9706,3.969,3.969,3.9665,3.969,3.9073,3.8785,3.8734,3.8041,3.7702,3.7686,3.755,3.7161,3.6575,3.6592,3.6248,3.5616,3.5616,3.5616,3.56,0.0,0.0,0.0,3.4096,3.3617,3.2755,3.2235,3.1249,2.9659,2.9006,0.0,2.684,2.7174,2.7342,2.7244,2.7262,0.0,0.0,0.0,0.0,0.0,0.0,0.0,0.0,0.0,0.0,0.0,3.0835,2.9989,2.9582,3.2205,3.4027,3.4327,3.6107,3.7499,3.8091,3.8633,3.9191,3.9656,3.9943,4.0045,3.9926,4.0045,4.0113,4.0113,4.0113,4.0113,4.0163,4.0113,4.0113,4.0146,4.0113,4.0087,4.0062,3.9926,3.9798,3.9729,3.9677,3.9677,3.9703,3.959,3.9528,3.9475,3.9379,3.9299,3.9325,3.9299,3.9315,3.9315,3.9315,3.9315,3.9315,3.9315,3.9315,3.9315,3.9315,3.9315,3.9315,3.9315,3.9315,4.1305,4.0629,4.0629,4.0426,0.0,4.0113,4.0113,4.0113,4.0113,4.0113,4.0113,4.0113,4.0113,4.0113,4.0113,4.0113,4.0113,4.0113,4.0113,4.0096,3.9723,3.9529,3.9537,3.8785,3.8447,3.843,3.8051,3.7719,3.7364,3.733,3.6941,3.6214,3.6197,3.5994,3.5616,3.5616,3.5391,3.4992,3.4931,3.451,3.3727,3.3383,3.2286,3.0389,3.0068,0.0,0.0,0.0,0.0,0.0,0.0,0.0,0.0,0.0,0.0,2.9308,2.9374,2.9863,3.1016,3.2148,3.3453,3.4945,3.5385,3.4793,3.2983,3.5549,3.728,3.7297,3.8328,3.9123,3.9503,3.9571,3.9706,4.0045,4.0113,4.0231,4.0561,4.0629,4.0807,4.1145,4.1213,4.1196,4.117,4.0857,4.0646,4.0595,4.0316,4.013,4.007,3.9986,3.9875,3.9824,3.9858,3.991,3.9884,3.9781,3.9694,3.9711,3.959,3.9494,3.9511,3.9415,3.9405,3.9395,3.9369,3.9315,3.9315,3.9315,3.9315,3.9315,3.9315,3.9315,3.9315,3.9315,3.9315,4.2066,4.1407,4.139,4.0984,4.0299,4.0316,4.0231,4.0113,0.0,0.0,0.0,4.0113,4.0113,4.0113,4.0113,4.0113,4.0113,4.0113,4.0113,4.0113,4.0113,4.0113,4.0079,3.9486,3.9174,3.9157,3.8565,3.8227,3.8108,3.8091,3.7719,3.7066,3.7015,3.6586,3.5836,3.5667,3.5616,3.5616,3.5616,3.5312,3.4704,3.4573,3.3499,3.1439,3.1388,3.0712,2.9284,2.9445,2.9261,2.8578,2.931,2.9785,2.9827,3.0492,3.1816,3.3812,3.3998,3.4568,3.5904,3.6738,3.7252,3.7371,3.8505,3.8396,3.6495,3.8108,3.9191,3.9174,3.9757,4.0096,4.0113,4.0113,4.0146,4.0282,4.0299,4.0595,4.1271,4.139,4.161,4.2168,4.2219,4.2286,4.2202,4.1762,4.139,4.1322,4.0959,4.0502,4.0426,4.0214,3.9935,3.9935,4.0011,4.0087,4.0087,3.9961,3.9884,3.9858,3.9755,3.9703,3.9677,3.9616,3.9554,3.9501,3.9422,3.9342,3.9315,3.9315,3.9315,3.9315,3.9315,3.9315,3.9315,3.9315,3.9315,4.2828,4.2134,4.2134,4.1728,4.1052,4.1035,4.0679,4.0113,4.0113,4.0113,4.0113,4.0113,4.0113,4.0113,4.0113,4.0113,4.0113,4.0113,4.0113,4.0113,4.0113,4.0113,4.0113,3.9994,3.996,3.9943,3.9842,3.9469,3.8903,3.8836,3.8464,3.7821,3.7753,3.7364,3.666,3.5943,3.5616,3.5616,3.5616,3.5504,3.5369,3.48,3.3968,3.2951,3.2418,3.1749,3.0917,3.1481,3.1765,3.1681,3.2374,3.3068,3.366,3.3795,3.4607,3.6169,3.6321,3.6688,3.7533,3.8278,3.8954,3.9571,3.9842,3.9791,3.9537,3.9757,3.996,3.996,4.0045,4.0113,4.0113,4.013,4.04,4.0933,4.1052,4.1339,4.2033,4.2134,4.2202,4.2388,4.2303,4.2337,4.2422,4.2252,4.2151,4.2117,4.188,4.1897,4.166,4.0882,4.0172,4.0087,4.0087,4.0113,4.0087,3.9986,3.991,3.9884,3.9781,3.9729,3.9729,3.9703,3.9642,3.9528,3.9501,3.9448,3.9402,3.9315,3.9398,3.9458,3.9481,3.9431,3.9415,3.9365,3.9315,4.3606,4.2929,4.2912,4.2472,4.1762,4.1373,4.1018,4.0646,4.0282,4.0113,4.0113,4.0113,4.0113,4.0113,4.0113,4.0113,4.0113,4.0113,4.0113,4.0113,4.0113,4.0113,4.0113,4.0113,4.0113,4.0113,4.0113,3.9926,3.9639,3.9605,3.9233,3.8514,3.8108,3.7736,3.7381,3.7043,3.6834,3.684,3.6022,3.5577,3.5549,3.5239,3.4704,3.3912,3.3622,3.3136,3.2425,3.2713,3.3089,3.3457,3.4201,3.4962,3.5673,3.6113,3.684,3.7889,3.7997,3.8294,3.9039,3.9402,3.9757,4.0079,4.0113,4.0113,4.0113,4.0113,4.0113,4.0113,4.0113,4.0282,4.0629,4.0696,4.0984,4.1711,4.1796,4.21,4.276,4.2912,4.3047,4.3464,4.3548,4.3548,4.3565,4.3166,4.2895,4.2861,4.2608,4.232,4.232,4.1788,4.1145,4.0781,4.0696,4.0493,4.0214,4.0045,3.9995,4.0011,3.9944,3.9918,3.991,3.9875,3.9815,3.972,3.9668,3.9757,3.9977,4.0057,4.018,4.0535,4.0486,4.0359,4.0028,3.9613,3.9315,4.4259,4.369,4.3673,4.325,4.2489,4.1762,4.1356,4.1153,4.0578,4.0265,4.0113,4.0113,4.0113,4.0113,4.0113,4.0113,4.0113,4.0113,4.0113,4.0113,4.0113,4.0113,4.0113,4.0113,4.0113,4.0113,4.0113,4.0113,4.0113,4.0113,3.9825,3.9208,3.8514,3.8159,3.8142,3.799,3.7898,3.7814,3.6698,3.6045,3.587,3.5684,3.5402,3.5047,3.5035,3.481,3.4438,3.4421,3.4675,3.5233,3.5825,3.6485,3.7246,3.7821,3.8481,3.9165,3.9225,3.952,4.0028,4.0113,4.0113,4.0113,4.0113,4.0113,4.0113,4.0113,4.0113,4.0113,4.0282,4.0612,4.1085,4.1373,4.1728,4.2439,4.254,4.2878,4.3538,4.3646,4.3876,4.4496,4.4598,4.4564,4.4496,4.4045,4.369,4.3589,4.3166,4.2828,4.2794,4.2838,4.2506,4.1897,4.1576,4.1288,4.0705,4.0654,4.0646,4.0587,4.0612,4.0713,4.0671,4.0569,4.0474,4.0481,4.0378,4.0534,4.0933,4.0969,4.1115,4.1472,4.1466,4.1272,4.0796,4.0304,3.9862,4.4547,4.4496,4.4462,4.4028,4.325,4.2506,4.1847,4.1288,4.1136,4.0696,4.018,4.0113,4.0113,4.0113,4.0113,4.0113,4.0113,4.0113,4.0113,4.0113,4.0113,4.0113,4.0113,4.0113,4.0113,4.0113,4.0113,4.0113,4.0113,4.0113,4.0079,3.9926,3.9283,3.8886,3.8836,3.8278,3.7939,3.7898,3.777,3.7364,3.6694,3.5977,3.5926,3.6592,3.6575,3.6897,3.728,3.7499,3.7516,3.7584,3.7635,3.8024,3.8684,3.8853,3.9208,3.9926,3.9994,4.0062,4.0096,4.0113,4.0113,4.0113,4.0113,4.0113,4.0113,4.0113,4.0113,4.0231,4.0713,4.1085,4.1255,4.1813,4.2489,4.3217,4.3318,4.3623,4.4248,4.4496,4.453,4.4564,4.4598,4.4598,4.4581,4.4462,4.4445,4.4361,4.4198,4.4107,4.4124,4.4141,4.391,4.3234,4.2658,4.2202,4.2008,4.2066,4.188,4.1948,4.2033,4.1914,4.183,4.188,4.1996,4.1519,4.1718,4.1698,4.1795,4.1797,4.1804,4.2088,4.2077,4.1832,4.1594,4.1288,4.1105,4.4598,4.4598,4.4598,4.4429,4.4012,4.3284,4.2794,4.2489,4.2033,4.1441,4.0781,4.0747,4.051,4.0113,4.0113,4.0113,4.0113,4.0113,4.0113,4.0113,4.0113,4.0113,4.0113,4.0113,4.0113,4.0113,4.0113,4.0113,4.0113,4.0113,4.0113,4.0079,3.9774,3.9656,3.9614,3.9343,3.9191,3.9199,3.8768,3.8396,3.8082,3.7347,3.711,3.7398,3.7449,3.7567,3.7872,3.7898,3.8108,3.8497,3.8548,3.8886,3.9622,3.9656,3.9774,4.0079,4.0113,4.0113,4.0113,4.0113,4.0113,4.0113,4.0113,4.0113,4.013,4.0476,4.0747,4.0798,4.1018,4.1525,4.2354,4.2767,4.3267,4.3944,4.4113,4.4231,4.4547,4.4598,4.4598,4.4598,4.4598,4.4598,4.4598,4.4598,4.4598,4.4598,4.4598,4.4598,4.4598,4.4598,4.4479,4.4164,4.3809,4.3234,4.2591,4.2303,4.232,4.232,4.2303,4.2303,4.2371,4.2303,4.226,4.2257,4.2341,4.2517,4.276,4.2751,4.2746,4.2948,4.2797,4.2641,4.3036,4.2294,4.2009,4.4919,4.4886,4.4699,4.4598,4.4547,4.3978,4.3606,4.3341,4.2844,4.2185,4.1525,4.1305,4.0899,4.0434,4.0197,4.0113,4.0113,4.0113,4.0113,4.0113,4.0113,4.0113,4.0113,4.0113,4.0113,4.0113,4.0113,4.0113,4.0113,4.0113,4.0113,4.0113,4.0113,4.0113,4.0113,4.0113,4.0113,4.0045,3.9546,3.9292,3.9233,3.8768,3.8413,3.8227,3.821,3.8294,3.8481,3.8497,3.8734,3.9259,3.9292,3.9554,4.0045,4.0113,4.0113,4.0113,4.0113,4.0113,4.0113,4.0113,4.0113,4.0113,4.0265,4.0417,4.0536,4.1068,4.1576,4.1813,4.1786,4.2354,4.3166,4.3578,4.3995,4.453,4.4598,4.4598,4.4598,4.4598,4.4598,4.4598,4.4598,4.4598,4.4598,4.4598,4.4598,4.4598,4.4598,4.4598,4.4598,4.4598,4.4581,4.4598,4.4581,4.4158,4.3159,4.3031,4.2912,4.2912,4.3031,4.3064,4.2929,4.2946,4.2946,4.3325,4.3047,4.3064,4.3517,4.3636,4.3608,4.4002,4.3833,4.3479,4.3853,4.3019,4.2951,4.5652,4.5551,4.4902,4.4598,4.4581,4.453,4.4096,4.3487,4.3358,4.2946,4.2219,4.1576,4.1221,4.1102,4.046,4.0113,4.0113,4.0113,4.0113,4.0113,4.0113,4.0113,4.0113,4.0113,4.0113,4.0113,4.0113,4.0113,4.0113,4.0113,4.0113,4.0113,4.0113,4.0113,4.0113,4.0113,4.0113,4.0096,4.0011,4.0011,4.0011,3.9977,3.9588,3.9005,3.8937,3.9242,3.9842,3.9977,4.0011,4.0045,4.0011,4.0062,4.0113,4.0113,4.0113,4.0113,4.0113,4.0113,4.0113,4.0113,4.013,4.0231,4.073,4.1136,4.1187,4.1813,4.2472,4.3172,4.3156,4.3352,4.3538,4.4045,4.4462,4.4564,4.4598,4.4598,4.4598,4.4598,4.4598,4.4598,4.4598,4.4598,4.4598,4.4598,4.4598,4.4598,4.4598,4.4598,4.4598,4.4598,4.4598,4.4598,4.4598,4.4547,4.4479,4.4141,4.4242,4.4192,4.4005,4.431,4.4462,4.4513,4.4429,4.4361,4.4192,4.4192,4.4445,4.4485,4.439,4.4463,4.4361,4.4259,4.4293,4.4167,4.4013,4.6126,4.5652,4.4874,4.4598,4.4598,4.4598,4.4445,4.4164,4.4164,4.3724,4.3064,4.2726,4.2354,4.1847,4.1119,4.0527,4.013,4.0113,4.0113,4.0113,4.0113,4.0113,4.0113,4.0113,4.0113,4.0113,4.0113,4.0113,4.0113,4.0113,4.0113,4.0113,4.0113,4.0113,4.0113,4.0113,4.0113,4.0113,4.0113,4.0113,4.0113,4.0113,3.996,3.974,3.9681,3.9825,4.0096,4.0113,4.0113,4.0113,4.0113,4.0113,4.0113,4.0113,4.0113,4.0113,4.0113,4.0113,4.0113,4.0113,4.0307,4.0764,4.1018,4.1474,4.1897,4.2557,4.3105,4.3409,4.391,4.413,4.4198,4.4434,4.4598,4.4598,4.4598,4.4598,4.4598,4.4598,4.4598,4.4598,4.4598,4.4598,4.4598,4.4598,4.4598,4.4598,4.4598,4.4598,4.4598,4.4598,4.4598,4.4598,4.4598,4.4598,4.4598,4.4581,4.4581,4.4581,4.4547,4.4496,4.4581,4.4598,4.4496,4.4479,4.4581,4.4598,4.4564,4.4564,4.4598,4.457,4.4468,4.4468,4.4485,4.4327,4.4253,4.6735,4.5991,4.5263,4.497,4.4908,4.4699,4.4598,4.4598,4.4598,4.431,4.3809,4.3511,4.3115,4.2591,4.188,4.1305,4.0773,4.035,4.0113,4.0113,4.0113,4.0113,4.0113,4.0113,4.0113,4.0113,4.0113,4.0113,4.0113,4.0113,4.0113,4.0113,4.0113,4.0113,4.0113,4.0113,4.0113,4.0113,4.0113,4.0113,4.0113,4.0113,4.0113,4.0096,4.0113,4.0113,4.0113,4.0113,4.0113,4.0113,4.0113,4.0113,4.0113,4.0113,4.0113,4.0113,4.0113,4.0113,4.0146,4.0333,4.0679,4.1187,4.1677,4.2151,4.2658,4.3352,4.3741,4.3927,4.4215,4.4598,4.4598,4.4598,4.4598,4.4598,4.4598,4.4598,4.4598,4.4598,4.4598,4.4598,4.4598,4.4598,4.4598,4.4598,4.4598,4.4598,4.4598,4.4598,4.4598,4.4598,4.4598,4.4598,4.4598,4.4598,4.4598,4.4598,4.4598,4.4598,4.4598,4.4598,4.4598,4.4598,4.4598,4.4598,4.4598,4.4598,4.4598,4.4598,4.4598,4.4598,4.457,4.4542,4.4542,4.4514,4.4412,4.7462,4.6735,4.6007,4.5703,4.5602,4.4976,4.4649,4.4699,4.4632,4.4547,4.4333,4.3792,4.3477,4.3257,4.2642,4.2269,4.1982,4.0925,4.0299,4.0231,4.013,4.0113,4.0113,4.0113,4.0113,4.0113,4.0113,4.0113,4.0113,4.0113,4.0113,4.0113,4.0113,4.0113,4.0113,4.0113,4.0113,4.0113,4.0113,4.0113,4.0113,4.0113,4.0113,4.0113,4.0113,4.0113,4.0113,4.0113,4.0113,4.0113,4.0113,4.0113,4.0113,4.0113,4.0113,4.0113,4.0113,4.0113,4.0214,4.0764,4.1119,4.1593,4.253,4.325,4.3487,4.4062,4.4479,4.4479,4.4547,4.4598,4.4598,4.4598,4.4598,4.4598,4.4598,4.4598,4.4598,4.4598,4.4598,4.4598,4.4598,4.4598,4.4598,4.4598,4.4598,4.4598,4.4598,4.4598,4.4598,4.4598,4.4598,4.4598,4.4598,4.4598,4.4598,4.4598,4.4598,4.4598,4.4598,4.4598,4.4598,4.4598,4.4598,4.4598,4.4598,4.4598,4.4598,4.4598,4.4598,4.4598,4.4598,4.4598,4.457,4.4542,4.457,4.7784,4.7479,4.6769,4.6447,4.6363,4.5669,4.5348,4.528,4.4852,4.4598,4.4547,4.4333,4.4215,4.4028,4.342,4.3064,4.298,4.2049,4.1339,4.0849,4.0367,4.0113,4.0113,4.0113,4.0113,4.0113,4.0113,4.0113,4.0113,4.0113,4.0113,4.0113,4.0113,4.0113,4.0113,4.0113,4.0113,4.0113,4.0113,4.0113,4.0113,4.0113,4.0113,4.0113,4.0113,4.0113,4.0113,4.0113,4.0113,4.0113,4.0113,4.0113,4.0113,4.0113,4.0113,4.0113,4.0113,4.0383,4.0815,4.1119,4.1711,4.2523,4.32,4.3656,4.413,4.4418,4.4598,4.4598,4.4598,4.4598,4.4598,4.4598,4.4598,4.4598,4.4598,4.4598,4.4598,4.4598,4.4598,4.4598,4.4598,4.4598,4.4598,4.4598,4.4598,4.4598,4.4598,4.4598,4.4598,4.4598,4.4598,4.4598,4.4598,4.4598,4.4598,4.4598,4.4598,4.4598,4.4598,4.4598,4.4598,4.4598,4.4598,4.4598,4.4598,4.4598,4.4598,4.4598,4.4598,4.4598,4.4598,4.4598,4.4598,4.4598,4.4598,4.8325,4.824,4.7513,4.7208,4.7124,4.643,4.5957,4.5669,4.5213,4.484,4.4649,4.4598,4.4598,4.4513,4.4062,4.3859,4.3758,4.3064,4.2472,4.1897,4.0916,4.0417,4.0163,4.0113,4.0113,4.0113,4.0113,4.0113,4.0113,4.0113,4.0113,4.0113,4.0113,4.0113,4.0113,4.0113,4.0113,4.0113,4.0113,4.0113,4.0113,4.0113,4.0113,4.0113,4.0113,4.0113,4.0113,4.0113,4.0113,4.0113,4.0113,4.0113,4.0113,4.0113,4.0214,4.0443,4.0544,4.0832,4.1525,4.1931,4.2354,4.324,4.369,4.4028,4.4513,4.4598,4.4598,4.4598,4.4598,4.4598,4.4598,4.4598,4.4598,4.4598,4.4598,4.4598,4.4598,4.4598,4.4598,4.4598,4.4598,4.4598,4.4598,4.4598,4.4598,4.4598,4.4598,4.4598,4.4598,4.4598,4.4598,4.4598,4.4598,4.4598,4.4598,4.4598,4.4598,4.4598,4.4598,4.4598,4.4598,4.4598,4.4598,4.4598,4.4598,4.4598,4.4598,4.4598,4.4598,4.4598,4.4598,4.4598,4.4598,4.4598,4.4598,4.9001,4.8917,4.8274,4.7956,4.7855,4.7175,4.6549,4.5957,4.5788,4.5365,4.4835,4.4767,4.4666,4.4615,4.4496,4.4462,4.4445,4.3842,4.3386,4.2929,4.2016,4.1102,4.0553,4.0502,4.0451,4.0282,4.0248,4.018,4.0113,4.0113,4.0113,4.0113,4.0113,4.0113,4.0113,4.0113,4.0113,4.0113,4.0113,4.0113,4.0113,4.0113,4.0113,4.0113,4.0197,4.0265,4.0282,4.04,4.0299,4.013,4.018,4.0282,4.0197,4.0197,4.0663,4.1221,4.1271,4.166,4.2303,4.2844,4.3318,4.3561,4.413,4.4598,4.4581,4.4598,4.4598,4.4598,4.4598,4.4649,4.4699,4.475,4.4784,4.4767,4.475,4.4632,4.4598,4.4598,4.4598,4.4598,4.4598,4.4598,4.4598,4.4598,4.4598,4.4598,4.4598,4.4598,4.4598,4.4598,4.4598,4.4598,4.4598,4.4598,4.4598,4.4598,4.4598,4.4598,4.4598,4.4598,4.4598,4.4598,4.4598,4.4598,4.4598,4.4598,4.4598,4.4598,4.4598,4.4598,4.4598,4.4598,4.4598,4.4598,4.4598,4.9018,4.8984,4.8798,4.8731,4.8612,4.7936,4.753,4.7229,4.6718,4.6109,4.5517,4.5399,4.5094,4.4649,4.4615,4.4598,4.453,4.4378,4.391,4.3392,4.3081,4.2422,4.183,4.1704,4.139,4.0967,4.0899,4.0637,4.0146,4.0214,4.018,4.0113,4.0231,4.0163,4.0113,4.018,4.0113,4.0113,4.013,4.0163,4.018,4.018,4.0113,4.0146,4.0612,4.0899,4.0967,4.145,4.1162,4.0231,4.0654,4.0916,4.095,4.1356,4.1711,4.1948,4.2033,4.2337,4.298,4.3318,4.3673,4.4215,4.4445,4.4598,4.4598,4.4598,4.4598,4.4598,4.4615,4.484,4.5263,4.5415,4.5618,4.6003,4.5343,4.4716,4.4649,4.4598,4.4598,4.4598,4.4598,4.4598,4.4598,4.4598,4.4598,4.4598,4.4598,4.4598,4.4598,4.4598,4.4598,4.4598,4.4598,4.4598,4.4598,4.4598,4.4598,4.4598,4.4598,4.4598,4.4598,4.4598,4.4598,4.4598,4.4598,4.4598,4.4598,4.4598,4.4598,4.4598,4.4598,4.4598,4.4598,4.4598,4.4598,4.9018,4.9018,4.9018,4.9018,4.8968,4.8514,4.8176,4.7838,4.7462,4.6853,4.6227,4.5821,4.5466,4.5043,4.475,4.4626,4.4682,4.4682,4.4427,4.4078,4.3921,4.3267,4.2506,4.2286,4.2066,4.1728,4.166,4.1424,4.1128,4.1027,4.1027,4.1094,4.1027,4.1027,4.1111,4.1027,4.101,4.106,4.1027,4.1027,4.1027,4.1044,4.1044,4.1094,4.1457,4.166,4.1728,4.2066,4.1873,4.1271,4.1424,4.166,4.1694,4.2033,4.2422,4.2709,4.2777,4.3115,4.3724,4.391,4.4096,4.4496,4.4598,4.4598,4.4598,4.4598,4.4649,4.5026,4.5043,4.5432,4.5974,4.616,4.6363,4.6549,4.6036,4.541,4.5111,4.4773,4.4632,4.4598,4.4598,4.4598,4.4598,4.4598,4.4598,4.4598,4.4598,4.4598,4.4598,4.4598,4.4598,4.4598,4.4598,4.4598,4.4598,4.4598,4.4598,4.4598,4.4598,4.4598,4.4598,4.4598,4.4598,4.4598,4.4598,4.4598,4.4598,4.4598,4.4598,4.4598,4.4598,4.4598,4.4598,4.4598,4.4598,4.9001,4.9018,4.9018,4.9018,4.9018,4.8984,4.8612,4.8108,4.8054,4.7597,4.6921,4.6273,4.6082,4.5799,4.5241,4.4862,4.4956,4.4871,4.4831,4.4674,4.4533,4.3908,4.2949,4.2855,4.2658,4.2455,4.2405,4.2286,4.2083,4.2134,4.2219,4.2066,4.2117,4.2219,4.2033,4.2134,4.2269,4.2117,4.2033,4.2016,4.2016,4.2016,4.1999,4.2033,4.2286,4.2523,4.2591,4.2675,4.2601,4.254,4.2455,4.2405,4.2422,4.2439,4.2878,4.3403,4.3555,4.3842,4.4384,4.4496,4.4519,4.4598,4.4598,4.4682,4.4739,4.4823,4.5094,4.5771,4.5821,4.6177,4.6769,4.6972,4.7141,4.7225,4.7022,4.6583,4.5991,4.5263,4.4835,4.4818,4.4835,4.4733,4.4699,4.4649,4.4598,4.4598,4.4598,4.4598,4.4598,4.4598,4.4598,4.4598,4.4598,4.4598,4.4598,4.4598,4.4598,4.4598,4.4598,4.4598,4.4598,4.4598,4.4598,4.4598,4.4598,4.4598,4.4598,4.4598,4.4598,4.4598,4.4598,4.4598,4.4598,4.4598,4.4598,4.9124,4.9018,4.9018,4.9018,4.9018,4.9001,4.8917,4.8765,4.8748,4.8308,4.778,4.7594,4.7216,4.669,4.6073,4.5738,4.5625,4.5254,4.4951,4.4968,4.4923,4.4739,4.4221,4.4061,4.3735,4.3335,4.3156,4.2895,4.2506,4.2472,4.232,4.2388,4.2523,4.232,4.2405,4.2506,4.2303,4.2303,4.2354,4.2439,4.2439,4.2455,4.2439,4.2472,4.2912,4.3487,4.4005,4.4107,4.4107,4.3944,4.3521,4.3156,4.325,4.3673,4.4012,4.4147,4.4265,4.4412,4.4581,4.4632,4.4615,4.4682,4.4784,4.4852,4.5415,4.5466,4.5821,4.638,4.6566,4.6904,4.7581,4.8206,4.8325,4.8257,4.7953,4.7614,4.7314,4.6735,4.6256,4.6109,4.5771,4.5466,4.5415,4.4902,4.475,4.4649,4.4598,4.4598,4.4598,4.4598,4.4598,4.4598,4.4598,4.4598,4.4598,4.4598,4.4598,4.4598,4.4598,4.4598,4.4598,4.4598,4.4598,4.4598,4.4598,4.4598,4.4598,4.4598,4.4598,4.4598,4.4598,4.4598,4.4598,4.4598,4.4598,4.9307,4.9216,4.9107,4.9077,4.9094,4.9032,4.9032,4.9063,4.9032,4.889,4.8604,4.8324,4.7899,4.7612,4.6994,4.6618,4.6492,4.5932,4.5394,4.5189,4.5049,4.4968,4.4913,4.4803,4.4483,4.4005,4.3961,4.369,4.3481,4.3345,4.3481,4.3396,4.3335,4.347,4.3369,4.3318,4.3436,4.3436,4.3369,4.3369,4.3379,4.3369,4.3396,4.3413,4.3758,4.4198,4.4513,4.4564,4.4581,4.4496,4.4198,4.3961,4.3978,4.4378,4.4581,4.4598,4.4598,4.4598,4.4632,4.4908,4.5156,4.5128,4.5382,4.5771,4.6109,4.6227,4.6583,4.7107,4.7378,4.7614,4.8342,4.8663,4.8984,4.8951,4.8663,4.8413,4.8274,4.7479,4.6786,4.6735,4.6413,4.6041,4.5686,4.5348,4.4953,4.4869,4.4699,4.4699,4.4615,4.4615,4.4598,4.4598,4.4598,4.4598,4.4598,4.4598,4.4598,4.4598,4.4598,4.4598,4.4598,4.4598,4.4598,4.4598,4.4598,4.4598,4.4598,4.4598,4.4598,4.4598,4.4598,4.4598,4.4598,4.4598,4.4598,4.95,4.9488,4.932,4.926,4.9212,4.9124,4.9155,4.9229,4.9124,4.9212,4.9355,4.8635,4.8523,4.8407,4.7877,4.7592,4.7305,4.6876,4.6224,4.5873,4.5534,4.5429,4.5306,4.5125,4.4896,4.4682,4.4597,4.4529,4.4518,4.4609,4.4338,4.4513,4.453,4.4344,4.4496,4.4564,4.4412,4.4344,4.4344,4.4378,4.4412,4.4429,4.4412,4.4412,4.4429,4.4496,4.4581,4.4598,4.4649,4.4767,4.4784,4.4852,4.4919,4.4773,4.4756,4.4818,4.5004,4.5173,4.5292,4.5551,4.5872,4.5889,4.6346,4.6786,4.6904,4.7022,4.7378,4.78,4.8139,4.8291,4.8917,4.8984,4.8984,4.9015,4.9032,4.9049,4.886,4.7894,4.7501,4.7242,4.7158,4.6836,4.643,4.6058,4.5517,4.5106,4.497,4.4852,4.4801,4.4767,4.4835,4.4632,4.4598,4.4891,4.4959,4.5055,4.5004,4.497,4.4886,4.4801,4.475,4.4598,4.4598,4.4598,4.4598,4.4598,4.4598,4.4598,4.4598,4.4598,4.4598,4.4598,4.4598,4.4598,4.4598,4.959,4.9488,4.9488,4.9458,4.9458,4.9428,4.9411,4.9441,4.9428,4.9458,4.9483,4.9453,4.938,4.9284,4.8816,4.8253,4.7789,4.7406,4.7251,4.698,4.6574,4.6227,4.6052,4.5664,4.5257,4.4995,4.4992,4.4988,4.4793,4.4765,4.4737,4.4626,4.4626,4.4626,4.4598,4.4598,4.4598,4.4598,4.4598,4.4598,4.4598,4.4682,4.4744,4.4761,4.4829,4.4846,4.4733,4.4699,4.4857,4.5432,4.55,4.5821,4.6116,4.5862,4.5647,4.5618,4.594,4.6126,4.6227,4.6464,4.6599,4.6633,4.6883,4.7255,4.7564,4.775,4.8115,4.8524,4.8778,4.8897,4.8984,4.9063,4.9094,4.9138,4.9168,4.9229,4.9282,4.9044,4.8664,4.8412,4.8064,4.7627,4.7247,4.6886,4.6479,4.6186,4.605,4.5829,4.5677,4.5501,4.5388,4.5032,4.4598,4.5026,4.5432,4.5534,4.5613,4.563,4.5529,4.5292,4.5122,4.4716,4.4615,4.5004,4.4835,4.4598,4.4598,4.4598,4.4598,4.4598,4.4598,4.4615,4.4598,4.4598,4.4598,5.0192,4.9759,4.9666,4.959,4.9607,4.9547,4.953,4.959,4.9547,4.9607,4.9713,4.9725,4.9767,4.9739,4.9591,4.901,4.8385,4.8202,4.8012,4.7689,4.731,4.7138,4.7021,4.6591,4.6237,4.5959,4.5812,4.5446,4.493,4.4913,4.4858,4.4831,4.4803,4.4776,4.4709,4.4692,4.4688,4.466,4.4649,4.4632,4.4699,4.4993,4.5269,4.5354,4.5643,4.5846,4.5818,4.5749,4.5947,4.6309,4.6377,4.6639,4.6935,4.7087,4.6843,4.6506,4.668,4.6819,4.6904,4.709,4.7361,4.7428,4.7708,4.8175,4.851,4.8676,4.8872,4.911,4.9277,4.9277,4.9277,4.9229,4.929,4.932,4.935,4.9398,4.9488,4.9518,4.9398,4.9277,4.8967,4.8507,4.8086,4.7758,4.7486,4.7253,4.7134,4.685,4.6561,4.6379,4.6214,4.5954,4.5631,4.5903,4.6299,4.6355,4.6394,4.6394,4.6298,4.606,4.5845,4.5603,4.5676,4.5952,4.5563,4.4948,4.4649,4.4666,4.4632,4.4666,4.4733,4.4784,4.4649,4.4598,4.4767,5.0907,5.0188,5.0037,4.9892,4.9772,4.9654,4.9666,4.9725,4.9666,4.9742,4.9935,4.9842,4.9842,4.9947,4.9924,4.9614,4.9034,4.9034,4.8723,4.8344,4.8,4.7913,4.7896,4.7672,4.731,4.6818,4.6749,4.6185,4.5223,4.5032,4.5032,4.5063,4.508,4.5173,4.5131,4.5437,4.5156,4.5179,4.5122,4.5122,4.532,4.5779,4.6187,4.6204,4.6737,4.6992,4.689,4.6787,4.6956,4.7185,4.7316,4.7442,4.7779,4.8304,4.8175,4.7509,4.7361,4.7344,4.753,4.787,4.8273,4.829,4.8859,4.9175,4.9256,4.9231,4.9453,4.9488,4.9488,4.9488,4.9458,4.9488,4.95,4.953,4.9547,4.9577,4.9624,4.9654,4.9683,4.9624,4.9607,4.9325,4.8792,4.8677,4.8375,4.8306,4.817,4.7812,4.7556,4.7449,4.7312,4.7119,4.7011,4.7085,4.7278,4.7311,4.7316,4.7316,4.7236,4.7037,4.6889,4.6707,4.6779,4.6683,4.6162,4.5597,4.5151,4.5038,4.5348,4.5466,4.5162,4.5145,4.5444,4.5495,4.5546,5.1619,5.0976,5.0947,5.0585,5.005,4.997,4.9952,4.997,4.997,4.9964,5.0011,4.9964,4.9964,5.0011,5.0011,4.9924,4.9838,4.9706,4.9631,4.9355,4.8941,4.8672,4.8568,4.7948,4.7872,4.7586,4.7579,4.6618,4.5753,4.5434,4.525,4.5333,4.5802,4.5952,4.602,4.6413,4.7005,4.6942,4.688,4.6863,4.6863,4.6994,4.7096,4.7176,4.7313,4.7438,4.7523,4.75,4.7665,4.8177,4.8258,4.8565,4.9095,4.9266,4.9334,4.9219,4.9185,4.9167,4.9035,4.9057,4.9142,4.9078,4.9359,4.9441,4.9518,4.9518,4.9547,4.9488,4.9552,4.965,4.9701,4.965,4.9611,4.9735,4.985,4.9858,4.9877,4.9801,4.9818,4.9848,4.9801,4.9683,4.9372,4.9376,4.9317,4.9266,4.9159,4.8765,4.8538,4.8442,4.8305,4.8129,4.8072,4.8192,4.8237,4.8282,4.8224,4.8194,4.8114,4.8016,4.7868,4.7639,4.7333,4.7134,4.6748,4.6702,4.6644,4.6615,4.6544,4.6336,4.6072,4.6235,4.6566,4.6527,4.6442,5.2822,5.1718,5.1257,5.1183,5.1149,5.039,5.0252,5.0493,5.0183,5.0011,5.0011,5.0011,5.0011,5.0011,5.0011,4.9993,5.0011,5.0011,5.0011,5.0011,4.9648,4.943,4.9424,4.912,4.8872,4.8361,4.8241,4.7827,4.6893,4.6591,4.6563,4.6526,4.6801,4.6979,4.6912,4.7238,4.7312,4.7256,4.7273,4.729,4.7427,4.7758,4.8026,4.8072,4.842,4.8557,4.8591,4.859,4.8704,4.9081,4.914,4.9306,4.9639,4.9755,4.9755,4.9755,4.9755,4.9679,4.9513,4.9535,4.9535,4.9564,4.9594,4.9649,4.9742,4.9823,4.9823,4.9772,5.0184,5.0373,5.0527,5.0802,5.0712,5.0668,5.0449,5.025,5.0206,4.9999,4.9964,4.9964,5.0016,5.002,4.9983,4.9897,4.9811,4.9656,4.9605,4.9463,4.9371,4.9401,4.9263,4.9108,4.9091,4.9143,4.9217,4.9245,4.9071,4.9042,4.8971,4.8856,4.877,4.8553,4.8292,4.8314,4.8387,4.8328,4.8205,4.7636,4.7085,4.6995,4.6986,4.7219,4.7459,4.7589,4.7699,5.3839,5.2735,5.1994,5.1908,5.2084,5.1011,5.0769,5.0976,5.0562,5.02,5.0028,5.0011,5.0011,5.0011,5.0011,5.0011,5.0011,5.0011,5.0011,5.0011,5.0011,4.9959,4.989,4.9855,4.9585,4.9085,4.9103,4.8775,4.8482,4.8189,4.8068,4.7769,4.7799,4.7875,4.7905,4.8134,4.8295,4.822,4.8175,4.814,4.8238,4.8673,4.889,4.9114,4.9423,4.9767,4.9755,4.9644,4.9627,4.9703,4.9715,4.9762,4.9935,4.9935,4.9935,5.0004,5.0125,5.0255,5.0034,4.9872,4.9744,4.9894,5.021,5.0587,5.0624,5.0562,5.0562,5.0705,5.1003,5.1326,5.1464,5.1843,5.1705,5.1468,5.1343,5.0964,5.0718,5.0718,5.0723,5.089,5.089,5.0666,5.059,5.043,5.024,5.0033,4.9993,5.0011,4.9964,4.993,4.9826,4.9591,4.9608,4.9625,4.97,4.9791,4.975,4.9737,4.9666,4.9585,4.9409,4.9362,4.9242,4.9436,4.956,4.9317,4.8865,4.8209,4.7622,4.7924,4.8153,4.8134,4.826,4.8499,4.9056,5.446,5.4287,5.3529,5.2856,5.2257,5.2084,5.1653,5.1218,5.1097,5.0666,5.0166,5.0011,5.0011,5.0011,5.0011,5.0011,5.0011,5.0011,5.0011,5.0011,5.0011,5.0011,5.0011,4.9976,4.9959,4.9809,4.9752,4.9735,4.9769,4.9424,4.8821,4.801,4.8517,4.8672,4.8833,4.916,4.9401,4.9407,4.9407,4.9476,4.951,4.9694,4.9746,4.9809,4.9895,4.9964,4.9964,4.9906,4.9906,4.9935,4.9935,5.0073,5.0154,5.0183,5.02,5.0476,5.0804,5.0934,5.0823,5.0531,5.0452,5.0934,5.1399,5.1675,5.1636,5.1877,5.1981,5.1826,5.1977,5.2114,5.2149,5.217,5.2429,5.2239,5.2101,5.189,5.1683,5.1671,5.1722,5.1826,5.1701,5.1373,5.1257,5.1119,5.07,5.0459,5.0028,5.0011,5.0011,4.9964,4.9964,4.9878,4.9895,4.9913,4.9913,4.9935,4.9889,4.9889,4.983,4.9877,4.9837,4.9877,4.9801,4.9755,4.9696,4.9637,4.9543,4.9017,4.8812,4.9193,4.9362,4.9348,4.9726,5.0162,5.0745,5.4512,5.4477,5.4184,5.3908,5.3546,5.2584,5.2033,5.1791,5.1757,5.1373,5.0666,5.0235,5.0011,5.0011,5.0011,5.0011,5.0011,5.0011,5.0011,5.0011,5.0011,5.0011,5.0011,5.0011,4.9993,5.0011,5.0011,5.0011,4.9959,5.0011,4.9804,4.9373,4.9327,4.9493,4.9735,4.9804,4.9942,5.0011,5.0011,5.0011,5.0011,5.0011,5.0011,5.0011,5.0011,5.0011,4.9964,4.9964,5.0011,5.0028,5.0062,5.0338,5.0631,5.0666,5.0873,5.12,5.1584,5.1722,5.1757,5.1481,5.1515,5.1636,5.2015,5.2239,5.236,5.2239,5.2188,5.2274,5.2718,5.2925,5.2959,5.3322,5.358,5.3166,5.2873,5.2718,5.2597,5.255,5.2498,5.2498,5.2222,5.1895,5.1877,5.1895,5.1373,5.0856,5.0373,5.0028,5.0097,5.0011,5.0011,5.0011,5.0011,5.0011,5.0011,5.0011,5.0011,5.0011,5.0011,5.0051,5.008,5.0011,4.9935,4.9906,4.9959,4.9999,4.9988,4.986,4.9801,4.9779,5.0176,5.0635,5.113,5.164,5.2048,5.4512,5.4512,5.4512,5.4512,5.4356,5.3356,5.277,5.258,5.258,5.2149,5.1407,5.0683,5.0338,5.0304,5.0062,5.0011,5.0011,5.0011,5.0011,5.0011,5.0011,5.0011,5.0011,5.0011,5.0011,5.0011,5.0011,5.0011,5.0011,5.0011,4.9907,4.989,4.9993,4.9959,4.9959,5.0011,5.0011,5.0011,5.0011,5.0011,5.0011,5.0011,5.0235,5.0304,5.0407,5.0407,5.0545,5.0666,5.0649,5.0614,5.0649,5.0947,5.1222,5.1511,5.1705,5.2097,5.2442,5.2515,5.2532,5.2532,5.2532,5.2567,5.2894,5.2946,5.286,5.286,5.3132,5.3049,5.3494,5.3736,5.3736,5.4046,5.4167,5.3753,5.3718,5.358,5.3408,5.3291,5.3205,5.3136,5.2843,5.2666,5.2825,5.2825,5.217,5.1563,5.0878,5.055,5.0476,5.0304,5.0011,5.0011,5.0011,5.0011,5.0011,5.0011,5.0011,5.0011,5.0022,5.0195,5.0223,5.0195,5.0387,5.0657,5.0667,5.0537,5.0564,5.0657,5.0408,5.0126,5.0741,5.1475,5.1799,5.2232,5.259,5.4512,5.4512,5.4512,5.4512,5.4494,5.4477,5.3994,5.327,5.3166,5.2822,5.2119,5.1425,5.108,5.0959,5.058,5.0407,5.0321,5.0218,5.0149,5.0183,5.0045,5.0028,5.0011,5.0011,5.0011,5.0011,5.0011,5.0011,5.0011,5.0011,5.0011,5.02,5.0321,5.02,5.0045,5.0011,5.0011,5.0011,5.0028,5.0235,5.0166,5.0252,5.0666,5.0959,5.1067,5.108,5.1183,5.1511,5.1476,5.1218,5.1533,5.186,5.2149,5.217,5.2291,5.2463,5.3063,5.3322,5.3356,5.3373,5.3373,5.3408,5.3718,5.4011,5.427,5.4322,5.4167,5.3908,5.4253,5.4374,5.4443,5.4443,5.4408,5.4374,5.4287,5.4236,5.4011,5.3925,5.3822,5.3736,5.3632,5.3546,5.3804,5.3804,5.308,5.2373,5.155,5.1154,5.1045,5.0856,5.058,5.0304,5.0321,5.0085,5.0114,5.0028,5.0011,5.0011,5.0149,5.0387,5.062,5.0766,5.1017,5.1365,5.1288,5.107,5.1288,5.1543,5.1244,5.1061,5.1626,5.2226,5.2499,5.2698,5.2977,5.4512,5.4512,5.4512,5.4512,5.4512,5.4512,5.408,5.3391,5.2908,5.277,5.2822,5.2153,5.1808,5.1735,5.1597,5.1373,5.1338,5.0838,5.0752,5.07,5.0355,5.0045,5.0045,5.0183,5.0097,5.0011,5.0011,5.0114,5.0011,5.0166,5.0424,5.0649,5.0981,5.0873,5.0442,5.0338,5.058,5.0321,5.0787,5.1304,5.0873,5.1166,5.1515,5.1791,5.1826,5.1826,5.1843,5.2239,5.2153,5.1942,5.2274,5.2532,5.2891,5.2994,5.3187,5.3529,5.408,5.4115,5.4132,5.4132,5.4132,5.4218,5.4305,5.4512,5.4512,5.4512,5.4512,5.4512,5.4512,5.4512,5.4494,5.4494,5.446,5.4477,5.4443,5.4443,5.4339,5.4356,5.4322,5.4287,5.4201,5.4146,5.4316,5.4347,5.3794,5.3502,5.2805,5.2123,5.1839,5.1735,5.1481,5.1028,5.0769,5.0442,5.0269,5.0541,5.0569,5.0561,5.0652,5.082,5.1044,5.1288,5.1467,5.1719,5.1669,5.1619,5.1817,5.1988,5.2036,5.2132,5.2431,5.2672,5.285,5.2955,5.3082,5.4512,5.4512,5.4512,5.4512,5.4512,5.4512,5.4201,5.3736,5.3253,5.3291,5.3529,5.2977,5.2632,5.2563,5.2308,5.217,5.2166,5.177,5.1494,5.1425,5.1063,5.0942,5.0873,5.0735,5.0959,5.0752,5.0752,5.0792,5.0895,5.0821,5.108,5.1498,5.1929,5.1567,5.12,5.1205,5.1338,5.12,5.1666,5.1877,5.1718,5.1877,5.2257,5.2515,5.2601,5.2601,5.267,5.2756,5.2825,5.2756,5.2908,5.3201,5.3632,5.3856,5.4029,5.4391,5.4512,5.4494,5.446,5.4443,5.4408,5.446,5.4512,5.4512,5.4512,5.4512,5.4512,5.4512,5.4512,5.4512,5.4512,5.4512,5.4512,5.4512,5.4543,5.4543,5.4575,5.4575,5.4589,5.4606,5.462,5.4652,5.4759,5.4665,5.4441,5.4296,5.4099,5.3432,5.2766,5.2576,5.2416,5.1949,5.1608,5.1371,5.1303,5.1431,5.137,5.1205,5.1387,5.1678,5.1619,5.1891,5.1988,5.2126,5.234,5.2428,5.2338,5.2408,5.2645,5.2695,5.2739,5.2952,5.3164,5.3259,5.3314,5.4512,5.4512,5.4512,5.4512,5.4512,5.4512,5.4494,5.4494,5.4443,5.4443,5.4408,5.3701,5.3442,5.3287,5.2684,5.2446,5.2429,5.2326,5.2239,5.2153,5.1942,5.1977,5.1929,5.1912,5.1757,5.1946,5.1964,5.1688,5.2084,5.205,5.2119,5.2287,5.2546,5.2459,5.2377,5.236,5.227,5.208,5.2408,5.2528,5.2425,5.2446,5.2942,5.3253,5.3425,5.3425,5.3563,5.3839,5.3804,5.3839,5.3994,5.4287,5.4477,5.4494,5.4512,5.4512,5.4512,5.4512,5.4512,5.4512,5.4512,5.4512,5.4512,5.4512,5.4512,5.4512,5.4512,5.4512,5.4512,5.4512,5.4512,5.4512,5.4512,5.4543,5.4589,5.462,5.4652,5.4683,5.4745,5.4759,5.4852,5.4957,5.5284,5.5254,5.5164,5.5273,5.512,5.4729,5.411,5.3561,5.3334,5.2974,5.2642,5.2448,5.241,5.2516,5.2604,5.2555,5.2727,5.291,5.2768,5.2775,5.3194,5.3445,5.3365,5.3371,5.3521,5.3511,5.3441,5.3466,5.3639,5.35,5.3775,5.3592,5.3665,5.4512,5.4512,5.4512,5.4512,5.4512,5.4512,5.4512,5.4512,5.4512,5.4512,5.4494,5.4287,5.4115,5.4167,5.396,5.3822,5.3615,5.3373,5.3115,5.2925,5.2649,5.2326,5.2239,5.2326,5.2222,5.2257,5.2274,5.2377,5.2377,5.267,5.3063,5.3097,5.3425,5.3632,5.3718,5.3804,5.3101,5.2808,5.3222,5.3304,5.3304,5.3425,5.3804,5.4011,5.4098,5.408,5.4218,5.4339,5.4287,5.4322,5.4374,5.4512,5.4512,5.4512,5.4512,5.4512,5.4512,5.4512,5.4512,5.4512,5.4543,5.4557,5.4557,5.4512,5.4512,5.4575,5.4557,5.4589,5.4652,5.4665,5.479,5.4821,5.4821,5.4882,5.4987,5.5122,5.5152,5.5152,5.5242,5.5432,5.5473,5.5589,5.5858,5.5858,5.5801,5.6083,5.6095,5.5776,5.5391,5.4836,5.4394,5.4048,5.3954,5.3805,5.3647,5.3664,5.3812,5.3975,5.4114,5.4255,5.4332,5.445,5.469,5.4664,5.4433,5.462,5.4924,5.4766,5.4399,5.4766,5.4943,5.4579,5.4289,5.4197,5.4326,5.4512,5.4512,5.4512,5.4512,5.4512,5.4512,5.4512,5.4512,5.4512,5.4512,5.4512,5.4494,5.4512,5.4477,5.4443,5.4425,5.4374,5.4046,5.3822,5.3701,5.3332,5.3304,5.3118,5.3094,5.3187,5.3097,5.3097,5.3304,5.3184,5.346,5.3856,5.3873,5.4374,5.4443,5.4425,5.4287,5.3946,5.377,5.3856,5.4098,5.4201,5.4253,5.4408,5.4512,5.4512,5.4512,5.4512,5.4512,5.4512,5.4512,5.4512,5.4512,5.4512,5.4512,5.4512,5.4512,5.4512,5.4512,5.4512,5.4512,5.4603,5.4772,5.4865,5.5061,5.4957,5.4926,5.4865,5.4834,5.4896,5.4939,5.5122,5.5242,5.5271,5.5271,5.5502,5.5744,5.5744,5.5744,5.5915,5.6166,5.6276,5.6357,5.6412,5.6384,5.6519,5.6879,5.6964,5.6781,5.6447,5.6062,5.5675,5.5324,5.5318,5.5274,5.5088,5.4938,5.5098,5.5292,5.5425,5.5605,5.5768,5.5574,5.5346,5.5387,5.5445,5.5574,5.5666,5.5537,5.5335,5.5684,5.5849,5.5556,5.5225,5.5097,5.5354,5.4512,5.4512,5.4512,5.4512,5.4512,5.4512,5.4512,5.4512,5.4589,5.4526,5.4526,5.4512,5.4575,5.4683,5.4714,5.479,5.4896,5.48,5.4778,5.4648,5.4618,5.4561,5.4583,5.4645,5.4535,5.4582,5.4572,5.447,5.4492,5.4527,5.4523,5.4543,5.4494,5.4512,5.4512,5.4512,5.4305,5.427,5.4287,5.4408,5.4443,5.4494,5.4512,5.4512,5.4512,5.4512,5.4512,5.4512,5.4512,5.4512,5.4512,5.4512,5.4512,5.4512,5.4512,5.4652,5.4697,5.4852,5.4896,5.4939,5.5122,5.5313,5.5473,5.5658,5.5589,5.5402,5.5313,5.5385,5.5473,5.5572,5.5716,5.5791,5.5819,5.5915,5.6093,5.6258,5.634,5.6394,5.6607,5.6783,5.6835,5.6938,5.7083,5.7058,5.7083,5.754,5.7631,5.7474,5.7309,5.6989,5.6755,5.6437,5.6487,5.6482,5.649,5.6378,5.6459,5.6606,5.6624,5.6612,5.6561,5.6275,5.5871,5.6165,5.6455,5.618,5.6124,5.6198,5.629,5.629,5.64,5.6363,5.6198,5.6069,5.6308,5.4512,5.4512,5.4512,5.4512,5.4512,5.4512,5.4512,5.4526,5.5,5.4926,5.4575,5.4557,5.479,5.5152,5.5182,5.5343,5.5705,5.5618,5.583,5.5744,5.5733,5.5618,5.5791,5.5647,5.5744,5.5858,5.5801,5.5513,5.5254,5.5134,5.4957,5.4589,5.462,5.4697,5.4714,5.4683,5.4665,5.4652,5.4697,5.4683,5.4589,5.4543,5.4512,5.4512,5.4512,5.4512,5.4512,5.4512,5.4512,5.4512,5.4512,5.4512,5.4512,5.4543,5.4759,5.5044,5.5194,5.5373,5.5589,5.5658,5.583,5.5943,5.6111,5.6166,5.6138,5.5943,5.5915,5.6027,5.6093,5.6221,5.633,5.6384,5.6438,5.6554,5.666,5.6809,5.6912,5.7109,5.7284,5.7309,5.7376,5.7474,5.7637,5.7708,5.7774,5.7821,5.7886,5.7862,5.7797,5.7613,5.7522,5.7352,5.751,5.7545,5.7522,5.7413,5.7285,5.7363,5.7404,5.7386,5.7317,5.7097,5.6859,5.7262,5.7483,5.7116,5.7005,5.7391,5.7409,5.7116,5.706,5.7079,5.7226,5.7189,5.7391,5.5313,5.5284,5.5,5.4896,5.4852,5.462,5.4652,5.4909,5.5254,5.5355,5.5313,5.5343,5.5502,5.5791,5.5819,5.5943,5.633,5.6276,5.6193,5.6248,5.6384,5.6248,5.6303,5.6384,5.6221,5.6303,5.6276,5.6055,5.583,5.5773,5.5543,5.5284,5.5254,5.5224,5.5254,5.5254,5.5122,5.4957,5.5122,5.5122,5.4896,5.4697,5.4543,5.4512,5.4512,5.4512,5.4512,5.4512,5.4512,5.4652,5.4759,5.5164,5.5266,5.5414,5.5502,5.5705,5.583,5.5943,5.6221,5.6384,5.6492,5.6581,5.666,5.6704,5.7177,5.7033,5.6783,5.6861,5.666,5.6713,5.7134,5.7277,5.7277,5.7351,5.7401,5.7492,5.754,5.7613,5.7703,5.7703,5.7726,5.775,5.7844,5.7844,5.7909,5.7909,5.7997,5.7997,5.7978,5.7978,5.7978,5.7978,5.7978,5.7978,5.7821,5.7797,5.7789,5.7918,5.7978,5.785,5.7666,5.7813,5.7941,5.7905,5.7886,5.785,5.7886,5.7978,5.7978,5.7648,5.7721,5.785,5.7978,5.7978,5.7923,5.5945,5.606,5.568,5.5531,5.5443,5.4987,5.5061,5.5473,5.5618,5.5925,5.634,5.6447,5.6492,5.6412,5.6412,5.6465,5.6572,5.6809,5.6678,5.6652,5.6652,5.6783,5.6757,5.6607,5.6731,5.6731,5.6704,5.6599,5.6412,5.6367,5.634,5.633,5.6303,5.6276,5.6303,5.6221,5.5943,5.5716,5.5744,5.5876,5.549,5.4957,5.479,5.4634,5.4526,5.4557,5.4589,5.462,5.4652,5.4957,5.5284,5.5629,5.5915,5.6027,5.6203,5.633,5.6394,5.6474,5.6652,5.6757,5.6938,5.7091,5.7166,5.7425,5.7839,5.7815,5.7565,5.7425,5.7241,5.7309,5.7726,5.7909,5.7909,5.7927,5.795,5.795,5.7973,5.7997,5.7973,5.7973,5.7955,5.7978,5.7978,5.7978,5.7978,5.7978,5.7978,5.7978,5.7978,5.7978,5.7978,5.7978,5.7978,5.7978,5.7978,5.7978,5.7978,5.7978,5.7978,5.7978,5.7978,5.7978,5.7978,5.7978,5.7978,5.7978,5.7978,5.7978,5.7978,5.7978,5.7978,5.7978,5.7978,5.7978,5.7978,5.467,5.5303,5.5881,5.6138,5.6111,5.5971,5.6027,5.6176,5.6563,5.6869,5.7015,5.7425,5.7449,5.6964,5.6964,5.7065,5.7401,5.7474,5.7613,5.7684,5.7449,5.754,5.754,5.7333,5.7589,5.7565,5.7425,5.7351,5.704,5.6938,5.6757,5.6465,5.6384,5.6384,5.634,5.634,5.6384,5.6258,5.6276,5.6357,5.6111,5.5676,5.5296,5.5061,5.4759,5.4926,5.5061,5.5224,5.5531,5.583,5.6055,5.6203,5.6412,5.6546,5.6678,5.6912,5.6964,5.7159,5.7277,5.7376,5.757,5.7594,5.7684,5.7708,5.7955,5.7955,5.7821,5.7821,5.7708,5.7708,5.7955,5.7955,5.7955,5.7955,5.7978,5.7978,5.7978,5.7978,5.7978,5.7978,5.7978,5.7978,5.7978,5.7978,5.7978,5.7978,5.7978,5.7978,5.7978,5.7978,5.7978,5.7978,5.7978,5.7978,5.7978,5.7978,5.7978,5.7978,5.7978,5.7978,5.7978,5.7978,5.7978,5.7978,5.7978,5.7978,5.7978,5.7978,5.7978,5.7978,5.7978,5.7978,5.7978,5.7978,5.7978]}]]